[[{"header":{"parameterUnit":"m.s-1","parameterCategory":1,"la1":31.0,"la2":29.5877,"lo1":-88.7671,"lo2":-86.6584,"dy":0.0162,"dx":0.0185,"nx":115,"ny":88,"refTime":"2024-04-20T00:00:00:Z","depth":0,"parameterNumber":2,"parameterNumberName":"U-component_of_WINDS"},"data":[0.0,0.0,0.0,0.0,0.0,0.0,0.0,0.0,0.0,0.0,0.0,0.0,0.0,0.0,0.0,0.0,0.0,0.0,0.0,0.0,0.0,0.0,0.0,0.0,0.0,0.0,0.0,0.0,0.0,0.0,0.0,0.0,0.0,0.0,0.0,0.0,0.0,0.0,0.0,0.0,0.0,0.0,0.0,0.0,0.0,0.0,0.0,0.0,0.0,0.0,0.0,0.0,0.0,0.0,0.0,0.0,0.0,0.0,0.0,0.0,0.0,0.0,0.0,0.0,0.0,0.0,0.0,0.0,0.0,0.0,0.0,0.0,0.0,0.0,0.0,0.0,0.0,0.0,0.0,0.0,0.0,0.0,0.0,0.0,0.0,0.0,0.0,0.0,0.0,0.0,0.0,0.0,0.0,0.0,0.0,0.0,0.0,0.0,0.0,0.0,0.0,0.0,0.0,0.0,0.0,0.0,0.0,0.0,0.0,0.0,0.0,0.0,0.0,0.0,0.0,0.0,0.0,0.0,0.0,0.0,0.0,0.0,0.0,0.0,0.0,0.0,0.0,0.0,0.0,0.0,0.0,0.0,0.0,0.0,0.0,0.0,0.0,0.0,0.0,0.0,0.0,0.0,0.0,0.0,0.0,0.0,0.0,0.0,0.0,0.0,0.0,0.0,0.0,0.0,0.0,0.0,0.0,0.0,0.0,0.0,0.0,0.0,0.0,0.0,0.0,0.0,0.0,0.0,0.0,0.0,0.0,0.0,0.0,0.0,0.0,0.0,0.0,0.0,0.0,0.0,0.0,0.0,0.0,0.0,0.0,0.0,0.0,0.0,0.0,0.0,0.0,0.0,0.0,0.0,0.0,0.0,0.0,0.0,0.0,0.0,0.0,0.0,0.0,0.0,0.0,0.0,0.0,0.0,0.0,0.0,0.0,0.0,0.0,0.0,0.0,0.0,0.0,0.0,0.0,0.0,0.0,0.0,0.0,0.0,0.0,0.0,0.0,0.0,0.0,0.0,0.0,0.0,0.0,0.0,0.0,0.0,0.0,0.0,0.0,0.0,0.0,0.0,0.0,0.0,0.0,0.0,0.0,0.0,0.0,0.0,0.0,0.0,0.0,0.0,0.0,0.0,0.0,0.0,0.0,0.0,0.0,0.0,0.0,0.0,0.0,0.0,0.0,0.0,0.0,0.0,0.0,0.0,0.0,0.0,0.0,0.0,0.0,0.0,0.0,0.0,0.0,0.0,0.0,0.0,0.0,0.0,0.0,0.0,0.0,0.0,0.0,0.0,0.0,0.0,0.0,0.0,0.0,0.0,0.0,0.0,0.0,0.0,0.0,0.0,0.0,0.0,0.0,0.0,0.0,0.0,0.0,0.0,0.0,0.0,0.0,0.0,0.0,0.0,0.0,0.0,0.0,0.0,0.0,0.0,0.0,0.0,0.0,0.0,0.0,0.0,0.0,0.0,0.0,0.0,0.0,0.0,0.0,0.0,0.0,0.0,0.0,0.0,0.0,0.0,0.0,0.0,0.0,0.0,0.0,0.0,0.0,0.0,0.0,0.0,0.0,0.0,0.0,0.0,0.0,0.0,0.0,0.0,0.0,0.0,0.0,0.0,0.0,0.0,0.0,0.0,0.0,0.0,0.0,0.0,0.0,0.0,0.0,0.0,0.0,0.0,0.0,0.0,0.0,0.0,0.0,0.0,0.0,0.0,0.0,0.0,0.0,0.0,0.0,0.0,0.0,0.0,0.0,0.0,0.0,0.0,0.0,0.0,0.0,0.0,0.0,0.0,0.0,0.0,0.0,0.0,0.0,0.0,0.0,0.0,0.0,0.0,0.0,0.0,0.0,0.0,0.0,0.0,0.0,0.0,0.0,0.0,0.0,0.0,0.0,0.0,0.0,0.0,0.0,0.0,0.0,0.0,0.0,0.0,0.0,0.0,0.0,0.0,0.0,0.0,0.0,0.0,0.0,0.0,0.0,0.0,0.0,0.0,0.0,0.0,0.0,0.0,0.0,0.0,0.0,0.0,0.0,0.0,0.0,0.0,0.0,0.0,0.0,0.0,0.0,0.0,0.0,0.0,0.0,0.0,0.0,0.0,0.0,0.0,0.0,0.0,0.0,0.0,0.0,0.0,0.0,0.0,0.0,0.0,0.0,0.0,0.0,0.0,0.0,0.0,0.0,0.0,0.0,0.0,0.0,0.0,0.0,0.0,0.0,0.0,0.0,0.0,0.0,0.0,0.0,0.0,0.0,0.0,0.0,0.0,0.0,0.0,0.0,0.0,0.0,0.0,0.0,0.0,0.0,0.0,0.0,0.0,0.0,0.0,0.0,0.0,0.0,0.0,0.0,0.0,0.0,0.0,0.0,0.0,0.0,0.0,0.0,0.0,0.0,0.0,0.0,0.0,0.0,0.0,0.0,0.0,0.0,0.0,0.0,0.0,0.0,0.0,0.0,0.0,0.0,0.0,0.0,0.0,0.0,0.0,0.0,0.0,0.0,0.0,0.0,0.0,0.0,0.0,0.0,0.0,0.0,0.0,0.0,0.0,0.0,0.0,0.0,0.0,0.0,0.0,0.0,0.0,0.0,0.0,0.0,0.0,0.0,0.0,0.0,0.0,0.0,0.0,0.0,0.0,0.0,0.0,0.0,0.0,0.0,0.0,0.0,0.0,0.0,0.0,0.0,0.0,0.0,0.0,0.0,0.0,0.0,0.0,0.0,0.0,0.0,0.0,0.0,0.0,0.0,0.0,0.0,0.0,0.0,0.0,0.0,0.0,0.0,0.0,0.0,0.0,0.0,0.0,0.0,0.0,0.0,0.0,0.0,0.0,0.0,0.0,0.0,0.0,0.0,0.0,0.0,0.0,0.0,0.0,0.0,0.0,0.0,0.0,0.0,0.0,0.0,0.0,0.0,0.0,0.0,0.0,0.0,0.0,0.0,0.0,0.0,0.0,0.0,0.0,0.0,0.0,0.0,0.0,0.0,0.0,0.0,0.0,0.0,0.0,0.0,0.0,0.0,0.0,0.0,0.0,0.0,0.0,0.0,0.0,0.0,0.0,0.0,0.0,0.0,0.0,0.0,0.0,0.0,0.0,0.0,0.0,0.0,0.0,0.0,0.0,0.0,0.0,0.0,0.0,0.0,0.0,0.0,0.0,0.0,0.0,0.0,0.0,0.0,0.0,0.0,0.0,0.0,0.0,0.0,0.0,0.0,0.0,0.0,0.0,0.0,0.0,0.0,0.0,0.0,0.0,0.0,0.0,0.0,0.0,0.0,0.0,0.0,0.0,0.0,0.0,0.0,0.0,0.0,0.0,0.0,0.0,0.0,0.0,0.0,0.0,0.0,0.0,0.0,0.0,0.0,0.0,0.0,0.0,0.0,0.0,0.0,0.0,0.0,0.0,0.0,0.0,0.0,0.0,0.0,0.0,0.0,0.0,0.0,0.0,0.0,0.0,0.0,0.0,0.0,0.0,0.0,0.0,0.0,0.0,0.0,0.0,0.0,0.0,0.0,0.0,0.0,0.0,0.0,0.0,0.0,0.0,0.0,0.0,0.0,0.0,0.0,0.0,0.0,0.0,0.0,0.0,0.0,0.0,0.0,0.0,0.0,0.0,0.0,0.0,0.0,0.0,0.0,0.0,0.0,0.0,0.0,0.0,0.0,0.0,0.0,0.0,0.0,0.0,0.0,0.0,0.0,0.0,0.0,0.0,0.0,0.0,0.0,0.0,0.0,0.0,0.0,0.0,0.0,0.0,0.0,0.0,0.0,0.0,0.0,0.0,0.0,0.0,0.0,0.0,0.0,0.0,0.0,0.0,0.0,0.0,0.0,0.0,0.0,0.0,0.0,0.0,0.0,0.0,0.0,0.0,0.0,0.0,0.0,0.0,0.0,0.0,0.0,0.0,0.0,0.0,0.0,0.0,0.0,0.0,0.0,0.0,0.0,0.0,0.0,0.0,0.0,0.0,0.0,0.0,0.0,0.0,0.0,0.0,0.0,0.0,0.0,0.0,0.0,0.0,0.0,0.0,0.0,0.0,0.0,0.0,0.0,0.0,0.0,0.0,0.0,0.0,0.0,0.0,0.0,0.0,0.0,0.0,0.0,0.0,0.0,0.0,0.0,0.0,0.0,0.0,0.0,0.0,0.0,0.0,0.0,0.0,0.0,0.0,0.0,0.0,0.0,0.0,0.0,0.0,0.0,0.0,0.0,0.0,0.0,0.0,0.0,0.0,0.0,0.0,0.0,0.0,0.0,0.0,-3.4699,0.0,0.0,0.0,0.0,0.0,0.0,0.0,0.0,0.0,0.0,0.0,0.0,0.0,0.0,0.0,0.0,0.0,0.0,0.0,0.0,0.0,0.0,0.0,0.0,0.0,0.0,0.0,0.0,0.0,0.0,0.0,0.0,0.0,0.0,0.0,0.0,0.0,0.0,0.0,0.0,0.0,0.0,0.0,0.0,0.0,0.0,0.0,0.0,0.0,0.0,0.0,0.0,0.0,0.0,0.0,0.0,0.0,0.0,0.0,0.0,0.0,0.0,0.0,0.0,0.0,0.0,0.0,0.0,0.0,0.0,0.0,0.0,0.0,0.0,0.0,0.0,0.0,0.0,0.0,0.0,0.0,0.0,0.0,0.0,0.0,0.0,0.0,0.0,0.0,0.0,0.0,0.0,0.0,0.0,0.0,0.0,0.0,0.0,0.0,0.0,0.0,0.0,0.0,0.0,0.0,0.0,0.0,0.0,0.0,0.0,-3.4403,-3.4015,-3.3998,-3.4,-3.402,0.0,0.0,0.0,0.0,0.0,0.0,0.0,0.0,0.0,0.0,0.0,0.0,0.0,0.0,0.0,0.0,0.0,0.0,0.0,0.0,0.0,0.0,0.0,0.0,0.0,0.0,0.0,0.0,0.0,0.0,0.0,0.0,0.0,0.0,0.0,0.0,0.0,0.0,0.0,0.0,0.0,0.0,0.0,0.0,0.0,0.0,0.0,0.0,0.0,0.0,0.0,0.0,0.0,0.0,0.0,0.0,0.0,0.0,0.0,0.0,0.0,0.0,0.0,0.0,0.0,0.0,0.0,0.0,0.0,0.0,0.0,0.0,0.0,0.0,0.0,0.0,0.0,0.0,0.0,0.0,0.0,0.0,0.0,0.0,0.0,0.0,0.0,0.0,0.0,0.0,0.0,0.0,0.0,0.0,0.0,0.0,0.0,0.0,0.0,0.0,0.0,0.0,0.0,0.0,0.0,0.0,0.0,0.0,0.0,0.0,0.0,0.0,-3.3123,-3.3222,-3.3417,0.0,0.0,0.0,0.0,0.0,0.0,0.0,0.0,0.0,0.0,0.0,0.0,0.0,0.0,0.0,0.0,0.0,0.0,0.0,0.0,0.0,0.0,0.0,0.0,0.0,0.0,0.0,0.0,0.0,0.0,0.0,0.0,0.0,0.0,0.0,0.0,0.0,0.0,0.0,0.0,0.0,0.0,0.0,0.0,0.0,0.0,0.0,0.0,0.0,0.0,0.0,0.0,0.0,0.0,0.0,0.0,0.0,0.0,0.0,0.0,0.0,0.0,0.0,0.0,0.0,0.0,0.0,0.0,0.0,0.0,0.0,0.0,0.0,0.0,0.0,0.0,0.0,0.0,0.0,0.0,0.0,0.0,0.0,0.0,0.0,0.0,0.0,0.0,0.0,0.0,0.0,0.0,0.0,0.0,0.0,0.0,0.0,0.0,0.0,0.0,0.0,0.0,0.0,0.0,0.0,0.0,0.0,0.0,0.0,0.0,-3.3066,-3.2344,-3.2305,0.0,-3.3379,0.0,0.0,0.0,0.0,0.0,0.0,0.0,0.0,0.0,0.0,0.0,0.0,0.0,0.0,0.0,0.0,0.0,0.0,0.0,0.0,0.0,0.0,0.0,0.0,0.0,0.0,0.0,0.0,0.0,0.0,0.0,0.0,0.0,0.0,0.0,0.0,0.0,0.0,0.0,0.0,0.0,0.0,0.0,0.0,0.0,0.0,0.0,0.0,0.0,0.0,0.0,0.0,0.0,0.0,0.0,0.0,0.0,0.0,0.0,0.0,0.0,0.0,0.0,0.0,0.0,0.0,0.0,0.0,0.0,0.0,0.0,0.0,0.0,0.0,0.0,0.0,0.0,0.0,0.0,0.0,0.0,0.0,0.0,0.0,0.0,0.0,0.0,0.0,0.0,0.0,0.0,0.0,0.0,0.0,0.0,0.0,0.0,0.0,0.0,0.0,0.0,0.0,0.0,0.0,0.0,0.0,0.0,0.0,0.0,0.0,-3.1758,-3.1445,-3.1426,-3.2031,0.0,0.0,0.0,0.0,0.0,0.0,0.0,0.0,0.0,0.0,0.0,0.0,0.0,0.0,0.0,0.0,0.0,0.0,0.0,0.0,0.0,0.0,0.0,0.0,0.0,0.0,0.0,0.0,0.0,0.0,0.0,0.0,0.0,0.0,0.0,0.0,0.0,0.0,0.0,0.0,0.0,0.0,0.0,0.0,0.0,0.0,0.0,0.0,0.0,0.0,0.0,0.0,0.0,0.0,0.0,0.0,0.0,0.0,0.0,0.0,0.0,0.0,0.0,0.0,0.0,0.0,0.0,0.0,0.0,0.0,0.0,0.0,0.0,0.0,0.0,0.0,0.0,0.0,0.0,0.0,0.0,0.0,0.0,0.0,0.0,0.0,0.0,0.0,0.0,0.0,0.0,0.0,0.0,0.0,0.0,0.0,0.0,0.0,0.0,0.0,0.0,0.0,0.0,0.0,0.0,0.0,0.0,0.0,0.0,0.0,-3.1211,-3.0918,-3.0918,-3.0918,-3.1582,-3.3008,0.0,0.0,0.0,0.0,0.0,0.0,0.0,0.0,0.0,0.0,0.0,0.0,0.0,0.0,0.0,0.0,0.0,0.0,0.0,0.0,0.0,0.0,0.0,0.0,0.0,0.0,0.0,0.0,0.0,0.0,0.0,0.0,0.0,0.0,0.0,0.0,0.0,0.0,0.0,0.0,0.0,0.0,0.0,0.0,0.0,0.0,0.0,0.0,0.0,0.0,0.0,0.0,0.0,0.0,0.0,0.0,0.0,0.0,0.0,0.0,0.0,0.0,0.0,0.0,0.0,0.0,0.0,0.0,0.0,0.0,0.0,0.0,0.0,0.0,0.0,0.0,0.0,0.0,0.0,0.0,0.0,0.0,0.0,0.0,0.0,0.0,0.0,0.0,0.0,0.0,0.0,0.0,0.0,0.0,0.0,0.0,0.0,0.0,0.0,0.0,0.0,0.0,0.0,0.0,0.0,0.0,0.0,0.0,-3.0976,-3.0937,-3.0918,-3.0918,-3.0918,-3.1348,0.0,0.0,0.0,0.0,0.0,0.0,0.0,0.0,0.0,0.0,0.0,0.0,0.0,0.0,0.0,0.0,0.0,0.0,0.0,0.0,0.0,0.0,0.0,0.0,0.0,0.0,0.0,0.0,0.0,0.0,0.0,0.0,0.0,0.0,0.0,0.0,0.0,0.0,0.0,0.0,0.0,0.0,0.0,0.0,0.0,0.0,0.0,0.0,0.0,0.0,0.0,0.0,0.0,0.0,0.0,0.0,0.0,0.0,0.0,0.0,0.0,0.0,0.0,0.0,0.0,0.0,0.0,0.0,0.0,0.0,0.0,0.0,0.0,0.0,0.0,0.0,0.0,0.0,0.0,0.0,0.0,0.0,0.0,0.0,0.0,0.0,0.0,0.0,0.0,0.0,0.0,0.0,0.0,0.0,0.0,0.0,0.0,0.0,0.0,0.0,0.0,0.0,0.0,0.0,0.0,0.0,0.0,0.0,0.0,-3.0918,-3.0918,-3.0918,-3.0918,-3.0918,-3.1309,0.0,0.0,0.0,0.0,0.0,0.0,0.0,0.0,0.0,0.0,0.0,0.0,0.0,0.0,0.0,0.0,0.0,0.0,0.0,0.0,0.0,0.0,0.0,0.0,0.0,0.0,0.0,0.0,0.0,0.0,0.0,0.0,0.0,0.0,0.0,0.0,0.0,0.0,0.0,0.0,0.0,0.0,0.0,0.0,0.0,0.0,0.0,0.0,0.0,0.0,0.0,0.0,0.0,0.0,0.0,0.0,0.0,0.0,0.0,0.0,0.0,0.0,0.0,0.0,0.0,0.0,0.0,0.0,0.0,0.0,0.0,0.0,0.0,0.0,0.0,0.0,0.0,0.0,0.0,0.0,0.0,0.0,0.0,0.0,0.0,0.0,0.0,0.0,0.0,0.0,0.0,0.0,0.0,0.0,0.0,0.0,0.0,0.0,0.0,0.0,0.0,0.0,0.0,0.0,0.0,0.0,0.0,0.0,0.0,-3.0918,0.0,-3.0918,-3.0918,-3.0918,-3.1172,0.0,0.0,0.0,0.0,0.0,0.0,0.0,0.0,0.0,0.0,0.0,0.0,0.0,0.0,0.0,0.0,0.0,0.0,0.0,0.0,0.0,0.0,0.0,0.0,0.0,0.0,0.0,0.0,0.0,0.0,0.0,0.0,0.0,0.0,0.0,0.0,0.0,0.0,0.0,0.0,0.0,0.0,0.0,0.0,0.0,0.0,0.0,0.0,0.0,0.0,0.0,0.0,0.0,0.0,0.0,0.0,0.0,0.0,0.0,0.0,0.0,0.0,0.0,0.0,0.0,0.0,0.0,0.0,0.0,0.0,0.0,0.0,0.0,0.0,0.0,0.0,0.0,0.0,0.0,0.0,0.0,0.0,0.0,0.0,0.0,0.0,0.0,0.0,0.0,0.0,0.0,0.0,0.0,0.0,0.0,0.0,0.0,0.0,0.0,0.0,0.0,0.0,0.0,0.0,0.0,0.0,0.0,0.0,-3.0937,-3.0918,-3.0937,-3.0996,-3.0957,-3.0976,-3.0957,0.0,0.0,0.0,0.0,0.0,0.0,0.0,0.0,0.0,0.0,0.0,0.0,0.0,0.0,0.0,0.0,0.0,0.0,0.0,0.0,0.0,0.0,0.0,0.0,0.0,0.0,0.0,0.0,0.0,0.0,0.0,0.0,0.0,0.0,0.0,0.0,0.0,0.0,0.0,0.0,0.0,0.0,0.0,0.0,0.0,0.0,0.0,0.0,0.0,0.0,0.0,0.0,0.0,0.0,0.0,0.0,0.0,0.0,0.0,0.0,0.0,0.0,0.0,0.0,0.0,0.0,0.0,0.0,0.0,0.0,0.0,0.0,0.0,0.0,0.0,0.0,0.0,0.0,0.0,0.0,0.0,0.0,0.0,0.0,0.0,0.0,0.0,0.0,0.0,0.0,0.0,0.0,0.0,0.0,0.0,0.0,0.0,0.0,0.0,0.0,0.0,0.0,0.0,0.0,0.0,0.0,0.0,0.0,0.0,-3.1797,-3.1797,-3.207,-3.2578,-3.207,-3.1797,0.0,0.0,0.0,0.0,0.0,0.0,0.0,0.0,0.0,0.0,0.0,0.0,0.0,0.0,0.0,0.0,0.0,0.0,0.0,0.0,0.0,0.0,0.0,0.0,0.0,0.0,0.0,0.0,0.0,0.0,0.0,0.0,0.0,0.0,0.0,0.0,0.0,0.0,0.0,0.0,0.0,0.0,0.0,0.0,0.0,0.0,0.0,0.0,0.0,0.0,0.0,0.0,0.0,0.0,0.0,0.0,0.0,0.0,0.0,0.0,0.0,0.0,0.0,0.0,0.0,0.0,0.0,0.0,0.0,0.0,0.0,0.0,0.0,0.0,0.0,0.0,0.0,0.0,0.0,0.0,0.0,0.0,0.0,0.0,0.0,0.0,0.0,0.0,0.0,0.0,0.0,0.0,0.0,0.0,0.0,0.0,0.0,0.0,0.0,0.0,0.0,0.0,0.0,0.0,0.0,0.0,0.0,0.0,0.0,-3.3555,-3.2988,-3.2891,-3.3379,-3.291,-3.25,-3.2226,0.0,0.0,0.0,0.0,0.0,0.0,0.0,0.0,0.0,0.0,0.0,0.0,0.0,0.0,0.0,0.0,0.0,0.0,0.0,0.0,0.0,0.0,0.0,0.0,0.0,0.0,0.0,0.0,0.0,0.0,0.0,0.0,0.0,0.0,0.0,0.0,0.0,0.0,0.0,0.0,0.0,0.0,0.0,0.0,0.0,0.0,0.0,0.0,0.0,0.0,0.0,0.0,0.0,0.0,0.0,0.0,0.0,0.0,0.0,0.0,0.0,0.0,0.0,0.0,0.0,0.0,0.0,0.0,0.0,0.0,0.0,0.0,0.0,0.0,0.0,0.0,0.0,0.0,0.0,0.0,0.0,0.0,0.0,0.0,0.0,0.0,0.0,0.0,0.0,0.0,0.0,0.0,0.0,0.0,0.0,0.0,0.0,0.0,0.0,0.0,0.0,0.0,0.0,0.0,0.0,0.0,0.0,0.0,-3.5976,-3.4492,-3.3691,-3.3672,-3.3594,-3.3144,0.0,0.0,0.0,0.0,0.0,0.0,0.0,0.0,0.0,0.0,0.0,0.0,0.0,0.0,0.0,0.0,0.0,0.0,0.0,0.0,0.0,0.0,0.0,0.0,0.0,0.0,0.0,0.0,0.0,0.0,0.0,0.0,0.0,0.0,0.0,0.0,0.0,0.0,0.0,0.0,0.0,0.0,0.0,0.0,0.0,0.0,0.0,0.0,0.0,0.0,0.0,0.0,0.0,0.0,0.0,0.0,0.0,0.0,0.0,0.0,0.0,0.0,0.0,0.0,0.0,0.0,0.0,0.0,0.0,0.0,0.0,0.0,0.0,0.0,0.0,0.0,0.0,0.0,0.0,0.0,0.0,0.0,0.0,0.0,0.0,0.0,0.0,0.0,0.0,0.0,0.0,0.0,0.0,0.0,0.0,0.0,0.0,0.0,0.0,0.0,0.0,0.0,0.0,0.0,0.0,0.0,0.0,0.0,0.0,-3.5957,-3.6816,-3.6934,-3.6289,-3.5644,-3.4609,0.0,0.0,0.0,0.0,0.0,0.0,0.0,0.0,0.0,0.0,0.0,0.0,0.0,0.0,0.0,0.0,0.0,0.0,0.0,0.0,0.0,0.0,0.0,0.0,0.0,0.0,0.0,0.0,0.0,0.0,0.0,0.0,0.0,0.0,0.0,0.0,0.0,0.0,0.0,0.0,0.0,0.0,0.0,0.0,0.0,0.0,0.0,0.0,0.0,0.0,0.0,0.0,0.0,0.0,0.0,0.0,0.0,0.0,0.0,0.0,0.0,0.0,0.0,0.0,0.0,0.0,0.0,0.0,0.0,0.0,0.0,0.0,0.0,0.0,0.0,0.0,0.0,0.0,0.0,0.0,0.0,0.0,0.0,0.0,0.0,0.0,0.0,0.0,0.0,0.0,0.0,0.0,0.0,0.0,0.0,0.0,0.0,0.0,0.0,0.0,0.0,0.0,0.0,0.0,0.0,0.0,0.0,0.0,-3.584,-3.707,-3.8437,-3.8926,-3.8418,-3.7187,-3.5898,0.0,0.0,0.0,0.0,0.0,0.0,0.0,0.0,0.0,0.0,0.0,0.0,0.0,0.0,0.0,0.0,0.0,0.0,0.0,0.0,0.0,0.0,0.0,0.0,0.0,0.0,0.0,0.0,0.0,0.0,0.0,0.0,0.0,0.0,0.0,0.0,0.0,0.0,0.0,0.0,0.0,0.0,0.0,0.0,0.0,0.0,0.0,0.0,0.0,0.0,0.0,0.0,0.0,0.0,0.0,0.0,0.0,0.0,0.0,0.0,0.0,0.0,0.0,0.0,0.0,0.0,0.0,0.0,0.0,0.0,0.0,0.0,0.0,0.0,0.0,0.0,0.0,0.0,0.0,0.0,0.0,0.0,0.0,0.0,0.0,0.0,0.0,0.0,0.0,0.0,0.0,0.0,0.0,0.0,0.0,0.0,0.0,0.0,0.0,0.0,0.0,0.0,0.0,0.0,0.0,0.0,0.0,0.0,-3.6934,-3.8555,-3.9551,-4.0019,-3.998,-3.834,-3.6973,0.0,0.0,0.0,0.0,0.0,0.0,0.0,0.0,0.0,0.0,0.0,0.0,0.0,0.0,0.0,0.0,0.0,0.0,0.0,0.0,0.0,0.0,0.0,0.0,0.0,0.0,0.0,0.0,0.0,0.0,0.0,0.0,0.0,0.0,0.0,0.0,0.0,0.0,0.0,0.0,0.0,0.0,0.0,0.0,0.0,0.0,0.0,0.0,0.0,0.0,0.0,0.0,0.0,0.0,0.0,0.0,0.0,0.0,0.0,0.0,0.0,0.0,0.0,0.0,0.0,0.0,0.0,0.0,0.0,0.0,0.0,0.0,0.0,0.0,0.0,0.0,0.0,0.0,0.0,0.0,0.0,0.0,0.0,0.0,0.0,0.0,0.0,0.0,0.0,0.0,0.0,0.0,0.0,0.0,0.0,0.0,0.0,0.0,0.0,0.0,0.0,0.0,0.0,0.0,0.0,0.0,0.0,0.0,-3.7539,-3.8594,-4.0117,-4.0918,-4.0918,-3.9238,-3.7598,0.0,0.0,0.0,0.0,0.0,0.0,0.0,0.0,0.0,0.0,0.0,0.0,0.0,0.0,0.0,0.0,0.0,0.0,0.0,0.0,0.0,0.0,0.0,0.0,0.0,0.0,0.0,0.0,0.0,0.0,0.0,0.0,0.0,0.0,0.0,0.0,0.0,0.0,0.0,0.0,0.0,0.0,0.0,0.0,0.0,0.0,0.0,0.0,-3.6642,0.0,0.0,0.0,0.0,0.0,0.0,0.0,0.0,0.0,0.0,0.0,0.0,0.0,0.0,0.0,0.0,0.0,0.0,0.0,0.0,0.0,0.0,0.0,0.0,0.0,0.0,0.0,0.0,0.0,0.0,0.0,0.0,0.0,0.0,0.0,0.0,0.0,0.0,0.0,0.0,0.0,0.0,0.0,0.0,0.0,0.0,0.0,0.0,0.0,0.0,0.0,0.0,0.0,0.0,0.0,0.0,0.0,0.0,0.0,-3.834,-3.9219,-4.0508,-4.1191,-4.1152,-3.9902,-3.8594,0.0,0.0,0.0,0.0,0.0,0.0,0.0,0.0,0.0,0.0,0.0,0.0,0.0,0.0,0.0,0.0,0.0,0.0,0.0,0.0,0.0,0.0,0.0,0.0,0.0,0.0,0.0,0.0,0.0,0.0,0.0,0.0,0.0,0.0,0.0,0.0,0.0,0.0,0.0,0.0,0.0,0.0,0.0,0.0,0.0,0.0,0.0,0.0,0.0,0.0,0.0,0.0,0.0,0.0,0.0,0.0,0.0,0.0,0.0,0.0,0.0,0.0,0.0,0.0,0.0,0.0,0.0,0.0,0.0,0.0,0.0,0.0,0.0,0.0,0.0,0.0,0.0,0.0,0.0,0.0,0.0,0.0,0.0,0.0,0.0,0.0,0.0,0.0,0.0,0.0,0.0,0.0,0.0,0.0,0.0,0.0,0.0,0.0,0.0,0.0,0.0,0.0,0.0,0.0,0.0,0.0,0.0,-3.7715,-3.9043,-3.9902,-4.0742,-4.1191,-4.1191,-4.0234,-3.9355,-3.8594,0.0,0.0,0.0,0.0,0.0,0.0,0.0,0.0,0.0,0.0,0.0,0.0,0.0,0.0,0.0,0.0,0.0,0.0,0.0,0.0,0.0,0.0,0.0,0.0,0.0,0.0,0.0,0.0,0.0,0.0,0.0,0.0,0.0,0.0,0.0,0.0,0.0,0.0,-3.3184,-3.5018,0.0,0.0,0.0,0.0,0.0,0.0,0.0,0.0,-3.7763,0.0,0.0,0.0,0.0,0.0,0.0,0.0,0.0,0.0,0.0,0.0,0.0,0.0,0.0,0.0,0.0,0.0,0.0,0.0,0.0,0.0,0.0,0.0,0.0,0.0,0.0,0.0,0.0,0.0,0.0,0.0,0.0,0.0,0.0,0.0,0.0,0.0,0.0,0.0,0.0,0.0,0.0,0.0,0.0,0.0,0.0,0.0,0.0,0.0,0.0,0.0,0.0,0.0,0.0,0.0,0.0,-3.5996,-3.7715,-3.9023,-3.9883,-4.0762,-4.1191,-4.1152,-3.9648,-3.875,-3.8535,0.0,0.0,0.0,0.0,0.0,0.0,0.0,0.0,0.0,0.0,0.0,0.0,0.0,0.0,0.0,0.0,0.0,0.0,0.0,0.0,0.0,0.0,0.0,0.0,0.0,0.0,0.0,0.0,0.0,0.0,0.0,0.0,0.0,0.0,0.0,0.0,0.0,0.0,0.0,-3.5525,-3.6827,0.0,0.0,0.0,0.0,0.0,0.0,0.0,0.0,-3.9554,0.0,0.0,0.0,0.0,0.0,0.0,0.0,0.0,0.0,0.0,0.0,0.0,0.0,0.0,0.0,0.0,0.0,0.0,0.0,0.0,0.0,0.0,0.0,0.0,0.0,0.0,0.0,0.0,0.0,0.0,0.0,0.0,0.0,0.0,0.0,0.0,0.0,0.0,0.0,0.0,0.0,0.0,0.0,0.0,0.0,0.0,0.0,0.0,0.0,0.0,0.0,0.0,0.0,0.0,0.0,-3.7363,-3.8633,-3.9687,-4.0547,-4.0996,-4.1191,-4.1172,-3.9941,-3.9082,0.0,0.0,0.0,0.0,0.0,0.0,0.0,0.0,0.0,0.0,0.0,0.0,0.0,0.0,0.0,0.0,0.0,0.0,0.0,0.0,0.0,0.0,0.0,0.0,0.0,0.0,0.0,0.0,0.0,0.0,0.0,0.0,0.0,0.0,0.0,0.0,0.0,0.0,0.0,0.0,-3.566,-3.7135,-3.6671,0.0,0.0,0.0,0.0,0.0,0.0,-3.9415,-3.9912,0.0,0.0,0.0,0.0,0.0,0.0,0.0,0.0,0.0,0.0,0.0,0.0,0.0,0.0,0.0,0.0,0.0,0.0,0.0,0.0,0.0,0.0,0.0,0.0,0.0,0.0,0.0,0.0,0.0,0.0,0.0,0.0,0.0,0.0,0.0,0.0,0.0,0.0,0.0,0.0,0.0,0.0,0.0,0.0,0.0,0.0,0.0,0.0,0.0,0.0,0.0,0.0,0.0,0.0,0.0,-3.8594,-3.9473,-4.0312,-4.1152,-4.1191,-4.1191,-4.1172,-4.0195,-3.9316,0.0,0.0,0.0,0.0,0.0,0.0,0.0,0.0,0.0,0.0,0.0,0.0,0.0,0.0,0.0,0.0,0.0,0.0,0.0,0.0,0.0,0.0,0.0,0.0,0.0,0.0,0.0,0.0,0.0,0.0,0.0,0.0,0.0,0.0,0.0,0.0,0.0,0.0,0.0,0.0,0.0,-3.7264,-3.7207,-3.7283,0.0,0.0,0.0,0.0,-3.8019,-3.9415,0.0,0.0,0.0,0.0,0.0,0.0,0.0,0.0,0.0,0.0,0.0,0.0,0.0,0.0,0.0,0.0,0.0,0.0,0.0,0.0,0.0,0.0,0.0,0.0,0.0,0.0,0.0,0.0,0.0,0.0,0.0,0.0,0.0,0.0,0.0,0.0,0.0,0.0,0.0,0.0,0.0,0.0,0.0,0.0,0.0,0.0,0.0,0.0,0.0,0.0,0.0,0.0,0.0,0.0,0.0,0.0,-3.8594,-3.9453,-4.0332,-4.1152,-4.1191,-4.1191,-4.1172,-3.9609,-3.8711,0.0,0.0,0.0,0.0,0.0,0.0,0.0,0.0,0.0,0.0,0.0,0.0,0.0,0.0,0.0,0.0,0.0,0.0,0.0,0.0,0.0,0.0,0.0,0.0,0.0,0.0,0.0,0.0,0.0,0.0,0.0,0.0,0.0,0.0,0.0,0.0,0.0,0.0,0.0,0.0,0.0,-3.7277,-3.7197,-3.7815,-3.7934,0.0,0.0,-3.8086,-3.801,-3.94,0.0,0.0,0.0,0.0,0.0,0.0,0.0,0.0,0.0,0.0,0.0,0.0,0.0,0.0,0.0,0.0,0.0,0.0,0.0,0.0,0.0,0.0,0.0,0.0,0.0,0.0,0.0,0.0,0.0,0.0,0.0,0.0,0.0,0.0,0.0,0.0,0.0,0.0,0.0,0.0,0.0,0.0,0.0,0.0,0.0,0.0,0.0,0.0,0.0,0.0,0.0,0.0,0.0,0.0,0.0,-3.8223,-3.8633,-3.9941,-4.0801,-4.1172,-4.1191,-4.1191,-4.1191,-3.998,-3.9101,0.0,0.0,0.0,0.0,0.0,0.0,0.0,0.0,0.0,0.0,0.0,0.0,0.0,0.0,0.0,0.0,0.0,0.0,0.0,0.0,0.0,0.0,0.0,0.0,0.0,0.0,0.0,0.0,0.0,0.0,0.0,0.0,0.0,0.0,0.0,0.0,0.0,0.0,0.0,0.0,0.0,0.0,-3.7823,-3.8579,0.0,0.0,0.0,-3.8753,-3.8753,0.0,0.0,0.0,0.0,0.0,0.0,0.0,0.0,0.0,0.0,0.0,0.0,0.0,0.0,0.0,0.0,0.0,0.0,0.0,0.0,0.0,0.0,0.0,0.0,0.0,0.0,0.0,0.0,0.0,0.0,0.0,0.0,0.0,0.0,0.0,0.0,0.0,0.0,0.0,0.0,0.0,0.0,0.0,0.0,0.0,0.0,0.0,0.0,0.0,0.0,0.0,0.0,0.0,0.0,0.0,0.0,0.0,-3.8633,-4.0332,-4.1191,-4.1191,-4.1191,-4.1191,-4.1191,-4.0351,0.0,0.0,0.0,0.0,0.0,0.0,0.0,0.0,0.0,0.0,0.0,0.0,0.0,0.0,0.0,0.0,0.0,0.0,0.0,0.0,0.0,0.0,0.0,0.0,0.0,0.0,0.0,-3.5762,0.0,0.0,0.0,0.0,0.0,0.0,0.0,0.0,0.0,0.0,0.0,0.0,0.0,0.0,-3.7464,-3.8286,-3.9067,-3.9561,0.0,0.0,-3.9302,-3.9304,-3.9823,-3.9677,0.0,0.0,0.0,0.0,0.0,0.0,0.0,0.0,0.0,0.0,0.0,0.0,0.0,0.0,0.0,0.0,0.0,0.0,0.0,0.0,0.0,0.0,0.0,0.0,0.0,0.0,0.0,0.0,0.0,0.0,0.0,0.0,0.0,0.0,0.0,0.0,0.0,0.0,0.0,0.0,0.0,0.0,0.0,0.0,0.0,0.0,0.0,0.0,0.0,0.0,0.0,0.0,0.0,0.0,0.0,-3.8652,-4.0312,-4.1191,-4.1191,-4.1191,-4.1191,-4.1191,-4.0371,-3.9512,0.0,0.0,0.0,0.0,0.0,0.0,0.0,0.0,0.0,0.0,0.0,0.0,0.0,0.0,0.0,0.0,0.0,0.0,0.0,0.0,0.0,0.0,0.0,0.0,0.0,0.0,0.0,0.0,0.0,0.0,0.0,0.0,0.0,0.0,0.0,0.0,0.0,0.0,0.0,0.0,0.0,-3.7407,-3.828,-3.9034,-3.9486,0.0,0.0,-3.9302,-3.9304,-3.9342,-3.9042,-3.8062,0.0,0.0,0.0,0.0,0.0,0.0,0.0,0.0,0.0,0.0,0.0,0.0,0.0,0.0,0.0,0.0,0.0,0.0,0.0,0.0,0.0,0.0,0.0,0.0,0.0,0.0,0.0,0.0,0.0,0.0,0.0,0.0,0.0,0.0,0.0,0.0,0.0,0.0,0.0,0.0,0.0,0.0,0.0,0.0,0.0,0.0,0.0,0.0,0.0,0.0,0.0,0.0,0.0,-3.8613,-3.8633,-4.0312,-4.1191,-4.1191,-4.1191,-4.1191,-4.1191,-4.0879,-4.0293,0.0,0.0,0.0,0.0,0.0,0.0,0.0,0.0,0.0,0.0,0.0,0.0,0.0,0.0,0.0,0.0,0.0,0.0,0.0,0.0,0.0,0.0,0.0,0.0,0.0,0.0,0.0,0.0,-3.6016,-3.5801,-3.5254,0.0,0.0,0.0,0.0,0.0,0.0,0.0,0.0,0.0,0.0,-3.7536,-3.8889,-3.9712,0.0,0.0,-3.9682,-3.9319,-3.9304,-3.8861,-3.8204,-3.7306,-3.5396,0.0,0.0,0.0,0.0,0.0,0.0,0.0,0.0,0.0,0.0,0.0,0.0,0.0,0.0,0.0,0.0,0.0,0.0,0.0,0.0,0.0,0.0,0.0,0.0,0.0,0.0,0.0,0.0,0.0,0.0,0.0,0.0,0.0,0.0,0.0,0.0,0.0,0.0,0.0,0.0,0.0,0.0,0.0,0.0,0.0,0.0,0.0,0.0,0.0,0.0,0.0,0.0,-3.8613,-3.8613,-4.0312,-4.1191,-4.1191,-4.1191,-4.1191,-4.1191,-4.1191,-4.0801,0.0,0.0,0.0,0.0,0.0,0.0,0.0,0.0,0.0,0.0,0.0,0.0,0.0,0.0,0.0,0.0,0.0,0.0,0.0,0.0,0.0,0.0,0.0,0.0,0.0,0.0,0.0,0.0,-3.5371,-3.4883,-3.4043,0.0,0.0,0.0,0.0,0.0,0.0,0.0,0.0,0.0,0.0,-3.74,-3.8562,-3.9367,-3.9853,-3.9844,-3.9326,-3.8911,-3.8919,-3.818,-3.7397,-3.6783,0.0,0.0,0.0,0.0,0.0,0.0,0.0,0.0,0.0,0.0,0.0,0.0,0.0,0.0,0.0,0.0,0.0,0.0,0.0,0.0,0.0,0.0,0.0,0.0,0.0,0.0,0.0,0.0,0.0,0.0,0.0,0.0,0.0,0.0,0.0,0.0,0.0,0.0,0.0,0.0,0.0,0.0,0.0,0.0,0.0,0.0,0.0,0.0,0.0,0.0,0.0,0.0,0.0,-3.8613,-3.8633,-4.0332,-4.1191,-4.1191,-4.1191,-4.1191,-4.1191,-4.1191,-4.0781,-3.9922,0.0,0.0,0.0,0.0,0.0,0.0,0.0,0.0,0.0,0.0,0.0,0.0,0.0,0.0,0.0,0.0,0.0,0.0,0.0,0.0,0.0,0.0,0.0,0.0,0.0,0.0,-3.4687,-3.3984,-3.3144,0.0,0.0,0.0,0.0,0.0,0.0,0.0,0.0,0.0,0.0,-3.5997,-3.6993,-3.703,-3.7656,-3.8232,-3.8213,-3.8113,-3.8027,-3.8027,-3.7288,-3.6704,0.0,0.0,0.0,0.0,0.0,0.0,0.0,0.0,0.0,0.0,0.0,0.0,0.0,0.0,0.0,0.0,0.0,0.0,0.0,0.0,0.0,0.0,0.0,0.0,0.0,0.0,0.0,0.0,-3.6866,0.0,0.0,0.0,0.0,0.0,0.0,0.0,0.0,0.0,0.0,0.0,-3.8252,-3.7962,0.0,0.0,0.0,0.0,0.0,0.0,0.0,0.0,0.0,0.0,0.0,0.0,-3.8613,-3.8691,-4.0332,-4.1191,-4.1191,-4.1171,-4.1132,-4.1132,-4.1129,-4.0734,-3.9853,0.0,0.0,0.0,0.0,0.0,0.0,0.0,0.0,0.0,0.0,0.0,0.0,0.0,0.0,0.0,0.0,0.0,0.0,0.0,0.0,0.0,0.0,0.0,0.0,0.0,-3.4375,0.0,0.0,0.0,0.0,0.0,0.0,0.0,0.0,0.0,0.0,0.0,-3.3886,-3.522,-3.633,-3.717,-3.7629,-3.7873,-3.8029,0.0,0.0,0.0,0.0,0.0,0.0,0.0,0.0,0.0,0.0,0.0,0.0,0.0,0.0,-3.2074,-3.0893,-3.0689,-3.0596,-3.0238,0.0,0.0,0.0,0.0,0.0,0.0,0.0,0.0,0.0,0.0,0.0,0.0,0.0,0.0,0.0,0.0,-3.6396,0.0,0.0,0.0,0.0,0.0,0.0,0.0,0.0,-3.8344,-3.8749,-3.9007,-3.8735,-3.8649,0.0,-3.8417,-3.7728,0.0,0.0,0.0,0.0,0.0,0.0,0.0,0.0,-3.8726,-3.9079,-4.0427,-4.1169,-4.1169,-4.1127,-4.1105,-4.1103,-4.1074,-4.0652,-3.98,-3.8916,-3.8049,0.0,0.0,0.0,0.0,0.0,0.0,0.0,0.0,0.0,0.0,0.0,0.0,0.0,0.0,0.0,0.0,0.0,0.0,0.0,0.0,0.0,0.0,0.0,-3.4258,0.0,0.0,0.0,0.0,0.0,0.0,0.0,0.0,0.0,-3.243,-3.2769,-3.3542,-3.5172,-3.5557,-3.5931,-3.6664,0.0,0.0,0.0,0.0,0.0,0.0,0.0,-3.5467,-3.5412,-3.4867,-3.4467,-3.4425,-3.3634,-3.3074,-3.3247,0.0,0.0,-3.2196,-3.2093,-3.2132,-3.1766,-3.1795,-3.1781,-3.1589,-3.1769,-3.206,0.0,0.0,0.0,0.0,0.0,0.0,0.0,0.0,-3.7064,-3.7136,0.0,-3.6563,0.0,0.0,0.0,0.0,0.0,0.0,0.0,0.0,-3.9397,-3.9848,-4.0491,-3.979,-3.9476,-3.9482,-3.8696,-3.8344,-3.8389,-3.8435,0.0,0.0,0.0,0.0,0.0,0.0,-3.8959,-3.9759,-4.0659,-4.1108,-4.1109,-4.1108,-4.1083,-4.1031,-4.0981,-4.0532,-3.9672,-3.8811,-3.7959,-3.7127,-3.6323,0.0,0.0,0.0,0.0,0.0,0.0,0.0,0.0,0.0,0.0,0.0,0.0,0.0,0.0,0.0,0.0,0.0,0.0,0.0,0.0,-3.3906,0.0,0.0,0.0,0.0,0.0,0.0,0.0,0.0,0.0,0.0,-3.3154,-3.2635,-3.2728,-3.4394,0.0,0.0,0.0,0.0,-3.4552,-3.543,-3.55,-3.55,-3.55,-3.55,-3.5467,-3.5412,0.0,0.0,-3.5689,-3.5448,-3.5404,-3.6191,-3.6029,-3.5457,-3.3755,-3.4309,-3.4905,-3.4639,-3.4194,-3.3965,-3.3761,-3.3518,-3.3465,-4.0352,0.0,0.0,0.0,0.0,-3.7162,-3.7479,-3.767,-3.826,-3.8232,-3.7804,-3.7789,0.0,0.0,0.0,0.0,0.0,0.0,-3.8852,-3.9353,-3.993,-4.0296,-4.0527,-4.0315,-4.0217,-4.0268,-4.0036,-3.996,-4.0086,-4.0048,-3.933,-3.8004,0.0,0.0,0.0,0.0,-3.9472,-3.9763,-4.0586,-4.104,-4.1027,-4.103,-4.0707,-4.003,-4.0003,-3.9591,-3.8736,-3.7801,-3.722,-3.6954,-3.6196,0.0,0.0,0.0,0.0,0.0,0.0,0.0,0.0,0.0,0.0,0.0,0.0,0.0,0.0,0.0,0.0,0.0,0.0,0.0,-3.4647,-3.3926,-3.3164,0.0,0.0,0.0,0.0,0.0,0.0,0.0,0.0,0.0,-3.3161,-3.2647,-3.2721,0.0,0.0,-3.4171,-3.4293,-3.4769,-3.522,-3.5468,0.0,0.0,0.0,-3.55,-3.546,-3.5357,-3.5113,-3.4907,-3.4817,-3.4599,-3.4696,-3.5436,-3.5834,-3.6024,-3.6038,-3.5524,-3.5118,-3.4779,-3.4785,-3.4791,-3.4599,-3.4742,-3.4918,-4.2048,-4.0695,-3.8836,-3.7904,-3.7671,-3.8145,-3.8331,-3.8275,-3.8799,-3.8813,-3.8439,-3.8352,-3.8199,-3.8004,-3.7925,0.0,0.0,0.0,-3.9477,-3.9804,-4.0285,-4.0496,-4.0496,-4.0496,-4.0527,-4.0586,-4.0586,-4.066,-4.0713,-4.0694,-4.0172,-3.9215,0.0,0.0,-3.8857,-3.9356,-3.9805,-4.012,-4.0303,-4.0408,-4.0399,-4.0077,-3.9632,-3.9068,-3.9054,-3.8641,-3.7785,-3.7202,-3.674,-3.64,-3.5919,-3.5035,0.0,0.0,0.0,0.0,0.0,0.0,0.0,0.0,0.0,0.0,0.0,-3.1497,-3.2012,0.0,0.0,0.0,-3.4704,-3.5214,-3.523,-3.414,0.0,0.0,0.0,0.0,0.0,0.0,0.0,-3.1894,-3.1894,-3.2402,-3.371,-3.3141,-3.3127,-3.4464,-3.4289,-3.4093,-3.4307,0.0,-3.5149,-3.5457,-3.5494,-3.55,-3.55,-3.55,-3.5439,-3.5262,-3.4973,-3.4821,-3.4846,-3.4686,-3.4824,-3.5464,-3.5893,-3.62,-3.6576,-3.5861,-3.5384,-3.5591,-3.5623,-3.5587,-3.5373,-3.5489,-3.5594,-4.3698,-4.3515,-4.1422,-3.9991,-3.9099,-3.9065,-3.9036,-3.8976,-3.8995,-3.9032,-3.9044,-3.8518,-3.8435,-3.869,-3.8282,0.0,0.0,-3.9369,-3.9796,-4.0496,-4.0496,-4.0496,-4.0496,-4.0496,-4.0531,-4.0588,-4.0588,-4.0591,-4.0595,-4.0588,-4.0568,-4.0472,-3.9824,-3.948,-3.9491,-3.9417,-3.9782,-4.0544,-3.9793,-3.9386,-3.9386,-3.8614,-3.8172,-3.8089,-3.81,-3.7678,-3.685,-3.6786,-3.6413,-3.563,-3.5577,-3.5201,-3.4348,0.0,0.0,0.0,0.0,0.0,0.0,0.0,0.0,0.0,0.0,0.0,0.0,0.0,0.0,0.0,-3.5478,0.0,-3.5906,-3.4449,0.0,0.0,0.0,-3.2285,-3.2285,-3.2949,-3.3379,-3.3379,0.0,0.0,0.0,0.0,-3.3842,-3.4793,-3.404,-3.3679,-3.4419,-3.4573,-3.4817,-3.5695,-3.5746,-3.5718,-3.5846,-3.5724,-3.5499,-3.5149,-3.486,-3.4857,-3.5192,-3.5217,-3.544,-3.5983,-3.608,-3.6014,-3.5924,-3.5606,-3.5632,-3.6602,-3.6377,-3.5996,-3.5698,-3.5455,-3.5261,-4.5314,-4.5278,-4.4726,-4.2998,-4.0591,-4.0591,-4.0575,-4.0501,-3.9911,-3.974,-3.9878,-3.9244,-3.922,-3.9663,-3.9662,-3.9836,-4.0134,-4.0175,-4.0311,-4.0496,-4.0496,-4.0496,-4.0496,-4.0496,-4.0531,-4.0588,-4.0588,-4.0591,-4.0588,-4.0598,-4.0256,-3.9613,-3.9427,-3.9378,-3.9412,-3.8762,-3.8555,-3.8798,-3.8605,-3.8508,-3.8508,-3.8309,-3.786,-3.7147,-3.7135,-3.6723,-3.5887,-3.5855,-3.5733,-3.5553,-3.5528,-3.5123,-3.4256,-3.3523,0.0,0.0,0.0,0.0,0.0,0.0,0.0,0.0,0.0,-3.2189,-3.2788,0.0,-3.4482,0.0,-3.5726,-3.568,-3.5065,-3.4625,0.0,0.0,-3.3223,-3.3105,-3.3105,-3.3281,-3.3379,-3.3379,-3.3379,-3.373,-3.459,-3.4511,-3.4958,-3.6416,-3.5289,-3.4555,-3.5284,-3.5955,-3.6621,-3.7269,-3.7409,-3.7466,-3.7315,-3.6734,-3.5982,-3.5147,-3.485,-3.4658,-3.453,-3.4395,-3.4518,-3.5142,-3.5284,-3.5403,-3.5791,-3.5636,-3.5378,-3.5348,-3.4913,-3.4499,-3.4292,-3.4096,-3.3926,-4.6397,-4.6416,-4.6067,-4.4856,-4.3204,-4.247,-4.1756,-4.1058,-4.0634,-4.0509,-4.0606,-4.0039,-3.9989,-4.0291,-4.019,-4.0177,-4.0308,-4.0379,-4.0438,-4.0503,-4.0503,-4.0492,-4.0496,-4.0496,-4.0523,-4.0565,-4.0565,-4.0554,-4.0557,-4.0554,-4.0296,-3.9834,-3.9099,-3.8722,-3.8746,-3.8283,-3.8066,-3.8086,-3.7726,-3.736,-3.7013,-3.7013,-3.6762,-3.6234,-3.6234,-3.6008,-3.55,-3.55,-3.55,-3.55,-3.5489,-3.5284,-3.4777,-3.3671,-3.2833,0.0,0.0,0.0,0.0,0.0,0.0,0.0,0.0,0.0,0.0,0.0,-3.5154,0.0,-3.5813,0.0,-3.5284,-3.4932,-3.449,-3.4023,-3.3965,-3.3965,-3.3984,-3.4316,-3.4551,-3.4551,-3.4551,-3.4883,-3.5723,-3.5859,-3.6347,-3.7693,-3.7013,-3.6499,-3.6837,-3.7326,-3.7721,-3.8048,-3.8092,-3.8077,-3.8015,-3.7486,-3.6744,-3.5796,-3.538,-3.5015,-3.4332,-3.4099,-3.4113,-3.4403,-3.4454,-3.4527,-3.4798,-3.4617,-3.43,-3.388,-3.3382,-3.3244,-3.3607,-3.3535,-3.3389,-4.7164,-4.7167,-4.6489,-4.6122,-4.5957,-4.4562,-4.3057,-4.1554,-4.1444,-4.1344,-4.1164,-4.0773,-4.0694,-4.0783,-4.0424,-4.0319,-4.0461,-4.0416,-4.0497,-4.0611,-4.0523,-4.0499,-4.0508,-4.0496,-4.0496,-4.0496,-4.0496,-4.0496,-4.0496,-4.0496,-4.0458,-4.0285,-3.8873,-3.8065,-3.7834,-3.7834,-3.7777,-3.768,-3.6911,-3.6212,-3.5519,-3.55,-3.55,-3.55,-3.55,-3.55,-3.55,-3.55,-3.55,-3.55,-3.55,-3.55,-3.5462,-3.4013,-3.3171,0.0,-3.1672,0.0,0.0,0.0,0.0,0.0,0.0,0.0,0.0,-3.4665,-3.5606,-3.5713,-3.5827,-3.588,-3.5882,-3.5274,-3.4878,-3.4862,-3.4863,-3.4863,-3.4902,-3.5566,-3.6016,-3.6016,-3.6094,-3.6465,-3.7109,-3.7383,-3.7793,-3.8573,-3.8706,-3.8647,-3.8742,-3.858,-3.8476,-3.8413,-3.8427,-3.8532,-3.8296,-3.8081,-3.7623,-3.6709,-3.6222,-3.5683,-3.4616,-3.4303,-3.4125,-3.3902,-3.3862,-3.3808,-3.3601,-3.3382,-3.306,-3.2778,-3.2336,-3.2264,-3.3026,-3.3111,-3.3136,-4.7793,-4.7969,-4.7842,-4.7423,-4.6837,-4.6544,-4.5498,-4.3975,-4.3314,-4.2355,-4.122,-4.1203,-4.1326,-4.1502,-4.1475,-4.1607,-4.1866,-4.1277,-4.1128,-4.1275,-4.0705,-4.0438,-4.0499,-4.05,-4.0496,-4.0496,-4.0496,-4.0496,-4.0496,-4.0496,-4.0169,-3.9534,-3.9207,-3.8354,0.0,0.0,0.0,0.0,-3.5808,-3.5654,-3.5519,-3.55,-3.55,-3.55,-3.55,0.0,-3.55,-3.55,-3.55,-3.55,-3.55,0.0,0.0,0.0,0.0,0.0,0.0,0.0,0.0,0.0,0.0,0.0,-3.359,-3.3994,-3.4013,-3.4988,-3.5639,-3.5688,-3.5775,-3.5833,-3.589,-3.5833,-3.5755,-3.576,-3.5742,-3.5762,-3.5762,-3.5918,-3.6016,-3.6016,-3.6621,-3.7109,-3.7363,-3.7891,-3.8672,-3.9512,-3.9647,-3.9913,-4.0457,-3.9828,-3.9583,-4.0074,-3.9983,-3.9761,-3.915,-3.8933,-3.8529,-3.7593,-3.7095,-3.6502,-3.5576,-3.515,-3.4697,-3.4049,-3.3807,-3.3739,-3.3563,-3.3342,-3.3068,-3.2688,-3.2301,-3.2033,-3.1933,-3.1769,-3.1613,-4.7726,0.0,-4.799,-4.7872,0.0,-4.7661,-4.6983,-4.5792,-4.4617,-4.3423,-4.2316,-4.2041,-4.1967,-4.2072,-4.1775,-4.18,-4.2033,-4.1781,-4.1749,-4.1907,-4.1208,-4.0939,-4.1029,-4.0655,-4.0503,-4.0503,-4.05,-4.0496,-4.0496,-4.0496,-4.0285,-3.99,-3.9515,-3.888,-3.8007,-3.7565,-3.6731,-3.5519,-3.55,-3.55,-3.55,-3.55,-3.55,-3.55,0.0,0.0,0.0,0.0,0.0,0.0,0.0,0.0,0.0,0.0,0.0,-3.4186,-3.3391,-3.3083,-3.3506,-3.3551,-3.3718,-3.416,-3.4603,-3.4853,-3.4853,-3.529,-3.5584,-3.5646,-3.5708,-3.5772,-3.5836,-3.5951,-3.6019,-3.6009,-3.6014,-3.6015,-3.6035,-3.6387,-3.6621,-3.6719,-3.7402,-3.8086,-3.8535,-3.8926,-3.959,-4.0391,-4.0527,-4.062,-4.0957,-4.0666,-4.0434,-4.0667,-4.0619,-4.0404,-4.0008,-3.9849,-3.9442,-3.8535,-3.803,-3.7426,-3.6456,-3.5764,-3.5151,-3.4581,-3.4127,-3.3753,-3.3591,-3.3419,-3.3196,-3.2818,-3.2455,-3.2109,-3.1747,-3.1464,-3.1232,-4.7298,-4.7554,-4.7627,-4.787,-4.8126,-4.8128,-4.7712,-4.6984,0.0,0.0,0.0,-4.3126,-4.2824,-4.2867,-4.2181,-4.1991,-4.2156,-4.22,-4.2322,-4.2491,-4.183,-4.1596,-4.1705,-4.1011,-4.0679,-4.0688,-4.0545,-4.0492,-4.0473,-4.05,-4.05,-4.0431,-3.9835,-3.9438,-3.9246,-3.843,-3.7334,-3.6019,-3.5769,-3.5654,-3.55,-3.55,-3.55,-3.55,-3.55,-3.55,-3.5474,-3.5474,-3.5467,-3.546,-3.546,-3.546,-3.5441,-3.4801,-3.4404,-3.4365,-3.3731,-3.3673,-3.4372,-3.443,-3.4731,-3.5442,-3.55,-3.55,-3.55,-3.5483,-3.5528,-3.5583,-3.5654,-3.572,-3.5783,-3.5899,-3.5981,-3.6,-3.601,-3.6054,-3.623,-3.6855,-3.7324,-3.7578,-3.8301,-3.9082,-3.9726,-4.0,-4.0371,-4.0996,-4.1074,-4.111,-4.1097,-4.0989,-4.0835,-4.0738,-4.066,-4.0569,-4.0531,-4.0438,-4.0153,-3.9381,-3.9004,-3.8475,-3.7441,-3.6491,-3.576,-3.5214,-3.4531,-3.4023,-3.3684,-3.352,-3.3331,-3.3008,-3.267,-3.2318,-3.2038,-3.173,-3.143,-4.6719,-4.7022,-4.7151,-4.7428,-4.778,-4.7811,-4.7536,-4.6944,-4.6104,-4.5663,-4.5516,-4.4727,-4.4413,-4.4443,-4.3649,-4.3398,-4.3571,-4.2905,-4.2771,0.0,-4.2304,-4.2108,-4.2251,-4.1646,-4.1389,-4.1397,-4.0771,-4.0424,-4.0413,-4.0474,-4.0491,-4.0479,-4.0377,-3.9977,-3.9284,-3.843,-3.7892,-3.7642,-3.6904,-3.6192,-3.5519,-3.55,-3.55,-3.55,-3.55,-3.5486,-3.5412,-3.5412,-3.5379,-3.533,-3.5323,-3.5323,-3.533,-3.5264,-3.522,-3.522,-3.5112,-3.5139,-3.5308,-3.5261,-3.5311,-3.5481,-3.55,-3.55,-3.55,-3.5483,-3.5496,-3.5528,-3.5615,-3.5699,-3.572,-3.5833,-3.5951,-3.602,-3.6023,-3.6305,-3.703,-3.7305,-3.7676,-3.8359,-3.918,-3.9726,-3.998,-4.0547,-4.0976,-4.1152,-4.1172,-4.1151,-4.1093,-4.0983,-4.0887,-4.0792,-4.0688,-4.0593,-4.058,-4.0531,-4.0362,-4.0182,-3.989,-3.9383,-3.8388,-3.7779,-3.698,-3.5565,-3.5108,-3.4619,-3.3895,-3.3625,-3.3469,-3.3205,-3.2972,-3.2784,-3.2472,-3.2214,-3.1877,-4.6144,-4.6435,-4.6625,-4.6926,-4.728,-4.7621,-4.7709,-4.762,-4.7294,-4.6653,-4.5902,-4.5516,-4.513,-4.4725,-4.4357,-4.4022,-4.3714,-4.3426,-4.3401,-4.3543,-4.2936,-4.2697,-4.2781,-4.2219,-4.1971,-4.1996,-4.1294,-4.096,-4.0959,-4.0565,-4.0342,-4.0388,-4.0419,-4.0244,-3.9879,-3.9495,-3.9092,-3.8581,-3.7343,-3.6519,-3.6154,-3.5691,-3.5434,-3.5465,-3.5412,-3.5383,-3.5346,-3.5339,-3.5297,-3.5195,-3.5231,-3.5231,-3.5195,-3.5289,-3.5365,-3.5346,-3.5342,-3.5364,-3.5398,-3.5405,-3.5393,-3.5434,-3.5486,-3.55,-3.55,-3.5494,-3.5502,-3.5509,-3.5583,-3.5651,-3.5699,-3.5788,-3.6054,-3.6594,-3.6646,-3.7018,-3.7867,-3.8475,-3.8867,-3.9297,-4.0078,-4.0586,-4.0605,-4.0957,-4.1191,-4.1191,-4.1172,-4.113,-4.1117,-4.1054,-4.0964,-4.0814,-4.07,-4.066,-4.0595,-4.0543,-4.0479,-4.0413,-4.0233,-3.9888,-3.9283,-3.8733,-3.7654,-3.6396,-3.5689,-3.4884,-3.3959,-3.3712,-3.3569,-3.343,-3.3301,-3.3086,-3.2834,-3.2505,-3.2091,-4.5606,-4.5837,-4.6094,-4.6459,-4.6903,-4.7363,-4.7765,-4.8068,-4.809,-4.7474,-4.6489,-4.625,-4.5828,-4.5241,-4.4892,-4.4395,-4.3913,-4.376,-4.3802,-4.3852,-4.3461,-4.3295,-4.3297,-4.2768,-4.2515,-4.2491,-4.1914,-4.1535,-4.131,-4.073,-4.0349,-4.0252,-4.0288,-4.0325,-4.0344,-4.0353,-4.0017,-3.9308,-3.792,-3.7018,-3.6656,-3.5993,-3.5568,-3.5369,-3.53,-3.5273,-3.5272,-3.5237,-3.5176,-3.5025,-3.5062,-3.5081,-3.5044,-3.5132,-3.5229,-3.5245,-3.5258,-3.5262,-3.527,-3.5335,-3.5376,-3.5383,-3.5446,-3.5467,-3.5486,-3.5493,-3.5494,-3.5509,-3.5566,-3.5622,-3.5715,-3.5965,-3.637,-3.707,-3.7371,-3.7856,-3.8755,-3.9467,-3.9998,-4.0175,-4.0781,-4.1152,-4.1191,-4.1191,-4.1191,-4.1191,-4.1152,-4.113,-4.1103,-4.1103,-4.1028,-4.0909,-4.0771,-4.0694,-4.0631,-4.0554,-4.0527,-4.051,-4.0351,-4.0158,-3.9877,-3.9217,-3.8179,-3.7125,-3.621,-3.5251,-3.4207,-3.3788,-3.3694,-3.3587,-3.3506,-3.3375,-3.3132,-3.2768,-3.2318,-4.514,-4.531,-4.5555,-4.6112,-4.6801,-4.7057,-4.7385,-4.7741,-4.7809,-4.7919,-4.7821,-4.7277,-4.6947,-4.6672,-4.537,-4.4709,-4.4488,-4.3862,-4.3583,-4.3649,-4.3712,-4.3802,-4.3844,-4.3305,-4.3071,-4.3053,-4.2498,-4.1839,-4.1238,-4.11,-4.0741,-4.0109,-4.0091,-4.012,-4.012,-4.0177,-4.0177,-4.0081,-3.9185,-3.799,-3.661,-3.6438,-3.6012,-3.5245,-3.5218,-3.5176,-3.511,-3.5075,-3.4964,-3.4832,-3.4783,-3.4783,-3.4841,-3.4889,-3.5001,-3.512,-3.5129,-3.5117,-3.5122,-3.5234,-3.53,-3.53,-3.5369,-3.5412,-3.5412,-3.546,-3.55,-3.5494,-3.5489,-3.5547,-3.5648,-3.6348,-3.6891,-3.724,-3.7858,-3.8656,-3.9494,-3.9746,-4.0108,-4.0916,-4.1033,-4.1151,-4.1172,-4.1191,-4.1191,-4.1191,-4.1172,-4.1152,-4.111,-4.11,-4.1076,-4.098,-4.0876,-4.0773,-4.0694,-4.0624,-4.0565,-4.0507,-4.0449,-4.0335,-4.011,-3.9865,-3.921,-3.7461,-3.6857,-3.5981,-3.4649,-3.3985,-3.3881,-3.378,-3.3684,-3.3587,-3.339,-3.3117,-3.2752,-4.4831,-4.4978,-4.5167,-4.5658,-4.6308,-4.6578,-4.6944,-4.7323,-4.7454,-4.7663,-4.787,-4.7625,-4.7363,-4.7076,-4.6397,-4.5627,-4.4691,-4.436,-4.3955,-4.3584,-4.3634,-4.3718,-4.3744,-4.3642,-4.361,-4.361,-4.2988,-4.2522,-4.2126,-4.1405,-4.0778,-4.0447,-4.0086,-3.9884,-3.9865,-3.9886,-3.9897,-3.9897,-3.9562,-3.8812,-3.7676,-3.6758,-3.6166,-3.5778,-3.5257,-3.4974,-3.4917,-3.4801,-3.471,-3.4575,-3.4524,-3.4524,-3.4564,-3.466,-3.478,-3.4849,-3.4908,-3.4926,-3.4973,-3.5063,-3.5145,-3.517,-3.5234,-3.5297,-3.533,-3.5386,-3.5453,-3.55,-3.5494,-3.5694,-3.6235,-3.6671,-3.7284,-3.8248,-3.8883,-3.9474,-4.0379,-4.0508,-4.0707,-4.1059,-4.1104,-4.1107,-4.113,-4.115,-4.115,-4.1131,-4.1151,-4.1132,-4.1113,-4.1108,-4.1094,-4.1064,-4.0977,-4.0873,-4.0775,-4.068,-4.061,-4.055,-4.0507,-4.0415,-4.0326,-4.0186,-3.9466,-3.7652,-3.7239,-3.6368,-3.4643,-3.4234,-3.4061,-3.3952,-3.3793,-3.3657,-3.3573,-3.3433,-3.3178,-4.484,-4.4765,-4.4913,-4.5283,-4.5837,-4.6087,-4.6435,-4.6858,-4.7017,-4.7254,-4.7472,-4.7563,-4.7463,-4.7212,-4.711,-4.6397,-4.537,-4.4911,-4.4397,-4.3845,-4.3641,-4.3583,-4.3582,-4.3751,-4.3849,-4.3818,-4.341,-4.3122,-4.2898,-4.1673,-4.0883,-4.0627,-4.0146,-3.9789,-3.9575,-3.9587,-3.9599,-3.9599,-3.9587,-3.9238,-3.8538,-3.7344,-3.6461,-3.6049,-3.5413,-3.4936,-3.4666,-3.4539,-3.445,-3.4316,-3.4305,-3.4293,-3.4335,-3.4397,-3.4506,-3.4623,-3.471,-3.4762,-3.4802,-3.487,-3.4936,-3.502,-3.5091,-3.5174,-3.5285,-3.5519,-3.5744,-3.5864,-3.6017,-3.6442,-3.665,-3.7204,-3.8099,-3.9307,-3.9694,-4.0218,-4.0809,-4.0967,-4.0967,-4.1046,-4.106,-4.1073,-4.1101,-4.1103,-4.1103,-4.1103,-4.1107,-4.111,-4.1112,-4.1113,-4.1107,-4.1111,-4.1059,-4.0986,-4.0858,-4.0745,-4.0668,-4.061,-4.0562,-4.0507,-4.043,-4.0308,-3.9633,-3.7995,-3.7589,-3.6637,-3.5029,-3.445,-3.424,-3.4049,-3.3881,-3.378,-3.3753,-3.3647,-3.3549,-4.5246,-4.466,-4.4765,-4.5042,-4.5441,-4.558,-4.5887,-4.6242,-4.6501,-4.6719,-4.6949,-4.7066,-4.7244,-4.7409,-4.711,-4.6942,-4.6651,-4.5425,-4.4783,-4.458,-4.3919,-4.3515,-4.3515,-4.3582,-4.3634,-4.3649,-4.3705,-4.3444,-4.2831,-4.1939,-4.1089,-4.0411,-4.0351,-3.9969,-3.9405,-3.9322,-3.9305,-3.9311,-3.9259,-3.9187,-3.9043,-3.8258,-3.715,-3.5981,-3.5686,-3.5266,-3.4507,-3.4276,-3.4204,-3.4111,-3.4061,-3.4049,-3.4111,-3.4124,-3.4221,-3.4386,-3.4528,-3.4612,-3.4604,-3.4676,-3.4747,-3.4819,-3.4974,-3.5066,-3.5268,-3.5963,-3.6465,-3.6634,-3.7279,-3.7467,-3.7135,-3.814,-3.9068,-3.9444,-4.0159,-4.0626,-4.0786,-4.0859,-4.0917,-4.0981,-4.1011,-4.1015,-4.1085,-4.1111,-4.1088,-4.1088,-4.1094,-4.1099,-4.1101,-4.1111,-4.1113,-4.111,-4.1093,-4.1042,-4.092,-4.0832,-4.0725,-4.0668,-4.0624,-4.0558,-4.0507,-4.0249,-3.9242,-3.8351,-3.7804,-3.6833,-3.5369,-3.4618,-3.4397,-3.4209,-3.4023,-3.3921,-3.3913,-3.378,-3.3698,-4.528,-4.4615,-4.4737,-4.4886,-4.5015,-4.5257,-4.5477,-4.5701,-4.587,-4.6112,-4.6315,-4.6459,-4.6666,-4.6903,-4.7036,-4.6998,-4.6827,-4.6358,-4.5902,-4.5443,-4.4635,-4.4268,-4.4213,-4.3807,-4.3531,-4.3566,-4.3617,-4.3553,-4.3268,-4.2525,-4.2001,-4.1573,-4.0678,-4.0044,-3.9744,-3.9291,-3.9031,-3.9031,-3.9003,-3.9007,-3.8989,-3.8701,-3.7998,-3.6988,-3.6506,-3.5863,-3.4964,-3.4862,-3.4576,-3.4009,-3.3908,-3.3895,-3.3959,-3.4011,-3.4086,-3.4197,-3.4257,-3.4293,-3.4347,-3.4381,-3.442,-3.4566,-3.5114,-3.5534,-3.5836,-3.654,-3.7145,-3.7441,-3.8112,-3.8421,-3.8493,-3.895,-3.9545,-4.0109,-4.0446,-4.0668,-4.0732,-4.0761,-4.0804,-4.0863,-4.0918,-4.0958,-4.0951,-4.0977,-4.0983,-4.1034,-4.1044,-4.1057,-4.1094,-4.1112,-4.1107,-4.1113,-4.111,-4.1091,-4.1039,-4.0928,-4.0818,-4.0757,-4.0707,-4.0639,-4.0592,-4.0442,-3.9629,-3.8306,-3.7747,-3.6916,-3.5457,-3.4791,-3.4583,-3.4427,-3.4245,-3.4099,-3.4036,-3.3934,-3.3868,-4.5072,-4.4632,-4.4709,-4.472,-4.4748,-4.4978,-4.514,-4.5247,-4.5389,-4.558,-4.5735,-4.5887,-4.6087,-4.6357,-4.6625,-4.6793,-4.6768,-4.6817,-4.663,-4.6121,-4.5352,-4.4876,-4.46,-4.4123,-4.3737,-4.3516,-4.3479,-4.3513,-4.3528,-4.3063,-4.2691,-4.2341,-4.1272,-4.0532,-4.0035,-3.9482,-3.9113,-3.891,-3.8855,-3.8837,-3.8837,-3.8822,-3.8567,-3.8004,-3.7524,-3.6736,-3.5688,-3.557,-3.5308,-3.4719,-3.4385,-3.4096,-3.3905,-3.3921,-3.4133,-3.4412,-3.4487,-3.4629,-3.4902,-3.4939,-3.5008,-3.5119,-3.5639,-3.6094,-3.6373,-3.7181,-3.7743,-3.8137,-3.8841,-3.941,-3.9525,-3.9602,-3.99,-4.0435,-4.0573,-4.0595,-4.0653,-4.0648,-4.0713,-4.0776,-4.082,-4.0858,-4.0872,-4.0876,-4.0885,-4.0945,-4.0945,-4.099,-4.1064,-4.1059,-4.1085,-4.1102,-4.1112,-4.1112,-4.1094,-4.1005,-4.0925,-4.0849,-4.0779,-4.0726,-4.0563,-4.0417,-3.9749,-3.8435,-3.7406,-3.6602,-3.5848,-3.5107,-3.4791,-3.4658,-3.4495,-3.4347,-3.4233,-3.4111,-3.4023,-4.4632,-4.4598,-4.4598,-4.4598,-4.4626,-4.4765,-4.4803,-4.4886,-4.5086,-4.5203,-4.5257,-4.5363,-4.5555,-4.5786,-4.597,-4.6255,-4.6585,-4.6618,-4.668,-4.6694,-4.5966,-4.5294,-4.4803,-4.4547,-4.407,-4.3498,-4.3479,-4.3497,-4.3496,-4.3386,-4.3073,-4.2486,-4.2229,-4.1401,-4.0008,-3.9913,-3.9457,-3.8961,-3.8778,-3.8723,-3.8707,-3.8723,-3.8686,-3.8615,-3.8557,-3.7875,-3.6427,-3.6336,-3.6262,-3.6079,-3.544,-3.4637,-3.4151,-3.4107,-3.4373,-3.5086,-3.5256,-3.5665,-3.6274,-3.6311,-3.626,-3.6364,-3.6565,-3.6701,-3.7,-3.7812,-3.8475,-3.8755,-3.9419,-4.0071,-4.0138,-4.0164,-4.0273,-4.0473,-4.0516,-4.0531,-4.058,-4.0607,-4.0612,-4.0694,-4.0769,-4.0812,-4.0796,-4.0787,-4.0779,-4.0824,-4.0864,-4.0921,-4.0968,-4.0977,-4.1022,-4.1072,-4.1074,-4.107,-4.1094,-4.1103,-4.1018,-4.094,-4.0863,-4.0765,-4.0525,-4.0308,-3.9456,-3.8232,-3.7024,-3.6213,-3.5725,-3.5081,-3.502,-3.4879,-3.473,-3.4583,-3.4465,-3.4333,-3.4173,-4.4598,-4.4598,-4.4598,-4.4598,-4.4615,-4.4671,-4.4654,-4.4671,-4.4765,-4.4848,-4.4923,-4.4951,-4.514,-4.5363,-4.5529,-4.5819,-4.6224,-4.6295,-4.6641,-4.7033,-4.6509,-4.6098,-4.572,-4.4796,-4.3962,-4.3414,-4.3375,-4.3429,-4.3446,-4.3463,-4.3349,-4.3092,-4.2561,-4.2084,-4.146,-4.0487,-3.9735,-3.9496,-3.8964,-3.8707,-3.8707,-3.8707,-3.8707,-3.8707,-3.8707,-3.8414,-3.7973,-3.7419,-3.6868,-3.6358,-3.6046,-3.5771,-3.555,-3.5542,-3.567,-3.5923,-3.5974,-3.6062,-3.6282,-3.6407,-3.6458,-3.6565,-3.6962,-3.7322,-3.7583,-3.8393,-3.8958,-3.9161,-3.9584,-3.9873,-4.0008,-4.0118,-4.0234,-4.0463,-4.0507,-4.0503,-4.0523,-4.0592,-4.0622,-4.0631,-4.0654,-4.0662,-4.0675,-4.0662,-4.0694,-4.0719,-4.0757,-4.0792,-4.0849,-4.0878,-4.091,-4.099,-4.1011,-4.1042,-4.1063,-4.1092,-4.1051,-4.1014,-4.0955,-4.0874,-4.0602,-3.9857,-3.9011,-3.7926,-3.6748,-3.5998,-3.5496,-3.5266,-3.5185,-3.5108,-3.4964,-3.4831,-3.4703,-3.4567,-3.439,-4.4852,-4.4598,-4.4598,-4.4598,-4.4598,-4.4598,-4.4598,-4.4598,-4.4598,-4.4654,-4.472,-4.472,-4.4848,-4.5032,-4.514,-4.5389,-4.5666,-4.5837,-4.6217,-4.6776,-4.6761,-4.65,-4.6116,-4.4778,-4.3917,-4.3504,-4.3306,-4.3251,-4.3287,-4.334,-4.3376,-4.3265,-4.2915,-4.2529,-4.2235,-4.1315,-4.0595,-3.9937,-3.9405,-3.9019,-3.8762,-3.8707,-3.8707,-3.8707,-3.8707,-3.8707,-3.8652,-3.8193,-3.7713,-3.7221,-3.6942,-3.6629,-3.6358,-3.6266,-3.6413,-3.6688,-3.6776,-3.6868,-3.7129,-3.7309,-3.7199,-3.7334,-3.7735,-3.8052,-3.826,-3.8813,-3.9124,-3.9285,-3.9452,-3.9592,-3.9739,-3.9889,-4.0058,-4.0281,-4.0389,-4.0449,-4.0452,-4.0484,-4.0511,-4.0527,-4.0523,-4.0546,-4.0561,-4.0549,-4.061,-4.0646,-4.066,-4.0687,-4.0738,-4.0784,-4.084,-4.09,-4.0926,-4.098,-4.1046,-4.1069,-4.1082,-4.1074,-4.1048,-4.0975,-4.0805,-3.9606,-3.8573,-3.7251,-3.6022,-3.5856,-3.5416,-3.5398,-3.5331,-3.525,-3.5166,-3.5072,-3.4936,-3.4782,-3.4609,-4.5263,-4.4632,-4.4598,-4.4598,-4.4598,-4.4598,-4.4598,-4.4598,-4.4598,-4.4615,-4.4598,-4.4598,-4.4682,-4.4776,-4.4848,-4.4978,-4.5194,-4.5353,-4.552,-4.5862,-4.6192,-4.6275,-4.5708,-4.4683,-4.403,-4.3698,-4.3239,-4.3009,-4.3012,-4.3068,-4.3105,-4.3142,-4.3195,-4.3011,-4.2426,-4.2255,-4.1445,-4.0366,-3.996,-3.9431,-3.8826,-3.8661,-3.8661,-3.8661,-3.8643,-3.8658,-3.8624,-3.8551,-3.86,-3.856,-3.7881,-3.7272,-3.6652,-3.6431,-3.6927,-3.7529,-3.7566,-3.79,-3.8469,-3.8432,-3.8469,-3.845,-3.8502,-3.8701,-3.8715,-3.8807,-3.8946,-3.9073,-3.9205,-3.9337,-3.9464,-3.9599,-3.9762,-3.9975,-4.0196,-4.0316,-4.0389,-4.0379,-4.0388,-4.0388,-4.0388,-4.0396,-4.0447,-4.0455,-4.0495,-4.0562,-4.0592,-4.0617,-4.0654,-4.0688,-4.073,-4.0793,-4.0825,-4.0885,-4.0935,-4.1003,-4.1013,-4.1055,-4.0996,-4.0825,-4.0457,-3.9208,-3.7964,-3.6629,-3.582,-3.5633,-3.5521,-3.5489,-3.5455,-3.5379,-3.532,-3.525,-3.5124,-3.4973,-3.4831,-4.5263,-4.4615,-4.4598,-4.4598,-4.4598,-4.4598,-4.4598,-4.4598,-4.4598,-4.4598,-4.4598,-4.4598,-4.4626,-4.4654,-4.4654,-4.4765,-4.4913,-4.4951,-4.5086,-4.531,-4.5494,-4.5551,-4.5394,-4.5042,-4.4303,-4.3547,-4.3281,-4.303,-4.2629,-4.2728,-4.2806,-4.2844,-4.3031,-4.3087,-4.285,-4.2339,-4.1918,-4.1298,-4.0153,-3.9571,-3.9243,-3.8678,-3.8423,-3.8405,-3.8451,-3.8499,-3.8481,-3.8481,-3.8562,-3.8673,-3.8542,-3.8322,-3.7976,-3.7958,-3.8031,-3.8215,-3.834,-3.8432,-3.8634,-3.8707,-3.8707,-3.8707,-3.8707,-3.8689,-3.8719,-3.8777,-3.8851,-3.8906,-3.9007,-3.9106,-3.9156,-3.9298,-3.9514,-3.9762,-4.001,-4.0205,-4.0233,-4.0243,-4.0243,-4.0243,-4.0243,-4.0271,-4.0289,-4.0316,-4.0351,-4.0386,-4.0463,-4.0511,-4.0546,-4.0598,-4.0641,-4.0688,-4.073,-4.0773,-4.0835,-4.0891,-4.0964,-4.1009,-4.0849,-4.0525,-3.9793,-3.8585,-3.7332,-3.6058,-3.5853,-3.5679,-3.5612,-3.557,-3.5547,-3.5502,-3.5462,-3.5379,-3.5289,-3.513,-3.5018,-4.5534,-4.4598,-4.4598,-4.4598,-4.4598,-4.4598,-4.4598,-4.4598,-4.4598,-4.4598,-4.4598,-4.4598,-4.4598,-4.4598,-4.4598,-4.4626,-4.4692,-4.4692,-4.4803,-4.4923,-4.5032,-4.513,-4.5175,-4.5026,-4.4465,-4.3757,-4.3235,-4.2859,-4.2527,-4.2394,-4.2335,-4.2456,-4.2632,-4.2785,-4.2844,-4.2539,-4.2087,-4.1687,-4.0763,-4.0076,-3.9317,-3.8847,-3.8447,-3.8281,-3.8221,-3.8236,-3.8251,-3.8267,-3.8366,-3.8512,-3.8562,-3.8562,-3.8578,-3.8562,-3.8559,-3.8578,-3.8593,-3.8609,-3.8643,-3.8658,-3.8707,-3.8707,-3.8707,-3.8707,-3.8689,-3.8735,-3.8747,-3.8762,-3.8866,-3.8892,-3.895,-3.9101,-3.9285,-3.9477,-3.9721,-3.9927,-4.003,-4.005,-4.007,-4.0089,-4.0089,-4.0109,-4.0109,-4.0139,-4.0177,-4.0233,-4.0316,-4.0368,-4.0408,-4.0484,-4.0558,-4.0579,-4.0647,-4.0694,-4.0736,-4.0782,-4.084,-4.0906,-4.0142,-3.9905,-3.9236,-3.8088,-3.7052,-3.6144,-3.5917,-3.5757,-3.5717,-3.5654,-3.5607,-3.5581,-3.5553,-3.5502,-3.54,-3.5308,-3.5187,-4.5894,-4.4559,-4.4559,-4.4542,-4.4542,-4.457,-4.457,-4.4598,-4.4598,-4.4598,-4.4598,-4.4598,-4.4598,-4.4598,-4.4598,-4.4598,-4.4598,-4.4626,-4.4598,-4.4682,-4.4765,-4.4937,-4.5111,-4.4811,-4.4473,-4.4116,-4.3134,-4.2742,-4.2484,-4.2017,-4.1858,-4.1977,-4.2089,-4.2274,-4.2434,-4.2483,-4.2218,-4.1694,-4.1278,-4.0538,-3.9513,-3.8993,-3.851,-3.8133,-3.7933,-3.7966,-3.8,-3.8034,-3.8101,-3.8285,-3.8334,-3.835,-3.835,-3.835,-3.835,-3.8385,-3.8433,-3.8481,-3.8494,-3.8596,-3.8643,-3.8643,-3.8643,-3.8658,-3.8643,-3.864,-3.8673,-3.8673,-3.8747,-3.8792,-3.8833,-3.896,-3.9087,-3.921,-3.933,-3.9521,-3.9724,-3.9845,-3.9856,-3.9856,-3.9867,-3.99,-3.9933,-3.9946,-3.9977,-4.0001,-4.011,-4.0205,-4.0279,-4.0377,-4.0427,-4.0457,-4.0512,-4.0595,-4.064,-4.0675,-4.073,-4.0698,-3.9459,-3.8856,-3.8661,-3.7753,-3.6887,-3.6238,-3.5979,-3.5841,-3.5806,-3.5741,-3.5697,-3.5659,-3.5637,-3.5583,-3.5515,-3.543,-3.5333,-4.5555,-4.4229,-4.4229,-4.427,-4.4338,-4.4384,-4.444,-4.457,-4.457,-4.457,-4.457,-4.457,-4.457,-4.457,-4.4598,-4.4598,-4.457,-4.457,-4.4598,-4.4598,-4.4615,-4.4682,-4.4814,-4.4749,-4.4584,-4.4182,-4.3872,-4.3147,-4.2396,-4.2072,-4.1772,-4.1466,-4.1613,-4.177,-4.1881,-4.2008,-4.2035,-4.1712,-4.1168,-4.0663,-4.004,-3.9011,-3.8394,-3.8098,-3.7734,-3.7595,-3.7667,-3.7721,-3.7685,-3.7703,-3.7862,-3.7983,-3.8034,-3.8069,-3.8069,-3.8103,-3.8238,-3.8322,-3.8354,-3.8385,-3.8465,-3.8449,-3.8433,-3.8446,-3.8446,-3.8512,-3.8525,-3.8559,-3.864,-3.8716,-3.8777,-3.8837,-3.8906,-3.8993,-3.9064,-3.9129,-3.9272,-3.9464,-3.9575,-3.9587,-3.9587,-3.9568,-3.9592,-3.9658,-3.9717,-3.9788,-3.9905,-4.0039,-4.0158,-4.0243,-4.0298,-4.0323,-4.0375,-4.0452,-4.0523,-4.0571,-4.0629,-4.0526,-3.9388,-3.8361,-3.8143,-3.7482,-3.6653,-3.623,-3.6005,-3.5924,-3.587,-3.5858,-3.583,-3.5776,-3.5708,-3.5674,-3.5615,-3.5538,-3.547,-4.518,-4.391,-4.386,-4.3948,-4.4064,-4.408,-4.4196,-4.4344,-4.4372,-4.4372,-4.44,-4.4412,-4.4468,-4.4468,-4.4542,-4.457,-4.4457,-4.44,-4.4384,-4.444,-4.4468,-4.4514,-4.4598,-4.472,-4.4593,-4.4255,-4.3926,-4.3193,-4.2449,-4.1957,-4.1536,-4.1017,-4.1146,-4.1249,-4.1351,-4.1463,-4.1468,-4.1415,-4.1051,-4.0617,-4.0027,-3.9395,-3.8444,-3.7971,-3.7415,-3.7148,-3.7223,-3.7223,-3.7204,-3.7186,-3.7243,-3.7413,-3.7596,-3.7632,-3.765,-3.7739,-3.7827,-3.7966,-3.8001,-3.8069,-3.8118,-3.8118,-3.8136,-3.817,-3.8219,-3.8285,-3.835,-3.8417,-3.8499,-3.8578,-3.8606,-3.8606,-3.8667,-3.8695,-3.874,-3.8785,-3.8873,-3.9124,-3.9311,-3.9311,-3.933,-3.9311,-3.9318,-3.9376,-3.9439,-3.9508,-3.958,-3.9709,-3.9884,-4.0008,-4.0128,-4.0187,-4.0215,-4.0288,-4.0383,-4.0465,-4.0542,-4.0305,-3.9714,-3.8811,-3.8249,-3.7396,-3.6455,-3.6187,-3.5956,-3.5975,-3.5944,-3.5949,-3.5921,-3.5858,-3.579,-3.5764,-3.5712,-3.5664,-3.5602,-4.4589,-4.3369,-4.3399,-4.3489,-4.3638,-4.3667,-4.3802,-4.401,-4.4023,-4.4039,-4.4068,-4.415,-4.4207,-4.4253,-4.4384,-4.4355,-4.4196,-4.408,-4.408,-4.4121,-4.4179,-4.4253,-4.4384,-4.4497,-4.4536,-4.4485,-4.4133,-4.3406,-4.2702,-4.2031,-4.1552,-4.0933,-4.0666,-4.0799,-4.0884,-4.0931,-4.0954,-4.0919,-4.0868,-4.0596,-4.0026,-3.9635,-3.8876,-3.7728,-3.7252,-3.689,-3.6806,-3.6756,-3.6716,-3.6713,-3.6564,-3.6673,-3.6898,-3.7092,-3.715,-3.7264,-3.7358,-3.7487,-3.7595,-3.7667,-3.7703,-3.7703,-3.7703,-3.7756,-3.7862,-3.7948,-3.8052,-3.817,-3.8252,-3.835,-3.8332,-3.8366,-3.8366,-3.8382,-3.843,-3.8446,-3.8491,-3.8748,-3.888,-3.9073,-3.9101,-3.9096,-3.9082,-3.9096,-3.9165,-3.9232,-3.9311,-3.9414,-3.9599,-3.9751,-3.987,-3.9986,-4.0019,-4.0148,-4.0252,-4.0313,-4.0397,-4.0239,-3.9793,-3.9084,-3.8323,-3.7429,-3.6589,-3.6111,-3.5907,-3.5948,-3.5976,-3.5975,-3.5944,-3.5898,-3.589,-3.5864,-3.5824,-3.5772,-3.5717,-4.3122,-4.2349,-4.2523,-4.2726,-4.2958,-4.3127,-4.3386,-4.3654,-4.3654,-4.3684,-4.3684,-4.3831,-4.386,-4.3889,-4.3889,-4.386,-4.3743,-4.3654,-4.3667,-4.3726,-4.3785,-4.3889,-4.3977,-4.4179,-4.4293,-4.4378,-4.4243,-4.3904,-4.3176,-4.2526,-4.186,-4.1274,-4.072,-4.0546,-4.0576,-4.059,-4.059,-4.059,-4.059,-4.0429,-4.0216,-3.9651,-3.8911,-3.7647,-3.7305,-3.6922,-3.6523,-3.6402,-3.6381,-3.6314,-3.6251,-3.6233,-3.6301,-3.6489,-3.6652,-3.6776,-3.6917,-3.7071,-3.7167,-3.7245,-3.7301,-3.7301,-3.7265,-3.7301,-3.7376,-3.7523,-3.7667,-3.7827,-3.8,-3.8135,-3.8152,-3.8118,-3.8135,-3.8135,-3.8118,-3.8117,-3.8168,-3.8249,-3.846,-3.8695,-3.88,-3.8888,-3.8873,-3.8873,-3.8946,-3.9031,-3.9115,-3.9192,-3.935,-3.9477,-3.9587,-3.9682,-3.9792,-3.9943,-4.0108,-4.0177,-4.0232,-4.0159,-3.9775,-3.9142,-3.8341,-3.7469,-3.6778,-3.6312,-3.5972,-3.5888,-3.5914,-3.5969,-3.5956,-3.5935,-3.5946,-3.595,-3.5906,-3.585,-3.582,-4.2173,-4.1573,-4.1737,-4.1964,-4.2222,-4.2476,-4.2726,-4.299,-4.305,-4.308,-4.3111,-4.3248,-4.3325,-4.3355,-4.3416,-4.3386,-4.3235,-4.3127,-4.3127,-4.3235,-4.3295,-4.3429,-4.3532,-4.3814,-4.3977,-4.408,-4.4191,-4.4041,-4.3426,-4.3081,-4.2279,-4.1417,-4.0917,-4.062,-4.0373,-4.0313,-4.0288,-4.0296,-4.0288,-4.0313,-4.0245,-3.9591,-3.8748,-3.8285,-3.7467,-3.6954,-3.6652,-3.616,-3.6036,-3.5993,-3.5927,-3.5883,-3.5866,-3.5937,-3.6131,-3.636,-3.6489,-3.6574,-3.6655,-3.6719,-3.6719,-3.6739,-3.6739,-3.6776,-3.6876,-3.7015,-3.7245,-3.7504,-3.7613,-3.7774,-3.7827,-3.7792,-3.7739,-3.7721,-3.7685,-3.7685,-3.7721,-3.7774,-3.7965,-3.8234,-3.8382,-3.8494,-3.8634,-3.8667,-3.8743,-3.8818,-3.8906,-3.9021,-3.9129,-3.9192,-3.9298,-3.9427,-3.9526,-3.9658,-3.9826,-3.9937,-4.0021,-3.9986,-3.986,-3.9231,-3.8565,-3.7803,-3.7115,-3.653,-3.6265,-3.582,-3.5877,-3.5931,-3.5934,-3.5948,-3.5956,-3.5956,-3.5949,-3.5932,-3.5903,-4.1351,-4.082,-4.1005,-4.1223,-4.1456,-4.1753,-4.2061,-4.2238,-4.2333,-4.2396,-4.2428,-4.2586,-4.268,-4.268,-4.2774,-4.2774,-4.2634,-4.2444,-4.2476,-4.2586,-4.2649,-4.282,-4.3003,-4.3292,-4.3459,-4.3578,-4.3802,-4.3808,-4.3614,-4.3299,-4.2517,-4.1673,-4.1268,-4.0754,-4.0189,-4.0037,-4.002,-4.002,-4.0037,-4.0037,-3.9868,-3.9496,-3.9074,-3.8963,-3.7875,-3.7318,-3.7103,-3.6475,-3.6129,-3.5983,-3.5802,-3.56,-3.5594,-3.56,-3.5756,-3.6014,-3.6101,-3.6148,-3.6216,-3.6241,-3.6284,-3.6305,-3.6259,-3.6301,-3.6406,-3.6615,-3.6856,-3.7148,-3.7281,-3.73,-3.7338,-3.7319,-3.7281,-3.7226,-3.7169,-3.7113,-3.7226,-3.7301,-3.7377,-3.7632,-3.7897,-3.8104,-3.8236,-3.8483,-3.8546,-3.8575,-3.8652,-3.8792,-3.8873,-3.8921,-3.9017,-3.917,-3.9304,-3.9389,-3.9539,-3.967,-3.9755,-3.9794,-3.981,-3.9519,-3.8904,-3.8243,-3.7532,-3.6715,-3.6002,-3.565,-3.5764,-3.5879,-3.5875,-3.5903,-3.5944,-3.5962,-3.5934,-3.5957,-3.5949,-4.0197,-4.0137,-4.0301,-4.0528,-4.0901,-4.1122,-4.139,-4.1654,-4.1671,-4.1704,-4.1704,-4.1851,-4.19,-4.1933,-4.1933,-4.1884,-4.1785,-4.1753,-4.1737,-4.1769,-4.1867,-4.1948,-4.2078,-4.2506,-4.2741,-4.2927,-4.3232,-4.3634,-4.3602,-4.3265,-4.2696,-4.1892,-4.1188,-4.0517,-3.999,-3.9763,-3.9755,-3.9755,-3.9755,-3.9755,-3.9722,-3.9698,-3.9396,-3.9008,-3.8644,-3.8294,-3.7696,-3.7036,-3.6608,-3.643,-3.5943,-3.5616,-3.5543,-3.5554,-3.56,-3.5689,-3.5773,-3.5888,-3.6014,-3.6019,-3.6002,-3.6019,-3.6041,-3.6041,-3.6127,-3.6255,-3.6447,-3.6568,-3.6753,-3.6836,-3.6836,-3.6836,-3.6796,-3.6756,-3.6716,-3.6696,-3.6736,-3.6856,-3.6937,-3.7034,-3.7282,-3.7613,-3.7826,-3.8121,-3.834,-3.837,-3.8419,-3.8546,-3.867,-3.8698,-3.8792,-3.8964,-3.9078,-3.9151,-3.9245,-3.9401,-3.9489,-3.9563,-3.9656,-3.965,-3.9144,-3.8471,-3.7623,-3.6841,-3.6113,-3.5586,-3.5609,-3.5721,-3.5795,-3.5843,-3.5861,-3.589,-3.5894,-3.5939,-3.5973,-3.9676,-3.9676,-3.9844,-4.0021,-4.0211,-4.0474,-4.0665,-4.0802,-4.0919,-4.0987,-4.0987,-4.1039,-4.1057,-4.1091,-4.1057,-4.1039,-4.0987,-4.0987,-4.0953,-4.0987,-4.1073,-4.114,-4.1341,-4.1655,-4.1948,-4.2174,-4.2428,-4.2664,-4.2935,-4.3205,-4.297,-4.2192,-4.1461,-4.0823,-3.9947,-3.9608,-3.9458,-3.9408,-3.9391,-3.9391,-3.9461,-3.9556,-3.9534,-3.9157,-3.8942,-3.8606,-3.8202,-3.7474,-3.704,-3.6883,-3.6532,-3.6441,-3.6482,-3.648,-3.6427,-3.6051,-3.6114,-3.6027,-3.5818,-3.579,-3.5778,-3.5778,-3.5778,-3.58,-3.5866,-3.5954,-3.6127,-3.6314,-3.6419,-3.6444,-3.6426,-3.6426,-3.6423,-3.6381,-3.6301,-3.6339,-3.636,-3.6402,-3.6489,-3.6591,-3.6696,-3.7015,-3.732,-3.7559,-3.7827,-3.8037,-3.8121,-3.8254,-3.8417,-3.8544,-3.8655,-3.8795,-3.8881,-3.8935,-3.9036,-3.9147,-3.9178,-3.9285,-3.9452,-3.9435,-3.9256,-3.8628,-3.7832,-3.7184,-3.6585,-3.6117,-3.5714,-3.5554,-3.5649,-3.5712,-3.5764,-3.5783,-3.582,-3.5943,-3.6235,-3.9388,-3.9409,-3.9553,-3.9661,-3.9732,-4.0001,-4.0126,-4.0196,-4.0316,-4.0401,-4.0366,-4.0385,-4.0385,-4.0401,-4.0436,-4.0436,-4.0401,-4.0366,-4.0366,-4.0366,-4.0385,-4.0489,-4.0662,-4.0919,-4.1125,-4.1307,-4.1606,-4.1802,-4.2077,-4.2362,-4.2456,-4.2121,-4.1238,-4.0623,-3.9977,-3.9347,-3.8952,-3.8882,-3.8854,-3.8854,-3.8909,-3.9077,-3.9202,-3.9126,-3.8959,-3.8687,-3.8561,-3.7868,-3.741,-3.7208,-3.6885,-3.672,-3.6795,-3.6804,-3.6771,-3.6512,-3.647,-3.636,-3.6025,-3.5822,-3.5571,-3.5532,-3.5571,-3.5639,-3.5684,-3.5745,-3.5795,-3.6014,-3.6079,-3.6105,-3.611,-3.6084,-3.6062,-3.6019,-3.5958,-3.5997,-3.6036,-3.6101,-3.6127,-3.6195,-3.6301,-3.6406,-3.6716,-3.6956,-3.7245,-3.7613,-3.781,-3.7967,-3.8138,-3.8285,-3.8433,-3.8546,-3.8621,-3.8698,-3.8743,-3.8833,-3.8888,-3.8989,-3.9151,-3.9229,-3.907,-3.8761,-3.8169,-3.7568,-3.7033,-3.6471,-3.5968,-3.5727,-3.5496,-3.5585,-3.5649,-3.5684,-3.5739,-3.5939,-3.6565,-3.9388,-3.9388,-3.9424,-3.9517,-3.9681,-3.9732,-3.9839,-3.9996,-4.0031,-4.0031,-4.0031,-4.0031,-4.0031,-4.0031,-4.0031,-4.0031,-4.0046,-4.0046,-4.0031,-4.0031,-4.0031,-4.0051,-4.0156,-4.0281,-4.0424,-4.0581,-4.0836,-4.1005,-4.1042,-4.1243,-4.1277,-4.1022,-4.055,-3.9886,-3.9282,-3.8739,-3.8319,-3.8185,-3.8084,-3.81,-3.8214,-3.8355,-3.8539,-3.8805,-3.892,-3.8968,-3.8918,-3.8136,-3.7652,-3.7465,-3.7014,-3.677,-3.6867,-3.6967,-3.694,-3.6763,-3.6723,-3.6584,-3.6298,-3.5865,-3.5435,-3.5371,-3.5406,-3.5452,-3.5514,-3.5554,-3.5622,-3.5684,-3.5751,-3.5773,-3.5734,-3.5711,-3.5751,-3.5728,-3.5667,-3.5689,-3.5751,-3.5834,-3.5861,-3.5861,-3.5932,-3.6084,-3.6187,-3.6451,-3.6776,-3.7127,-3.7411,-3.7559,-3.7792,-3.7966,-3.8119,-3.8271,-3.835,-3.8415,-3.8449,-3.851,-3.8569,-3.8661,-3.8796,-3.8913,-3.8938,-3.859,-3.8396,-3.796,-3.7412,-3.6814,-3.6311,-3.6126,-3.5925,-3.5617,-3.5534,-3.5645,-3.6098,-3.6551,-3.7253,-3.9388,-3.9388,-3.9388,-3.946,-3.9517,-3.9517,-3.9568,-3.964,-3.964,-3.964,-3.964,-3.964,-3.9655,-3.964,-3.9625,-3.964,-3.964,-3.964,-3.964,-3.964,-3.964,-3.964,-3.9696,-3.9839,-3.995,-4.0056,-4.0211,-4.0331,-4.0385,-4.0389,-4.0397,-4.0231,-3.9752,-3.9471,-3.8947,-3.8152,-3.763,-3.7431,-3.7326,-3.7371,-3.7535,-3.7666,-3.7841,-3.8119,-3.8258,-3.8315,-3.825,-3.7959,-3.7762,-3.7548,-3.719,-3.7062,-3.7014,-3.717,-3.7061,-3.6836,-3.6788,-3.661,-3.6351,-3.6025,-3.5935,-3.5486,-3.534,-3.5168,-3.5232,-3.5274,-3.5344,-3.5389,-3.5435,-3.5412,-3.5452,-3.5458,-3.5475,-3.5429,-3.5429,-3.5412,-3.5458,-3.5543,-3.5588,-3.5616,-3.5689,-3.58,-3.5883,-3.5971,-3.6318,-3.6652,-3.6915,-3.7169,-3.7394,-3.7595,-3.7739,-3.7879,-3.8,-3.8101,-3.8135,-3.8185,-3.8251,-3.8332,-3.843,-3.8541,-3.8646,-3.8865,-3.8613,-3.8218,-3.786,-3.7376,-3.696,-3.6658,-3.632,-3.5943,-3.5739,-3.5681,-3.6279,-3.7088,-3.7909,-3.9388,-3.9388,-3.9388,-3.9388,-3.9388,-3.9388,-3.9388,-3.9388,-3.9424,-3.9388,-3.9388,-3.9388,-3.9388,-3.9388,-3.9424,-3.9424,-3.9424,-3.9424,-3.9424,-3.9424,-3.9424,-3.9388,-3.946,-3.9517,-3.9661,-3.9661,-3.9732,-3.9854,-3.9854,-3.9818,-3.9844,-3.961,-3.8996,-3.8683,-3.8542,-3.7639,-3.6846,-3.6723,-3.6677,-3.6708,-3.6906,-3.6982,-3.7178,-3.7359,-3.7476,-3.7535,-3.7506,-3.7383,-3.731,-3.7221,-3.7114,-3.7161,-3.7268,-3.7326,-3.7164,-3.6938,-3.6698,-3.6476,-3.6241,-3.6038,-3.6029,-3.5411,-3.5202,-3.5004,-3.4894,-3.4899,-3.497,-3.5018,-3.5041,-3.5041,-3.5065,-3.5065,-3.5088,-3.5065,-3.5158,-3.5158,-3.5182,-3.5228,-3.5314,-3.5344,-3.5435,-3.5503,-3.5571,-3.5678,-3.5949,-3.6255,-3.6509,-3.6753,-3.6933,-3.7147,-3.7301,-3.745,-3.7578,-3.7703,-3.7809,-3.7756,-3.7738,-3.7843,-3.7965,-3.8136,-3.8302,-3.8541,-3.8688,-3.8335,-3.8049,-3.7862,-3.7586,-3.7251,-3.6728,-3.6195,-3.622,-3.6385,-3.6954,-3.779,-3.8459,-3.9388,-3.9388,-3.9388,-3.9388,-3.9388,-3.9388,-3.9388,-3.9388,-3.9388,-3.9388,-3.9388,-3.9388,-3.9388,-3.9388,-3.9388,-3.9388,-3.9388,-3.9388,-3.9388,-3.9388,-3.9388,-3.9388,-3.9388,-3.9424,-3.946,-3.9424,-3.9496,-3.9532,-3.9475,-3.9532,-3.9496,-3.9107,-3.843,-3.7709,-3.8045,-3.69,-3.6273,-3.6196,-3.6085,-3.6148,-3.6258,-3.6321,-3.6523,-3.6708,-3.68,-3.6831,-3.68,-3.68,-3.6754,-3.6662,-3.6631,-3.6616,-3.6631,-3.6723,-3.6707,-3.6661,-3.6645,-3.6599,-3.6583,-3.6045,-3.5605,-3.5193,-3.5035,-3.4764,-3.4471,-3.4431,-3.4489,-3.4497,-3.4497,-3.4505,-3.457,-3.4618,-3.4659,-3.4683,-3.4739,-3.4804,-3.4804,-3.4899,-3.493,-3.5018,-3.5105,-3.5175,-3.5245,-3.5383,-3.5656,-3.5905,-3.6122,-3.6335,-3.6506,-3.669,-3.6876,-3.6976,-3.7131,-3.7226,-3.7301,-3.7246,-3.7246,-3.7358,-3.7505,-3.765,-3.7844,-3.8068,-3.818,-3.8237,-3.8239,-3.8062,-3.7965,-3.7811,-3.7503,-3.7276,-3.7262,-3.746,-3.7972,-3.8389,-3.8953,-3.9388,-3.9388,-3.9388,-3.9388,-3.9388,-3.9388,-3.9388,-3.9388,-3.9388,-3.9388,-3.9388,-3.9388,-3.9388,-3.9388,-3.9388,-3.9388,-3.9388,-3.9388,-3.9388,-3.9388,-3.9388,-3.9388,-3.9388,-3.9337,-3.9388,-3.9388,-3.9388,-3.9388,-3.9424,-3.9352,-3.9388,-3.9044,-3.7998,-3.7072,-3.6532,-3.592,-3.5831,-3.5733,-3.5716,-3.5733,-3.5847,-3.5879,-3.599,-3.6211,-3.6258,-3.6258,-3.6242,-3.6258,-3.6226,-3.6178,-3.6163,-3.6163,-3.6163,-3.6258,-3.6226,-3.6226,-3.6258,-3.6226,-3.6227,-3.5952,-3.5746,-3.5321,-3.483,-3.4514,-3.4234,-3.3954,-3.3928,-3.3924,-3.3908,-3.3908,-3.3975,-3.4,-3.4025,-3.405,-3.4101,-3.4176,-3.4226,-3.4423,-3.4521,-3.4594,-3.4667,-3.4828,-3.4947,-3.4947,-3.5165,-3.5367,-3.5554,-3.5866,-3.6105,-3.6255,-3.6444,-3.653,-3.6652,-3.6753,-3.6776,-3.6779,-3.6838,-3.6956,-3.7073,-3.717,-3.7377,-3.7596,-3.7739,-3.7824,-3.8079,-3.8273,-3.8151,-3.8136,-3.8525,-3.8546,-3.8158,-3.8127,-3.8518,-3.8847,-3.9229,-3.9177,-3.9177,-3.9177,-3.9177,-3.9228,-3.9352,-3.9388,-3.9316,-3.9301,-3.9265,-3.9192,-3.9192,-3.9192,-3.9192,-3.9192,-3.9192,-3.9177,-3.9192,-3.9177,-3.9177,-3.9192,-3.9156,-3.9177,-3.9177,-3.9141,-3.9192,-3.9192,-3.9192,-3.9156,-3.9192,-3.8916,-3.8335,-3.7714,-3.6724,-3.5986,-3.5634,-3.5589,-3.5554,-3.5554,-3.5587,-3.5621,-3.5653,-3.5686,-3.5797,-3.5829,-3.5829,-3.5829,-3.5829,-3.5829,-3.5829,-3.5829,-3.5844,-3.5829,-3.5829,-3.5829,-3.5829,-3.5829,-3.5829,-3.5831,-3.5831,-3.5642,-3.5492,-3.4764,-3.4281,-3.4013,-3.3677,-3.3397,-3.3335,-3.3309,-3.3277,-3.3261,-3.3288,-3.334,-3.3366,-3.3445,-3.3523,-3.3626,-3.379,-3.3933,-3.4034,-3.4134,-3.4333,-3.4546,-3.4594,-3.4667,-3.4811,-3.4954,-3.5304,-3.5622,-3.58,-3.5932,-3.6041,-3.6148,-3.6237,-3.6322,-3.6346,-3.6447,-3.6571,-3.6635,-3.6698,-3.6915,-3.7129,-3.7281,-3.7449,-3.7667,-3.7912,-3.8216,-3.84,-3.8531,-3.8595,-3.8462,-3.8592,-3.9018,-3.9287,-3.9509,-3.8782,-3.8797,-3.8745,-3.8745,-3.8819,-3.9068,-3.9156,-3.9068,-3.9068,-3.8958,-3.8782,-3.876,-3.876,-3.876,-3.876,-3.8745,-3.8782,-3.8797,-3.8782,-3.8782,-3.8797,-3.8797,-3.8797,-3.876,-3.8723,-3.8745,-3.8745,-3.8723,-3.876,-3.8797,-3.8243,-3.7449,-3.7173,-3.6338,-3.571,-3.5392,-3.5409,-3.5457,-3.5457,-3.5457,-3.5489,-3.5442,-3.5457,-3.5457,-3.5442,-3.5489,-3.5457,-3.5442,-3.5457,-3.5472,-3.5472,-3.5472,-3.5472,-3.5457,-3.5457,-3.5457,-3.5472,-3.5472,-3.5457,-3.5489,-3.5474,-3.5381,-3.5212,-3.4485,-3.3925,-3.3547,-3.3169,-3.2872,-3.2729,-3.257,-3.248,-3.2547,-3.2656,-3.2711,-3.2776,-3.2873,-3.2969,-3.3102,-3.3235,-3.334,-3.3445,-3.3626,-3.3857,-3.3958,-3.4059,-3.4201,-3.4325,-3.4521,-3.4866,-3.5264,-3.5402,-3.5487,-3.5622,-3.5751,-3.58,-3.5871,-3.598,-3.6088,-3.6148,-3.6216,-3.6426,-3.6632,-3.6776,-3.6976,-3.7207,-3.7487,-3.7756,-3.8033,-3.8263,-3.8297,-3.8372,-3.8742,-3.9063,-3.946,-3.9716,-3.815,-3.815,-3.8,-3.7947,-3.7947,-3.8075,-3.8315,-3.8627,-3.8664,-3.8516,-3.815,-3.815,-3.8113,-3.815,-3.815,-3.8211,-3.83,-3.8389,-3.8389,-3.8352,-3.8315,-3.8352,-3.8315,-3.8225,-3.8188,-3.815,-3.8136,-3.8098,-3.8202,-3.8263,-3.7682,-3.6733,-3.6635,-3.5962,-3.5358,-3.5016,-3.5213,-3.5311,-3.5279,-3.5261,-3.5228,-3.5148,-3.5115,-3.5082,-3.5067,-3.5082,-3.5082,-3.5067,-3.5082,-3.5082,-3.5067,-3.5067,-3.5082,-3.5067,-3.5067,-3.5067,-3.5067,-3.5082,-3.5082,-3.5067,-3.5067,-3.5082,-3.5008,-3.4863,-3.4241,-3.3651,-3.3116,-3.2676,-3.2327,-3.222,-3.2096,-3.212,-3.2176,-3.2231,-3.2287,-3.2398,-3.248,-3.2563,-3.2699,-3.2796,-3.2861,-3.3022,-3.3245,-3.3324,-3.3429,-3.3549,-3.3694,-3.3822,-3.4126,-3.4578,-3.4866,-3.4937,-3.5095,-3.5234,-3.5297,-3.535,-3.5464,-3.5577,-3.5644,-3.5734,-3.5932,-3.611,-3.6301,-3.6512,-3.6759,-3.7032,-3.7281,-3.7559,-3.7844,-3.8085,-3.8221,-3.8678,-3.9091,-3.9357,-3.9599,-3.7285,-3.7246,-3.713,-3.7092,-3.7092,-3.7092,-3.726,-3.7544,-3.7772,-3.7682,-3.7429,-3.7285,-3.7246,-3.7285,-3.7337,-3.7467,-3.7596,-3.7672,-3.7672,-3.7672,-3.7711,-3.7634,-3.7582,-3.7467,-3.7337,-3.7337,-3.7299,-3.7285,-3.7429,-3.752,-3.7066,-3.6064,-3.6086,-3.5447,-3.4782,-3.4539,-3.4673,-3.482,-3.4935,-3.4983,-3.4883,-3.4769,-3.4735,-3.4668,-3.4668,-3.4668,-3.4668,-3.4668,-3.4702,-3.4702,-3.4687,-3.4702,-3.4702,-3.4702,-3.4702,-3.4702,-3.4702,-3.4716,-3.4716,-3.4716,-3.4702,-3.4702,-3.4702,-3.4648,-3.4389,-3.3898,-3.3185,-3.2587,-3.2242,-3.1956,-3.1819,-3.171,-3.1754,-3.1811,-3.1896,-3.1953,-3.2038,-3.2107,-3.2191,-3.229,-3.2385,-3.252,-3.2629,-3.2711,-3.2792,-3.2915,-3.2996,-3.3102,-3.3471,-3.3942,-3.4243,-3.4407,-3.4554,-3.4699,-3.4763,-3.4851,-3.4977,-3.5118,-3.5211,-3.5327,-3.5458,-3.5594,-3.5739,-3.6006,-3.6305,-3.6553,-3.6776,-3.7091,-3.7394,-3.7649,-3.7845,-3.8115,-3.8483,-3.8847,-3.9087,-3.6175,-3.6189,-3.6136,-3.611,-3.6149,-3.611,-3.603,-3.5951,-3.6387,-3.6638,-3.6494,-3.6269,-3.6189,-3.6189,-3.6322,-3.6494,-3.6626,-3.6744,-3.6861,-3.6861,-3.6822,-3.673,-3.6652,-3.6547,-3.6322,-3.6229,-3.6229,-3.6308,-3.6573,-3.6618,-3.6284,-3.5328,-3.5294,-3.4753,-3.3927,-3.3859,-3.3899,-3.3982,-3.4133,-3.4264,-3.4399,-3.4366,-3.4312,-3.4264,-3.423,-3.423,-3.4264,-3.4298,-3.4312,-3.4298,-3.4298,-3.4278,-3.4264,-3.4249,-3.4264,-3.4264,-3.423,-3.423,-3.4196,-3.4196,-3.423,-3.4264,-3.4298,-3.4206,-3.3931,-3.383,-3.3227,-3.2725,-3.2416,-3.193,-3.1708,-3.1605,-3.1604,-3.1528,-3.1467,-3.1568,-3.1655,-3.1712,-3.1741,-3.1811,-3.191,-3.2035,-3.2132,-3.2244,-3.2385,-3.2413,-3.2468,-3.2508,-3.2738,-3.3272,-3.3559,-3.3781,-3.3933,-3.4084,-3.425,-3.4325,-3.4513,-3.4643,-3.4715,-3.4835,-3.493,-3.5048,-3.5165,-3.5447,-3.5744,-3.6023,-3.628,-3.6594,-3.6876,-3.7108,-3.73,-3.7468,-3.779,-3.8178,-3.8533,-3.506,-3.5073,-3.4909,-3.4827,-3.4881,-3.4868,-3.484,-3.4771,-3.4758,-3.51,-3.5386,-3.525,-3.5114,-3.5155,-3.5237,-3.5453,-3.571,-3.5817,-3.5871,-3.5911,-3.5911,-3.5831,-3.5669,-3.5453,-3.5237,-3.5114,-3.5155,-3.5372,-3.5669,-3.5654,-3.5338,-3.4437,-3.4372,-3.3928,-3.302,-3.2994,-3.303,-3.303,-3.3044,-3.3269,-3.3444,-3.3409,-3.3339,-3.3339,-3.3325,-3.3409,-3.3444,-3.3563,-3.3563,-3.3548,-3.3548,-3.3563,-3.3563,-3.3548,-3.3548,-3.3563,-3.3563,-3.3563,-3.3563,-3.3563,-3.3563,-3.3563,-3.3528,-3.3444,-3.3405,-3.3489,-3.3333,-3.2922,-3.2533,-3.198,-3.1605,-3.1537,-3.1512,-3.1308,-3.1117,-3.1205,-3.1293,-3.1293,-3.1293,-3.1366,-3.1467,-3.1567,-3.1667,-3.1796,-3.1953,-3.2038,-3.2094,-3.215,-3.2163,-3.2508,-3.2819,-3.3033,-3.3193,-3.3351,-3.3575,-3.3729,-3.3882,-3.4,-3.4084,-3.4209,-3.4374,-3.4521,-3.4626,-3.4859,-3.5125,-3.5385,-3.5677,-3.6049,-3.6308,-3.6553,-3.6794,-3.6976,-3.7092,-3.7396,-3.779,-3.4259,-3.4217,-3.4134,-3.4105,-3.4092,-3.4092,-3.4105,-3.4063,-3.3865,-3.3992,-3.4327,-3.4259,-3.4246,-3.4301,-3.4384,-3.4522,-3.4825,-3.4936,-3.5005,-3.5059,-3.5018,-3.4949,-3.4729,-3.4551,-3.4426,-3.4301,-3.4439,-3.4647,-3.4825,-3.4869,-3.4539,-3.3806,-3.3615,-3.3154,-3.229,-3.2195,-3.2078,-3.2042,-3.1932,-3.2042,-3.2345,-3.2309,-3.2367,-3.2403,-3.2439,-3.2511,-3.2596,-3.2704,-3.2775,-3.2775,-3.2739,-3.2775,-3.2775,-3.2775,-3.2775,-3.2775,-3.2775,-3.2775,-3.2775,-3.2775,-3.2775,-3.2775,-3.2668,-3.2561,-3.2475,-3.2507,-3.2484,-3.2134,-3.2302,-3.1853,-3.1607,-3.1461,-3.1654,-3.1652,-3.1295,-3.1139,-3.1041,-3.0925,-3.0925,-3.094,-3.1014,-3.1058,-3.1161,-3.1219,-3.138,-3.1511,-3.1597,-3.1668,-3.1697,-3.1768,-3.2064,-3.2342,-3.2508,-3.2699,-3.2915,-3.306,-3.3166,-3.3314,-3.3445,-3.3617,-3.3755,-3.3949,-3.4101,-3.4234,-3.4415,-3.4682,-3.5021,-3.5374,-3.5727,-3.5989,-3.6224,-3.6471,-3.6574,-3.6658,-3.6997,-3.3641,-3.3641,-3.3628,-3.3641,-3.3628,-3.3641,-3.3641,-3.3598,-3.3428,-3.3398,-3.3484,-3.3598,-3.3628,-3.3725,-3.3852,-3.3937,-3.4063,-3.4189,-3.4272,-3.4301,-3.4314,-3.423,-3.4118,-3.3992,-3.381,-3.3768,-3.3865,-3.3949,-3.4076,-3.4137,-3.3973,-3.3413,-3.2893,-3.2398,-3.1938,-3.1489,-3.1158,-3.1196,-3.1121,-3.096,-3.1073,-3.1272,-3.1482,-3.1542,-3.1542,-3.1666,-3.174,-3.185,-3.1946,-3.1946,-3.1946,-3.1982,-3.1982,-3.1982,-3.1982,-3.1982,-3.1982,-3.1982,-3.1982,-3.1982,-3.1982,-3.1909,-3.1776,-3.1703,-3.1653,-3.1592,-3.1541,-3.1594,-3.1734,-3.1785,-3.1511,-3.1427,-3.1665,-3.1695,-3.1293,-3.1022,-3.0801,-3.059,-3.0592,-3.0577,-3.0506,-3.0581,-3.0598,-3.0657,-3.0791,-3.0955,-3.1043,-3.1132,-3.1205,-3.1292,-3.1481,-3.171,-3.1866,-3.2064,-3.2315,-3.2453,-3.2617,-3.2726,-3.2888,-3.3011,-3.3145,-3.3261,-3.3377,-3.3455,-3.3672,-3.3977,-3.4341,-3.4714,-3.5028,-3.5374,-3.57,-3.5958,-3.6006,-3.6114,-3.622,-3.324,-3.3197,-3.3185,-3.3227,-3.3227,-3.324,-3.3197,-3.3197,-3.3197,-3.3154,-3.3197,-3.3197,-3.3197,-3.324,-3.324,-3.3368,-3.3611,-3.3654,-3.3725,-3.3797,-3.3725,-3.3611,-3.3526,-3.3526,-3.3283,-3.3326,-3.3368,-3.3398,-3.3569,-3.3586,-3.344,-3.3052,-3.2476,-3.195,-3.1383,-3.0932,-3.0583,-3.057,-3.0545,-3.0482,-3.0419,-3.0609,-3.0811,-3.0874,-3.0874,-3.1024,-3.1136,-3.1198,-3.1198,-3.1198,-3.1235,-3.1272,-3.1272,-3.1272,-3.1272,-3.131,-3.131,-3.1272,-3.1296,-3.1296,-3.1296,-3.1259,-3.1161,-3.1086,-3.1011,-3.0936,-3.0878,-3.0815,-3.0976,-3.1263,-3.114,-3.1216,-3.1364,-3.1163,-3.084,-3.0737,-3.0608,-3.0461,-3.0379,-3.0188,-2.9981,-2.9986,-2.9962,-3.0085,-3.0282,-3.0417,-3.0538,-3.0628,-3.0717,-3.0807,-3.0881,-3.1087,-3.1278,-3.1655,-3.1996,-3.201,-3.2135,-3.2219,-3.233,-3.2496,-3.2563,-3.2563,-3.2656,-3.2834,-3.3033,-3.3335,-3.3697,-3.4027,-3.4391,-3.473,-3.5165,-3.5435,-3.5487,-3.556,-3.5655]},{"header":{"parameterUnit":"m.s-1","parameterCategory":1,"la1":31.0,"la2":29.5877,"lo1":-88.7671,"lo2":-86.6584,"dy":0.0162,"dx":0.0185,"nx":115,"ny":88,"refTime":"2024-04-20T00:00:00:Z","depth":0,"parameterNumber":3,"parameterNumberName":"V-component_of_WINDS"},"data":[0.0,0.0,0.0,0.0,0.0,0.0,0.0,0.0,0.0,0.0,0.0,0.0,0.0,0.0,0.0,0.0,0.0,0.0,0.0,0.0,0.0,0.0,0.0,0.0,0.0,0.0,0.0,0.0,0.0,0.0,0.0,0.0,0.0,0.0,0.0,0.0,0.0,0.0,0.0,0.0,0.0,0.0,0.0,0.0,0.0,0.0,0.0,0.0,0.0,0.0,0.0,0.0,0.0,0.0,0.0,0.0,0.0,0.0,0.0,0.0,0.0,0.0,0.0,0.0,0.0,0.0,0.0,0.0,0.0,0.0,0.0,0.0,0.0,0.0,0.0,0.0,0.0,0.0,0.0,0.0,0.0,0.0,0.0,0.0,0.0,0.0,0.0,0.0,0.0,0.0,0.0,0.0,0.0,0.0,0.0,0.0,0.0,0.0,0.0,0.0,0.0,0.0,0.0,0.0,0.0,0.0,0.0,0.0,0.0,0.0,0.0,0.0,0.0,0.0,0.0,0.0,0.0,0.0,0.0,0.0,0.0,0.0,0.0,0.0,0.0,0.0,0.0,0.0,0.0,0.0,0.0,0.0,0.0,0.0,0.0,0.0,0.0,0.0,0.0,0.0,0.0,0.0,0.0,0.0,0.0,0.0,0.0,0.0,0.0,0.0,0.0,0.0,0.0,0.0,0.0,0.0,0.0,0.0,0.0,0.0,0.0,0.0,0.0,0.0,0.0,0.0,0.0,0.0,0.0,0.0,0.0,0.0,0.0,0.0,0.0,0.0,0.0,0.0,0.0,0.0,0.0,0.0,0.0,0.0,0.0,0.0,0.0,0.0,0.0,0.0,0.0,0.0,0.0,0.0,0.0,0.0,0.0,0.0,0.0,0.0,0.0,0.0,0.0,0.0,0.0,0.0,0.0,0.0,0.0,0.0,0.0,0.0,0.0,0.0,0.0,0.0,0.0,0.0,0.0,0.0,0.0,0.0,0.0,0.0,0.0,0.0,0.0,0.0,0.0,0.0,0.0,0.0,0.0,0.0,0.0,0.0,0.0,0.0,0.0,0.0,0.0,0.0,0.0,0.0,0.0,0.0,0.0,0.0,0.0,0.0,0.0,0.0,0.0,0.0,0.0,0.0,0.0,0.0,0.0,0.0,0.0,0.0,0.0,0.0,0.0,0.0,0.0,0.0,0.0,0.0,0.0,0.0,0.0,0.0,0.0,0.0,0.0,0.0,0.0,0.0,0.0,0.0,0.0,0.0,0.0,0.0,0.0,0.0,0.0,0.0,0.0,0.0,0.0,0.0,0.0,0.0,0.0,0.0,0.0,0.0,0.0,0.0,0.0,0.0,0.0,0.0,0.0,0.0,0.0,0.0,0.0,0.0,0.0,0.0,0.0,0.0,0.0,0.0,0.0,0.0,0.0,0.0,0.0,0.0,0.0,0.0,0.0,0.0,0.0,0.0,0.0,0.0,0.0,0.0,0.0,0.0,0.0,0.0,0.0,0.0,0.0,0.0,0.0,0.0,0.0,0.0,0.0,0.0,0.0,0.0,0.0,0.0,0.0,0.0,0.0,0.0,0.0,0.0,0.0,0.0,0.0,0.0,0.0,0.0,0.0,0.0,0.0,0.0,0.0,0.0,0.0,0.0,0.0,0.0,0.0,0.0,0.0,0.0,0.0,0.0,0.0,0.0,0.0,0.0,0.0,0.0,0.0,0.0,0.0,0.0,0.0,0.0,0.0,0.0,0.0,0.0,0.0,0.0,0.0,0.0,0.0,0.0,0.0,0.0,0.0,0.0,0.0,0.0,0.0,0.0,0.0,0.0,0.0,0.0,0.0,0.0,0.0,0.0,0.0,0.0,0.0,0.0,0.0,0.0,0.0,0.0,0.0,0.0,0.0,0.0,0.0,0.0,0.0,0.0,0.0,0.0,0.0,0.0,0.0,0.0,0.0,0.0,0.0,0.0,0.0,0.0,0.0,0.0,0.0,0.0,0.0,0.0,0.0,0.0,0.0,0.0,0.0,0.0,0.0,0.0,0.0,0.0,0.0,0.0,0.0,0.0,0.0,0.0,0.0,0.0,0.0,0.0,0.0,0.0,0.0,0.0,0.0,0.0,0.0,0.0,0.0,0.0,0.0,0.0,0.0,0.0,0.0,0.0,0.0,0.0,0.0,0.0,0.0,0.0,0.0,0.0,0.0,0.0,0.0,0.0,0.0,0.0,0.0,0.0,0.0,0.0,0.0,0.0,0.0,0.0,0.0,0.0,0.0,0.0,0.0,0.0,0.0,0.0,0.0,0.0,0.0,0.0,0.0,0.0,0.0,0.0,0.0,0.0,0.0,0.0,0.0,0.0,0.0,0.0,0.0,0.0,0.0,0.0,0.0,0.0,0.0,0.0,0.0,0.0,0.0,0.0,0.0,0.0,0.0,0.0,0.0,0.0,0.0,0.0,0.0,0.0,0.0,0.0,0.0,0.0,0.0,0.0,0.0,0.0,0.0,0.0,0.0,0.0,0.0,0.0,0.0,0.0,0.0,0.0,0.0,0.0,0.0,0.0,0.0,0.0,0.0,0.0,0.0,0.0,0.0,0.0,0.0,0.0,0.0,0.0,0.0,0.0,0.0,0.0,0.0,0.0,0.0,0.0,0.0,0.0,0.0,0.0,0.0,0.0,0.0,0.0,0.0,0.0,0.0,0.0,0.0,0.0,0.0,0.0,0.0,0.0,0.0,0.0,0.0,0.0,0.0,0.0,0.0,0.0,0.0,0.0,0.0,0.0,0.0,0.0,0.0,0.0,0.0,0.0,0.0,0.0,0.0,0.0,0.0,0.0,0.0,0.0,0.0,0.0,0.0,0.0,0.0,0.0,0.0,0.0,0.0,0.0,0.0,0.0,0.0,0.0,0.0,0.0,0.0,0.0,0.0,0.0,0.0,0.0,0.0,0.0,0.0,0.0,0.0,0.0,0.0,0.0,0.0,0.0,0.0,0.0,0.0,0.0,0.0,0.0,0.0,0.0,0.0,0.0,0.0,0.0,0.0,0.0,0.0,0.0,0.0,0.0,0.0,0.0,0.0,0.0,0.0,0.0,0.0,0.0,0.0,0.0,0.0,0.0,0.0,0.0,0.0,0.0,0.0,0.0,0.0,0.0,0.0,0.0,0.0,0.0,0.0,0.0,0.0,0.0,0.0,0.0,0.0,0.0,0.0,0.0,0.0,0.0,0.0,0.0,0.0,0.0,0.0,0.0,0.0,0.0,0.0,0.0,0.0,0.0,0.0,0.0,0.0,0.0,0.0,0.0,0.0,0.0,0.0,0.0,0.0,0.0,0.0,0.0,0.0,0.0,0.0,0.0,0.0,0.0,0.0,0.0,0.0,0.0,0.0,0.0,0.0,0.0,0.0,0.0,0.0,0.0,0.0,0.0,0.0,0.0,0.0,0.0,0.0,0.0,0.0,0.0,0.0,0.0,0.0,0.0,0.0,0.0,0.0,0.0,0.0,0.0,0.0,0.0,0.0,0.0,0.0,0.0,0.0,0.0,0.0,0.0,0.0,0.0,0.0,0.0,0.0,0.0,0.0,0.0,0.0,0.0,0.0,0.0,0.0,0.0,0.0,0.0,0.0,0.0,0.0,0.0,0.0,0.0,0.0,0.0,0.0,0.0,0.0,0.0,0.0,0.0,0.0,0.0,0.0,0.0,0.0,0.0,0.0,0.0,0.0,0.0,0.0,0.0,0.0,0.0,0.0,0.0,0.0,0.0,0.0,0.0,0.0,0.0,0.0,0.0,0.0,0.0,0.0,0.0,0.0,0.0,0.0,0.0,0.0,0.0,0.0,0.0,0.0,0.0,0.0,0.0,0.0,0.0,0.0,0.0,0.0,0.0,0.0,0.0,0.0,0.0,0.0,0.0,0.0,0.0,0.0,0.0,0.0,0.0,0.0,0.0,0.0,0.0,0.0,0.0,0.0,0.0,0.0,0.0,0.0,0.0,0.0,0.0,0.0,0.0,0.0,0.0,0.0,0.0,0.0,0.0,0.0,0.0,0.0,0.0,0.0,0.0,0.0,0.0,0.0,0.0,0.0,0.0,0.0,0.0,0.0,0.0,0.0,0.0,0.0,0.0,0.0,0.0,0.0,0.0,0.0,0.0,0.0,0.0,0.0,0.0,0.0,0.0,0.0,0.0,0.0,0.0,0.0,0.0,0.0,0.0,0.0,0.0,0.0,0.0,0.0,0.0,0.0,0.0,0.0,0.0,0.0,0.0,0.0,0.0,0.0719,0.0,0.0,0.0,0.0,0.0,0.0,0.0,0.0,0.0,0.0,0.0,0.0,0.0,0.0,0.0,0.0,0.0,0.0,0.0,0.0,0.0,0.0,0.0,0.0,0.0,0.0,0.0,0.0,0.0,0.0,0.0,0.0,0.0,0.0,0.0,0.0,0.0,0.0,0.0,0.0,0.0,0.0,0.0,0.0,0.0,0.0,0.0,0.0,0.0,0.0,0.0,0.0,0.0,0.0,0.0,0.0,0.0,0.0,0.0,0.0,0.0,0.0,0.0,0.0,0.0,0.0,0.0,0.0,0.0,0.0,0.0,0.0,0.0,0.0,0.0,0.0,0.0,0.0,0.0,0.0,0.0,0.0,0.0,0.0,0.0,0.0,0.0,0.0,0.0,0.0,0.0,0.0,0.0,0.0,0.0,0.0,0.0,0.0,0.0,0.0,0.0,0.0,0.0,0.0,0.0,0.0,0.0,0.0,0.0,0.0,0.0863,0.0742,0.0631,0.0519,0.0445,0.0,0.0,0.0,0.0,0.0,0.0,0.0,0.0,0.0,0.0,0.0,0.0,0.0,0.0,0.0,0.0,0.0,0.0,0.0,0.0,0.0,0.0,0.0,0.0,0.0,0.0,0.0,0.0,0.0,0.0,0.0,0.0,0.0,0.0,0.0,0.0,0.0,0.0,0.0,0.0,0.0,0.0,0.0,0.0,0.0,0.0,0.0,0.0,0.0,0.0,0.0,0.0,0.0,0.0,0.0,0.0,0.0,0.0,0.0,0.0,0.0,0.0,0.0,0.0,0.0,0.0,0.0,0.0,0.0,0.0,0.0,0.0,0.0,0.0,0.0,0.0,0.0,0.0,0.0,0.0,0.0,0.0,0.0,0.0,0.0,0.0,0.0,0.0,0.0,0.0,0.0,0.0,0.0,0.0,0.0,0.0,0.0,0.0,0.0,0.0,0.0,0.0,0.0,0.0,0.0,0.0,0.0,0.0,0.0,0.0,0.0,0.0,0.0325,0.0217,0.0219,0.0,0.0,0.0,0.0,0.0,0.0,0.0,0.0,0.0,0.0,0.0,0.0,0.0,0.0,0.0,0.0,0.0,0.0,0.0,0.0,0.0,0.0,0.0,0.0,0.0,0.0,0.0,0.0,0.0,0.0,0.0,0.0,0.0,0.0,0.0,0.0,0.0,0.0,0.0,0.0,0.0,0.0,0.0,0.0,0.0,0.0,0.0,0.0,0.0,0.0,0.0,0.0,0.0,0.0,0.0,0.0,0.0,0.0,0.0,0.0,0.0,0.0,0.0,0.0,0.0,0.0,0.0,0.0,0.0,0.0,0.0,0.0,0.0,0.0,0.0,0.0,0.0,0.0,0.0,0.0,0.0,0.0,0.0,0.0,0.0,0.0,0.0,0.0,0.0,0.0,0.0,0.0,0.0,0.0,0.0,0.0,0.0,0.0,0.0,0.0,0.0,0.0,0.0,0.0,0.0,0.0,0.0,0.0,0.0,0.0,0.0036,0.0071,0.0,0.0,0.0,0.0,0.0,0.0,0.0,0.0,0.0,0.0,0.0,0.0,0.0,0.0,0.0,0.0,0.0,0.0,0.0,0.0,0.0,0.0,0.0,0.0,0.0,0.0,0.0,0.0,0.0,0.0,0.0,0.0,0.0,0.0,0.0,0.0,0.0,0.0,0.0,0.0,0.0,0.0,0.0,0.0,0.0,0.0,0.0,0.0,0.0,0.0,0.0,0.0,0.0,0.0,0.0,0.0,0.0,0.0,0.0,0.0,0.0,0.0,0.0,0.0,0.0,0.0,0.0,0.0,0.0,0.0,0.0,0.0,0.0,0.0,0.0,0.0,0.0,0.0,0.0,0.0,0.0,0.0,0.0,0.0,0.0,0.0,0.0,0.0,0.0,0.0,0.0,0.0,0.0,0.0,0.0,0.0,0.0,0.0,0.0,0.0,0.0,0.0,0.0,0.0,0.0,0.0,0.0,0.0,0.0,0.0,0.0,0.0,0.0,0.0,0.0,0.0,0.0,0.0,0.0,0.0,0.0,0.0,0.0,0.0,0.0,0.0,0.0,0.0,0.0,0.0,0.0,0.0,0.0,0.0,0.0,0.0,0.0,0.0,0.0,0.0,0.0,0.0,0.0,0.0,0.0,0.0,0.0,0.0,0.0,0.0,0.0,0.0,0.0,0.0,0.0,0.0,0.0,0.0,0.0,0.0,0.0,0.0,0.0,0.0,0.0,0.0,0.0,0.0,0.0,0.0,0.0,0.0,0.0,0.0,0.0,0.0,0.0,0.0,0.0,0.0,0.0,0.0,0.0,0.0,0.0,0.0,0.0,0.0,0.0,0.0,0.0,0.0,0.0,0.0,0.0,0.0,0.0,0.0,0.0,0.0,0.0,0.0,0.0,0.0,0.0,0.0,0.0,0.0,0.0,0.0,0.0,0.0,0.0,0.0,0.0,0.0,0.0,0.0,0.0,0.0,0.0,0.0,0.0,0.0,0.0,0.0,0.0,0.0,0.0,0.0,0.0,0.0,0.0,0.0,0.0,0.0,0.0,0.0,0.0,0.0,0.0,0.0,0.0,0.0,0.0,0.0,0.0,0.0,0.0,0.0,0.0,0.0,0.0,0.0,0.0,0.0,0.0,0.0,0.0,0.0,0.0,0.0,0.0,0.0,0.0,0.0,0.0,0.0,0.0,0.0,0.0,0.0,0.0,0.0,0.0,0.0,0.0,0.0,0.0,0.0,0.0,0.0,0.0,0.0,0.0,0.0,0.0,0.0,0.0,0.0,0.0,0.0,0.0,0.0,0.0,0.0,0.0,0.0,0.0,0.0,0.0,0.0,0.0,0.0,0.0,0.0,0.0,0.0,0.0,0.0,0.0,0.0,0.0,0.0,0.0,0.0,0.0,0.0,0.0,0.0,0.0,0.0,0.0,0.0,0.0,0.0,0.0,0.0,0.0,0.0,0.0,0.0,0.0,0.0,0.0,0.0,0.0,0.0,0.0,0.0,0.0,0.0,0.0,0.0,0.0,0.0,0.0,0.0,0.0,0.0,0.0,0.0,0.0,0.0,0.0,0.0,0.0,0.0,0.0,0.0,0.0,0.0,0.0,0.0,0.0,0.0,0.0,0.0,0.0,0.0,0.0,0.0,0.0,0.0,0.0,0.0,0.0,0.0,0.0,0.0,0.0,0.0,0.0,0.0,0.0,0.0,0.0,0.0,0.0,0.0,0.0,0.0,0.0,0.0,0.0,0.0,0.0,0.0,0.0,0.0,0.0,0.0,0.0,0.0,0.0,0.0,0.0,0.0,0.0,0.0,0.0,0.0,0.0,0.0,0.0,0.0,0.0,0.0,0.0,0.0,0.0,0.0,0.0,0.0,0.0,0.0,0.0,0.0,0.0,0.0,0.0,0.0,0.0,0.0,0.0,0.0,0.0,0.0,0.0,0.0,0.0,0.0,0.0,0.0,0.0,0.0,0.0,0.0,0.0,0.0,0.0,0.0,0.0,0.0,0.0,0.0,0.0,0.0,0.0,0.0,0.0,0.0,0.0,0.0,0.0,0.0,0.0,0.0,0.0,0.0,0.0,0.0,0.0,0.0,0.0,0.0,0.0,0.0,0.0,0.0,0.0,0.0,0.0,0.0,0.0,0.0,0.0,0.0,0.0,0.0,0.0,0.0,0.0,0.0,0.0,0.0,0.0,0.0,0.0,0.0,0.0,0.0,0.0,0.0,0.0,0.0,0.0,0.0,0.0,0.0,0.0,0.0,0.0,0.0,0.0,0.0,0.0,0.0,0.0,0.0,0.0,0.0,0.0,0.0,0.0,0.0,0.0,0.0,0.0,0.0,0.0,0.0,0.0,0.0,0.0,0.0,0.0,0.0,0.0,0.0,0.0,0.0,0.0,0.0,0.0,0.0,0.0,0.0,0.0,0.0,0.0,0.0,0.0,0.0,0.0,0.0,0.0,0.0,0.0,0.0,0.0,0.0,0.0,0.0,0.0,0.0,0.0,0.0,0.0,0.0,0.0,0.0,0.0,0.0,0.0,0.0,0.0,0.0,0.0,0.0,0.0,0.0,0.0,0.0,0.0,0.0,0.0,0.0,0.0,0.0,0.0,0.0,0.0,0.0,0.0,0.0,0.0,0.0,0.0,0.0,0.0,0.0,0.0,0.0,0.0,0.0,0.0,0.0,0.0,0.0,0.0,0.0,0.0,0.0,0.0,0.0,0.0,0.0,0.0,0.0,0.0,0.0,0.0,0.0,0.0,0.0,0.0,0.0,0.0,0.0,0.0,0.0,0.0,0.0,0.0,0.0,0.0,0.0,0.0,0.0,0.0,0.0,0.0,0.0,0.0,0.0,0.0,0.0,0.0,0.0,0.0,0.0,0.0,0.0,0.0,0.0,0.0,0.0,0.0,0.0,0.0,0.0,0.0,0.0,0.0,0.0,0.0,0.0,0.0,0.0,0.0,0.0,0.0,0.0,0.0,0.0,0.0,0.0,0.0,0.0,0.0,0.0,0.0,0.0,0.0,0.0,0.0,0.0,0.0,0.0,0.0,0.0,0.0,0.0,0.0,0.0,0.0,0.0,0.0,0.0,0.0,0.0,0.0,0.0,0.0,0.0,0.0,0.0,0.0,0.0,0.0,0.0,0.0,0.0,0.0,0.0,0.0,0.0,0.0,0.0,0.0,0.0,0.0,0.0,0.0,0.0,0.0,0.0,0.0,0.0,0.0,0.0,0.0,0.0,0.0,0.0,0.0,0.0,0.0,0.0,0.0,0.0,0.0,0.0,0.0,0.0,0.0,0.0,0.0,0.0,0.0,0.0,0.0,0.0,0.0,0.0,0.0,0.0,0.0,0.0,0.0,0.0,0.0,0.0,0.0,0.0,0.0,0.0,0.0,0.0,0.0,0.0,0.0,0.0,0.0,0.0,0.0,0.0,0.0,0.0,0.0,0.0,0.0,0.0,0.0,0.0,0.0,0.0,0.0,0.0,0.0,0.0,0.0,0.0,0.0,0.0,0.0,0.0,0.0,0.0,0.0,0.0,0.0,0.0,0.0,0.0,0.0,0.0,0.0,0.0,0.0,0.0,0.0,0.0,0.0,0.0,0.0,0.0,0.0,0.0,0.0,0.0,0.0,0.0,0.0,0.0,0.0,0.0,0.0,0.0,0.0,0.0,0.0,0.0,0.0,0.0,0.0,0.0,0.0,0.0,0.0,0.0,0.0,0.0,0.0,0.0,0.0,0.0,0.0,0.0,0.0,0.0,0.0,0.0,0.0,0.0,0.0,0.0,0.0,0.0,0.0,0.0,0.0,0.0,0.0,0.0,0.0,0.0,0.0,0.0,0.0,0.0,0.0,0.0,0.0,0.0,0.0,0.0,0.0,0.0,0.0,0.0,0.0,0.0,0.0,0.0,0.0,0.0,0.0,0.0,0.0,0.0,0.0,0.0,0.0,0.0,0.0,0.0,0.0,0.0,0.0,0.0,0.0,0.0,0.0,0.0,0.0,0.0,0.0,0.0,0.0,0.0,0.0,0.0,0.0,0.0,0.0,0.0,0.0,0.0,0.0,0.0,0.0,0.0,0.0,0.0,0.0,0.0,0.0,0.0,0.0,0.0,0.0,0.0,0.0,0.0,0.0,0.0,0.0,0.0,0.0,0.0,0.0,0.0,0.0,0.0,0.0,0.0,0.0,0.0,0.0,0.0,0.0,0.0,0.0,0.0,0.0,0.0,0.0,0.0,0.0,0.0,0.0,0.0,0.0,0.0,0.0,0.0,0.0,0.0,0.0,0.0,0.0,0.0,0.0,0.0,0.0,0.0,0.0,0.0,0.0,0.0,0.0,0.0,0.0,0.0,0.0,0.0,0.0,0.0,0.0,0.0,0.0,0.0,0.0,0.0,0.0,0.0,0.0,0.0,0.0,0.0,0.0,0.0,0.0,0.0,0.0,0.0,0.0,0.0,0.0,0.0,0.0,0.0,0.0,0.0,0.0,0.0,0.0,0.0,0.0,0.0,0.0,0.0,0.0,0.0,0.0,0.0,0.0,0.0,0.0,0.0,0.0,0.0,0.0,0.0,0.0,0.0,0.0,0.0,0.0,0.0,0.0,0.0,0.0,0.0,0.0,0.0,0.0,0.0,0.0,0.0,0.0,0.0,0.0,0.0,0.0,0.0,0.0,0.0,0.0,0.0,0.0,0.0,0.0,0.0,0.0,0.0,0.0,0.0,0.0,0.0,0.0,0.0,0.0,0.0,0.0,0.0,0.0,0.0,0.0,0.0,0.0,0.0,0.0,0.0,0.0,0.0,0.0,0.0,0.0,0.0,0.0,0.0,0.0,0.0,0.0,0.0,0.0,0.0,0.0,0.0,0.0,0.0,0.0,0.0,0.0,0.0,0.0,0.0,0.0,0.0,0.0,0.0,0.0,0.0,0.0,0.0,0.0,0.0,0.0,0.0,0.0,0.0,0.0,0.0,0.0,0.0,0.0,0.0,0.0,0.0,0.0,0.0,0.0,0.0,0.0,0.0,0.0,0.0,0.0,0.0,0.0,0.0,0.0,0.0,0.0,0.0,0.0,0.0,0.0,0.0,0.0,0.0,0.0,0.0,0.0,0.0,0.0,0.0,0.0,0.0,0.0,0.0,0.0,0.0,0.0,0.0,0.0,0.0,0.0,0.0,0.0,0.0,0.0,0.0,0.0,0.0,0.0,0.0,0.0,0.0,0.0,0.0,0.0,0.0,0.0,0.0,0.0,0.0,0.0,0.0,0.0,0.0,0.0,0.0,0.0,0.0,0.0,0.0,0.0,0.0,0.0,0.0,0.0,0.0,0.0,0.0,0.0,0.0,0.0,0.0,0.0,0.0,0.0,0.0,0.0,0.0,0.0,0.0,0.0,0.0,0.0,0.0,0.0,0.0,0.0,0.0,0.0,0.0,0.0,0.0,0.0,0.0,0.0,0.0,0.0,0.0,0.0,0.0,0.0,0.0,0.0,0.0,0.0,0.0,0.0,0.0,0.0,0.0,0.0,0.0,0.0,0.0,0.0,0.0,0.0,0.0,0.0,0.0,0.0,0.0,0.0,0.0,0.0,0.0,0.0,0.0,0.0,0.0,0.0,0.0,0.0,0.0,0.0,0.0,0.0,0.0,0.0,0.0,0.0,0.0,0.0,0.0,0.0,0.0,0.0,0.0,0.0,0.0,0.0,0.0,0.0,0.0,0.0,0.0,0.0,0.0,0.0,0.0,0.0,0.0,0.0,0.0,0.0,0.0,0.0,0.0,0.0,0.0,0.0,0.0,0.0,0.0,0.0,0.0,0.0,0.0,0.0,0.0,0.0,0.0,0.0,0.0,0.0,0.0,0.0,0.0,0.0,0.0,0.0,0.0,0.0,0.0,0.0,0.0,0.0,0.0,0.0,0.0,0.0,0.0,0.0,0.0,0.0,0.0,0.0,0.0,0.0,0.0,0.0,0.0,0.0,0.0,0.0,0.0,0.0,0.0,0.0,0.0,0.0,0.0,0.0,0.0,0.0,0.0,0.0,0.0,0.0,0.0,0.0,0.0,0.0,0.0,0.0,0.0,0.0,0.0,0.0,0.0,0.0,0.0,0.0,0.0,0.0,0.0,0.0,0.0,0.0,0.0,0.0,0.0,0.0,0.0,0.0,0.0,0.0,0.0,0.0,0.0,0.0,0.0,0.0,0.0,0.0,0.0,0.0,0.0,0.0,0.0,0.0,0.0,0.0,0.0,0.0,0.0,0.0,0.0,0.0,0.0,0.0,0.0,0.0,0.0,0.0,0.0,0.0,0.0,0.0,0.0,0.0,0.0,0.0,0.0,0.0,0.0,0.0,0.0,0.0,0.0,0.0,0.0,0.0,0.0,0.0,0.0,0.0,0.0,0.0,0.0,0.0,0.0,0.0,0.0,0.0,0.0,0.0,0.0,0.0,0.0,0.0,0.0,0.0,0.0,0.0,0.0,0.0,0.0,0.0,0.0,0.0,0.0,0.0,0.0,0.0,0.0,0.0,0.0,0.0,0.0,0.0,0.0,0.0,0.0,0.0,0.0,0.0,0.0,0.0,0.0,0.0,0.0,0.0,0.0,0.0,0.0,0.0,0.0,0.0,0.0,0.0,0.0,0.0,0.0,0.0,0.0,0.0,0.0,0.0,0.0,0.0,0.0,0.0,0.0,0.0,0.0,0.0,0.0,0.0,0.0,0.0,0.0,0.0,0.0,0.0,0.0,0.0,0.0,0.0,0.0,0.0,0.0,0.0,0.0,0.0,0.0,0.0,0.0,0.0,0.0,0.0,0.0,0.0,0.0,0.0,-0.5354,0.0,0.0,0.0,0.0,0.0,0.0,0.0,0.0,0.0,0.0,0.0,0.0,0.0,0.0,0.0,0.0,0.0,0.0,0.0,0.0,0.0,0.0,0.0,0.0,0.0,0.0,0.0,0.0,0.0,0.0,0.0,0.0,0.0,0.0,0.0,0.0,0.0,0.0,0.0,0.0,0.0,0.0,0.0,0.0,0.0,0.0,0.0,0.0,0.0,0.0,0.0,0.0,0.0,0.0,0.0,0.0,0.0,0.0,0.0,0.0,0.0,0.0,0.0,0.0,0.0,0.0,0.0,0.0,0.0,0.0,0.0,0.0,0.0,0.0,0.0,0.0,0.0,0.0,0.0,0.0,0.0,0.0,0.0,0.0,0.0,0.0,0.0,0.0,0.0,0.0,0.0,0.0,0.0,0.0,0.0,0.0,0.0,0.0,0.0,0.0,0.0,0.0,0.0,0.0,0.0,0.0,0.0,0.0,0.0,0.0,0.0,0.0,0.0,0.0,0.0,0.0,0.0,0.0,0.0,0.0,0.0,0.0,0.0,0.0,0.0,0.0,0.0,0.0,0.0,0.0,0.0,0.0,0.0,0.0,0.0,0.0,0.0,0.0,0.0,0.0,0.0,0.0,0.0,0.0,0.0,0.0,0.0,0.0,0.0,0.0,0.0,0.0,0.0,0.0,0.0,0.0,0.0,0.0,0.0,0.0,0.0,0.0,0.0,0.0,0.0,0.0,0.0,0.0,0.0,0.0,0.0,0.0,0.0,0.0,0.0,0.0,0.0,0.0,0.0,0.0,0.0,0.0,0.0,0.0,0.0,0.0,0.0,0.0,0.0,0.0,0.0,0.0,0.0,0.0,0.0,0.0,0.0,0.0,0.0,0.0,0.0,0.0,0.0,0.0,0.0,0.0,0.0,0.0,0.0,0.0,0.0,0.0,0.0,0.0,0.0,0.0,0.0,0.0,0.0,0.0,0.0,-0.0344,0.0,0.0,0.0,0.0,0.0,0.0,0.0,0.0,-0.6277,0.0,0.0,0.0,0.0,0.0,0.0,0.0,0.0,0.0,0.0,0.0,0.0,0.0,0.0,0.0,0.0,0.0,0.0,0.0,0.0,0.0,0.0,0.0,0.0,0.0,0.0,0.0,0.0,0.0,0.0,0.0,0.0,0.0,0.0,0.0,0.0,0.0,0.0,0.0,0.0,0.0,0.0,0.0,0.0,0.0,0.0,0.0,0.0,0.0,0.0,0.0,0.0,0.0,0.0,0.0,0.0,0.0,0.0,0.0,0.0,0.0,0.0,0.0,0.0,0.0,0.0,0.0,0.0,0.0,0.0,0.0,0.0,0.0,0.0,0.0,0.0,0.0,0.0,0.0,0.0,0.0,0.0,0.0,0.0,0.0,0.0,0.0,0.0,0.0,0.0,0.0,0.0,0.0,0.0,0.0,0.0,0.0,0.0,0.0,0.0,0.0,0.0,0.0,0.0,0.0,-0.0388,-0.0804,0.0,0.0,0.0,0.0,0.0,0.0,0.0,0.0,-0.693,0.0,0.0,0.0,0.0,0.0,0.0,0.0,0.0,0.0,0.0,0.0,0.0,0.0,0.0,0.0,0.0,0.0,0.0,0.0,0.0,0.0,0.0,0.0,0.0,0.0,0.0,0.0,0.0,0.0,0.0,0.0,0.0,0.0,0.0,0.0,0.0,0.0,0.0,0.0,0.0,0.0,0.0,0.0,0.0,0.0,0.0,0.0,0.0,0.0,0.0,0.0,0.0,0.0,0.0,0.0,0.0,0.0,0.0,0.0,0.0,0.0,0.0,0.0,0.0,0.0,0.0,0.0,0.0,0.0,0.0,0.0,0.0,0.0,0.0,0.0,0.0,0.0,0.0,0.0,0.0,0.0,0.0,0.0,0.0,0.0,0.0,0.0,0.0,0.0,0.0,0.0,0.0,0.0,0.0,0.0,0.0,0.0,0.0,0.0,0.0,0.0,0.0,0.0,0.0,-0.0545,-0.1013,-0.1441,0.0,0.0,0.0,0.0,0.0,0.0,-0.6817,-0.7037,0.0,0.0,0.0,0.0,0.0,0.0,0.0,0.0,0.0,0.0,0.0,0.0,0.0,0.0,0.0,0.0,0.0,0.0,0.0,0.0,0.0,0.0,0.0,0.0,0.0,0.0,0.0,0.0,0.0,0.0,0.0,0.0,0.0,0.0,0.0,0.0,0.0,0.0,0.0,0.0,0.0,0.0,0.0,0.0,0.0,0.0,0.0,0.0,0.0,0.0,0.0,0.0,0.0,0.0,0.0,0.0,0.0,0.0,0.0,0.0,0.0,0.0,0.0,0.0,0.0,0.0,0.0,0.0,0.0,0.0,0.0,0.0,0.0,0.0,0.0,0.0,0.0,0.0,0.0,0.0,0.0,0.0,0.0,0.0,0.0,0.0,0.0,0.0,0.0,0.0,0.0,0.0,0.0,0.0,0.0,0.0,0.0,0.0,0.0,0.0,0.0,0.0,0.0,0.0,0.0,-0.1261,-0.1706,-0.2444,0.0,0.0,0.0,0.0,-0.6405,-0.6817,0.0,0.0,0.0,0.0,0.0,0.0,0.0,0.0,0.0,0.0,0.0,0.0,0.0,0.0,0.0,0.0,0.0,0.0,0.0,0.0,0.0,0.0,0.0,0.0,0.0,0.0,0.0,0.0,0.0,0.0,0.0,0.0,0.0,0.0,0.0,0.0,0.0,0.0,0.0,0.0,0.0,0.0,0.0,0.0,0.0,0.0,0.0,0.0,0.0,0.0,0.0,0.0,0.0,0.0,0.0,0.0,0.0,0.0,0.0,0.0,0.0,0.0,0.0,0.0,0.0,0.0,0.0,0.0,0.0,0.0,0.0,0.0,0.0,0.0,0.0,0.0,0.0,0.0,0.0,0.0,0.0,0.0,0.0,0.0,0.0,0.0,0.0,0.0,0.0,0.0,0.0,0.0,0.0,0.0,0.0,0.0,0.0,0.0,0.0,0.0,0.0,0.0,0.0,0.0,0.0,0.0,-0.1424,-0.1909,-0.2686,-0.3611,0.0,0.0,-0.599,-0.6574,-0.6903,0.0,0.0,0.0,0.0,0.0,0.0,0.0,0.0,0.0,0.0,0.0,0.0,0.0,0.0,0.0,0.0,0.0,0.0,0.0,0.0,0.0,0.0,0.0,0.0,0.0,0.0,0.0,0.0,0.0,0.0,0.0,0.0,0.0,0.0,0.0,0.0,0.0,0.0,0.0,0.0,0.0,0.0,0.0,0.0,0.0,0.0,0.0,0.0,0.0,0.0,0.0,0.0,0.0,0.0,0.0,0.0,0.0,0.0,0.0,0.0,0.0,0.0,0.0,0.0,0.0,0.0,0.0,0.0,0.0,0.0,0.0,0.0,0.0,0.0,0.0,0.0,0.0,0.0,0.0,0.0,0.0,0.0,0.0,0.0,0.0,0.0,0.0,0.0,0.0,0.0,0.0,0.0,0.0,0.0,0.0,0.0,0.0,0.0,0.0,0.0,0.0,0.0,0.0,0.0,0.0,0.0,0.0,-0.2562,-0.3418,0.0,0.0,0.0,-0.6398,-0.6746,0.0,0.0,0.0,0.0,0.0,0.0,0.0,0.0,0.0,0.0,0.0,0.0,0.0,0.0,0.0,0.0,0.0,0.0,0.0,0.0,0.0,0.0,0.0,0.0,0.0,0.0,0.0,0.0,0.0,0.0,0.0,0.0,0.0,0.0,0.0,0.0,0.0,0.0,0.0,0.0,0.0,0.0,0.0,0.0,0.0,0.0,0.0,0.0,0.0,0.0,0.0,0.0,0.0,0.0,0.0,0.0,0.0,0.0,0.0,0.0,0.0,0.0,0.0,0.0,0.0,0.0,0.0,0.0,0.0,0.0,0.0,0.0,0.0,0.0,0.0,0.0,0.0,0.0,0.0,0.0,0.0,0.0,0.0,0.0,0.0,0.0,0.0,0.0,0.0,0.0,0.0,0.0,0.0,0.0,0.0,0.0,0.0,0.0,0.0,0.0,0.0,0.0,0.0,0.0,0.0,0.0,0.0,-0.2661,-0.3181,-0.4063,-0.4901,0.0,0.0,-0.6665,-0.6886,-0.6977,-0.713,0.0,0.0,0.0,0.0,0.0,0.0,0.0,0.0,0.0,0.0,0.0,0.0,0.0,0.0,0.0,0.0,0.0,0.0,0.0,0.0,0.0,0.0,0.0,0.0,0.0,0.0,0.0,0.0,0.0,0.0,0.0,0.0,0.0,0.0,0.0,0.0,0.0,0.0,0.0,0.0,0.0,0.0,0.0,0.0,0.0,0.0,0.0,0.0,0.0,0.0,0.0,0.0,0.0,0.0,0.0,0.0,0.0,0.0,0.0,0.0,0.0,0.0,0.0,0.0,0.0,0.0,0.0,0.0,0.0,0.0,0.0,0.0,0.0,0.0,0.0,0.0,0.0,0.0,0.0,0.0,0.0,0.0,0.0,0.0,0.0,0.0,0.0,0.0,0.0,0.0,0.0,0.0,0.0,0.0,0.0,0.0,0.0,0.0,0.0,0.0,0.0,0.0,0.0,0.0,0.0,-0.3149,-0.3686,-0.4534,-0.533,0.0,0.0,-0.6665,-0.6886,-0.6893,-0.7016,-0.7269,0.0,0.0,0.0,0.0,0.0,0.0,0.0,0.0,0.0,0.0,0.0,0.0,0.0,0.0,0.0,0.0,0.0,0.0,0.0,0.0,0.0,0.0,0.0,0.0,0.0,0.0,0.0,0.0,0.0,0.0,0.0,0.0,0.0,0.0,0.0,0.0,0.0,0.0,0.0,0.0,0.0,0.0,0.0,0.0,0.0,0.0,0.0,0.0,0.0,0.0,0.0,0.0,0.0,0.0,0.0,0.0,0.0,0.0,0.0,0.0,0.0,0.0,0.0,0.0,0.0,0.0,0.0,0.0,0.0,0.0,0.0,0.0,0.0,0.0,0.0,0.0,0.0,0.0,0.0,0.0,0.0,0.0,0.0,0.0,0.0,0.0,0.0,0.0,0.0,0.0,0.0,0.0,0.0,0.0,0.0,0.0,0.0,0.0,0.0,0.0,0.0,0.0,0.0,0.0,-0.3862,-0.4603,-0.5405,0.0,0.0,-0.6641,-0.68,-0.6886,-0.6809,-0.6822,-0.6956,-0.6961,0.0,0.0,0.0,0.0,0.0,0.0,0.0,0.0,0.0,0.0,0.0,0.0,0.0,0.0,0.0,0.0,0.0,0.0,0.0,0.0,0.0,0.0,0.0,0.0,0.0,0.0,0.0,0.0,0.0,0.0,0.0,0.0,0.0,0.0,0.0,0.0,0.0,0.0,0.0,0.0,0.0,0.0,0.0,0.0,0.0,0.0,0.0,0.0,0.0,0.0,0.0,0.0,0.0,0.0,0.0,0.0,0.0,0.0,0.0,0.0,0.0,0.0,0.0,0.0,0.0,0.0,0.0,0.0,0.0,0.0,0.0,0.0,0.0,0.0,0.0,0.0,0.0,0.0,0.0,0.0,0.0,0.0,0.0,0.0,0.0,0.0,0.0,0.0,0.0,0.0,0.0,0.0,0.0,0.0,0.0,0.0,0.0,0.0,0.0,0.0,0.0,0.0,0.0,-0.4385,-0.5162,-0.5883,-0.6446,-0.6623,-0.6757,-0.6861,-0.6819,-0.6732,-0.6678,-0.6776,0.0,0.0,0.0,0.0,0.0,0.0,0.0,0.0,0.0,0.0,0.0,0.0,0.0,0.0,0.0,0.0,0.0,0.0,0.0,0.0,0.0,0.0,0.0,0.0,0.0,0.0,0.0,0.0,0.0,0.0,0.0,0.0,0.0,0.0,0.0,0.0,0.0,0.0,0.0,0.0,0.0,0.0,0.0,0.0,0.0,0.0,0.0,0.0,0.0,0.0,0.0,0.0,0.0,0.0,0.0,0.0,0.0,0.0,0.0,0.0,0.0,0.0,0.0,0.0,0.0,0.0,0.0,0.0,0.0,0.0,0.0,0.0,0.0,0.0,0.0,0.0,0.0,0.0,0.0,0.0,0.0,0.0,0.0,0.0,0.0,0.0,0.0,0.0,0.0,0.0,0.0,0.0,0.0,0.0,0.0,0.0,0.0,0.0,0.0,0.0,0.0,0.0,0.0,-0.3744,-0.4501,-0.5122,-0.5838,-0.6312,-0.6309,-0.6549,-0.6705,-0.6705,-0.6617,-0.6555,0.0,0.0,0.0,0.0,0.0,0.0,0.0,0.0,0.0,0.0,0.0,0.0,0.0,0.0,0.0,0.0,0.0,0.0,0.0,0.0,0.0,0.0,0.0,0.0,0.0,0.0,0.0,0.0,0.8047,0.0,0.0,0.0,0.0,0.0,0.0,0.0,0.0,0.0,0.0,0.0,0.4824,0.4619,0.0,0.0,0.0,0.0,0.0,0.0,0.0,0.0,0.0,0.0,0.0,0.0,0.0126,0.0,0.0,0.0,0.0,0.018,0.0269,0.0269,0.0583,0.08,0.0913,0.0,0.0,0.0,0.0,0.0,0.0,0.0,0.0,0.0,0.0,0.0,0.0,0.0,0.0,0.0,0.0,0.0,0.0,0.0,0.0,0.0,0.0,0.0,0.0,0.0,0.0,0.0,0.0,0.0,0.0,0.0,0.0,0.0,0.0,0.0,0.0,0.0,-0.1998,-0.3043,-0.3939,-0.4811,-0.5624,-0.621,-0.6577,0.0,0.0,0.0,0.0,0.0,0.0,0.0,0.0,0.0,0.0,0.0,0.0,0.0,0.0,-1.2312,-1.2169,-1.2673,-1.3343,-1.4181,0.0,0.0,0.0,0.0,0.0,0.0,0.0,0.0,0.0,0.0,0.0,0.0,0.0,0.0,0.0,0.0,0.8445,0.0,0.0,0.0,0.0,0.0,0.0,0.0,0.0,0.573,0.5791,0.5786,0.5616,0.5389,0.0,0.476,0.409,0.0,0.0,0.0,0.0,0.0,0.0,0.0,0.0,0.0591,0.0512,0.0485,0.0494,0.0494,0.0673,0.0807,0.0897,0.1255,0.1597,0.1868,0.1954,0.2077,0.0,0.0,0.0,0.0,0.0,0.0,0.0,0.0,0.0,0.0,0.0,0.0,0.0,0.0,0.0,0.0,0.0,0.0,0.0,0.0,0.0,0.0,0.0,0.0,0.0,0.0,0.0,0.0,0.0,0.0,0.0,0.0,0.0,-0.0849,-0.1252,-0.1868,-0.2923,-0.3816,-0.4651,-0.5602,0.0,0.0,0.0,0.0,0.0,0.0,0.0,-0.6374,-0.6563,-0.6817,-0.7405,-0.8623,-0.9963,-1.1026,-1.1488,0.0,0.0,-1.2804,-1.3417,-1.4264,-1.5109,-1.6069,-1.6943,-1.742,-1.802,-1.865,0.0,0.0,0.0,0.0,0.0,0.0,0.0,0.0,1.0759,1.0649,0.0,0.9328,0.0,0.0,0.0,0.0,0.0,0.0,0.0,0.0,0.6328,0.6356,0.6413,0.6347,0.6076,0.5637,0.5481,0.5176,0.4671,0.3701,0.0,0.0,0.0,0.0,0.0,0.0,0.1403,0.1432,0.142,0.1436,0.1391,0.1436,0.1569,0.1881,0.2103,0.2435,0.2731,0.2714,0.2862,0.3207,0.2978,0.0,0.0,0.0,0.0,0.0,0.0,0.0,0.0,0.0,0.0,0.0,0.0,0.0,0.0,0.0,0.0,0.0,0.0,0.0,0.0,0.0111,0.0,0.0,0.0,0.0,0.0,0.0,0.0,0.0,0.0,0.0,-0.0796,-0.1175,-0.1715,-0.2594,0.0,0.0,0.0,0.0,-0.5937,-0.6247,-0.63,-0.63,-0.63,-0.63,-0.6374,-0.6563,0.0,0.0,-1.0023,-1.1177,-1.2061,-1.2772,-1.3336,-1.3744,-1.3638,-1.4696,-1.5861,-1.6661,-1.747,-1.8202,-1.8618,-1.9012,-1.9419,1.3404,0.0,0.0,0.0,0.0,1.1317,1.1682,1.1922,1.2063,1.1826,1.1288,1.0347,0.0,0.0,0.0,0.0,0.0,0.0,0.6632,0.6718,0.6816,0.6879,0.6918,0.6882,0.664,0.6198,0.6162,0.5883,0.5411,0.5095,0.4525,0.3701,0.0,0.0,0.0,0.0,0.2501,0.2214,0.2171,0.2106,0.1971,0.2285,0.2757,0.3414,0.35,0.3725,0.4029,0.414,0.4241,0.4333,0.4084,0.0,0.0,0.0,0.0,0.0,0.0,0.0,0.0,0.0,0.0,0.0,0.0,0.0,0.0,0.0,0.0,0.0,0.0,0.0,0.034,0.0111,0.0,0.0,0.0,0.0,0.0,0.0,0.0,0.0,0.0,0.0,-0.0434,-0.0784,-0.1464,0.0,0.0,-0.4082,-0.5087,-0.5585,-0.5973,-0.6254,0.0,0.0,0.0,-0.63,-0.6412,-0.6753,-0.7744,-0.8946,-1.0231,-1.1075,-1.1778,-1.2505,-1.3131,-1.3738,-1.4241,-1.5033,-1.5958,-1.6775,-1.7772,-1.8645,-1.908,-1.9706,-2.0262,1.4839,1.3913,1.2947,1.2407,1.224,1.2486,1.2733,1.29,1.2935,1.2705,1.2212,1.1224,1.0101,0.8861,0.7759,0.0,0.0,0.0,0.6916,0.6974,0.7058,0.7095,0.7095,0.7095,0.6918,0.6564,0.6564,0.6349,0.5994,0.5991,0.5646,0.4989,0.0,0.0,0.3998,0.392,0.3745,0.351,0.3437,0.3358,0.3224,0.355,0.3903,0.4408,0.4536,0.4702,0.4933,0.5022,0.5082,0.5116,0.4888,0.4574,0.0,0.0,0.0,0.0,0.0,0.0,0.0,0.0,0.0,0.0,0.0,0.203,0.2238,0.0,0.0,0.0,0.1705,0.1191,0.0576,0.0261,0.0,0.0,0.0,0.0,0.0,0.0,0.0,0.0,0.0,-0.0071,-0.0257,-0.0506,-0.1084,-0.2146,-0.2925,-0.3734,-0.4707,0.0,-0.5685,-0.6093,-0.6219,-0.63,-0.63,-0.63,-0.6528,-0.7134,-0.8356,-0.9575,-1.0612,-1.1312,-1.1948,-1.2602,-1.3197,-1.3715,-1.4315,-1.5038,-1.5939,-1.7024,-1.8151,-1.9022,-1.9457,-2.013,-2.0654,1.5851,1.5784,1.4618,1.3917,1.351,1.3547,1.3632,1.3802,1.357,1.3345,1.3064,1.196,1.0794,0.9602,0.7963,0.0,0.0,0.7075,0.7017,0.7095,0.7095,0.7095,0.7095,0.7095,0.701,0.6792,0.6792,0.6656,0.6384,0.6428,0.6425,0.641,0.573,0.5373,0.5287,0.5102,0.5017,0.5068,0.493,0.488,0.488,0.4912,0.4983,0.5015,0.5228,0.5421,0.5548,0.558,0.5564,0.5643,0.5476,0.5222,0.498,0.0,0.0,0.0,0.0,0.0,0.0,0.0,0.0,0.0,0.0,0.0,0.0,0.0,0.0,0.0,0.2209,0.0,0.094,0.0526,0.0,0.0,0.0,0.0,0.0,0.0,0.0,0.0,0.0,0.0,0.0,0.0,-0.0628,-0.1481,-0.2343,-0.3169,-0.415,-0.4782,-0.5281,-0.5853,-0.6142,-0.6298,-0.6361,-0.6379,-0.674,-0.7672,-0.8813,-0.9954,-1.1012,-1.1698,-1.2376,-1.3008,-1.3311,-1.36,-1.4105,-1.4839,-1.5864,-1.7263,-1.8435,-1.9291,-1.9635,-2.0111,-2.041,1.6493,1.648,1.6168,1.5491,1.4624,1.4624,1.4668,1.4641,1.4379,1.3926,1.3343,1.2515,1.1246,0.9568,0.8611,0.7969,0.7665,0.7446,0.7244,0.7095,0.7095,0.7095,0.7095,0.7095,0.701,0.6792,0.6792,0.6656,0.6428,0.6612,0.6646,0.6584,0.6509,0.6325,0.5978,0.5836,0.5633,0.5453,0.5426,0.5412,0.5412,0.5427,0.5532,0.5801,0.5882,0.5981,0.6126,0.6081,0.61,0.6109,0.5906,0.572,0.5579,0.5085,0.0,0.0,0.0,0.0,0.0,0.0,0.0,0.0,0.0,0.3881,0.428,0.0,0.4272,0.0,0.2851,0.1753,0.0956,0.0529,0.0,0.0,0.0,0.0,0.0,0.0,0.0,0.0,0.0,0.0,-0.0075,-0.0188,-0.0419,-0.0834,-0.1734,-0.2795,-0.3981,-0.4614,-0.5228,-0.6028,-0.626,-0.6396,-0.658,-0.6933,-0.7321,-0.7953,-0.8932,-0.9938,-1.097,-1.1508,-1.2054,-1.2747,-1.2929,-1.3281,-1.3963,-1.4715,-1.5521,-1.6624,-1.7693,-1.8488,-1.891,-1.934,-1.9637,1.7059,1.6894,1.6767,1.6326,1.5725,1.5458,1.5249,1.4995,1.479,1.4445,1.3932,1.2913,1.175,1.0514,0.9463,0.8723,0.8292,0.794,0.7632,0.7279,0.7279,0.7231,0.7095,0.7095,0.7054,0.6925,0.6925,0.6877,0.6741,0.6877,0.6879,0.68,0.6806,0.6697,0.644,0.6363,0.6242,0.6117,0.6017,0.5959,0.5904,0.5904,0.5987,0.6185,0.6185,0.6228,0.63,0.63,0.63,0.63,0.6138,0.6063,0.6015,0.5521,0.52,0.0,0.0,0.0,0.0,0.0,0.0,0.0,0.0,0.0,0.0,0.0,0.4862,0.0,0.3212,0.0,0.1425,0.08,0.0376,0.0148,0.0074,0.0,0.0,0.0,0.0,0.0,0.0,0.0,0.0,-0.0078,-0.0238,-0.0452,-0.1171,-0.2152,-0.3385,-0.417,-0.4966,-0.5856,-0.6204,-0.6415,-0.666,-0.7159,-0.7685,-0.8182,-0.9068,-1.004,-1.0948,-1.1409,-1.1913,-1.2437,-1.2583,-1.278,-1.3445,-1.4162,-1.4914,-1.5799,-1.6826,-1.7769,-1.8533,-1.9022,-1.9277,1.7575,1.7284,1.6978,1.6844,1.6727,1.6219,1.5671,1.5176,1.5135,1.4895,1.4527,1.3248,1.2393,1.1887,1.0548,0.968,0.9155,0.8637,0.8147,0.7664,0.7602,0.7415,0.7143,0.7095,0.7095,0.7095,0.7095,0.7095,0.7095,0.7095,0.7088,0.7058,0.6854,0.6712,0.6671,0.6671,0.6661,0.6644,0.6508,0.6426,0.6303,0.63,0.63,0.63,0.63,0.63,0.63,0.63,0.63,0.63,0.63,0.63,0.6293,0.5845,0.5551,0.0,0.5158,0.0,0.0,0.0,0.0,0.0,0.0,0.0,0.0,0.549,0.5282,0.4504,0.3489,0.2627,0.1998,0.1155,0.0571,0.0304,0.0114,0.0,0.0,0.0,0.0,0.0,0.0,0.0,0.0,0.0,-0.0082,-0.0252,-0.0633,-0.1392,-0.2582,-0.363,-0.4597,-0.5527,-0.6086,-0.6534,-0.6753,-0.7273,-0.7869,-0.8306,-0.9241,-1.019,-1.0956,-1.1477,-1.1875,-1.2214,-1.2325,-1.2472,-1.2856,-1.3572,-1.4289,-1.5111,-1.6122,-1.72,-1.8212,-1.8781,-1.9131,1.8286,1.7875,1.7769,1.7495,1.7105,1.6998,1.6616,1.606,1.5765,1.5259,1.4546,1.3936,1.3378,1.2887,1.2236,1.149,1.0584,0.9957,0.9306,0.8632,0.8004,0.7632,0.7415,0.7187,0.7095,0.7095,0.7095,0.7095,0.7095,0.7095,0.7038,0.6927,0.6869,0.6763,0.0,0.0,0.0,0.0,0.6354,0.6327,0.6303,0.63,0.63,0.63,0.63,0.0,0.63,0.63,0.63,0.63,0.63,0.0,0.0,0.0,0.0,0.0,0.0,0.0,0.0,0.0,0.0,0.0,0.5772,0.5841,0.5845,0.5698,0.5326,0.4698,0.38,0.2978,0.2195,0.1369,0.0702,0.0351,0.0117,0.0,0.0,0.0,0.0,0.0,0.0,0.0,0.0,0.0,0.0,0.0,-0.0303,-0.0827,-0.159,-0.3003,-0.4379,-0.5498,-0.6377,-0.6877,-0.6859,-0.7392,-0.7926,-0.8377,-0.9378,-1.0381,-1.0962,-1.1591,-1.2074,-1.2267,-1.2305,-1.2489,-1.301,-1.3513,-1.4122,-1.5026,-1.5842,-1.6675,-1.7565,-1.802,-1.8252,1.9101,0.0,1.8482,1.8077,0.0,1.7583,1.7275,1.6723,1.6239,1.5751,1.5193,1.4682,1.4297,1.3924,1.3322,1.258,1.1706,1.1146,1.0409,0.9579,0.8853,0.8329,0.7975,0.7535,0.7279,0.7279,0.7187,0.7095,0.7095,0.7095,0.7058,0.6991,0.6923,0.6812,0.6702,0.6624,0.6518,0.6303,0.63,0.63,0.63,0.63,0.63,0.63,0.0,0.0,0.0,0.0,0.0,0.0,0.0,0.0,0.0,0.0,0.0,0.599,0.5888,0.5833,0.5908,0.5878,0.5945,0.6023,0.6101,0.6146,0.6146,0.5906,0.5556,0.501,0.4226,0.3444,0.2702,0.1805,0.1061,0.0668,0.0354,0.0118,0.0,0.0,0.0,0.0,0.0,0.0,0.0,0.0,0.0,0.0,-0.0221,-0.062,-0.1251,-0.2487,-0.3938,-0.5625,-0.6479,-0.6943,-0.7054,-0.7386,-0.7846,-0.8279,-0.9174,-1.0116,-1.0885,-1.1534,-1.2018,-1.2288,-1.2337,-1.2452,-1.2936,-1.3375,-1.392,-1.474,-1.5524,-1.6228,-1.6925,-1.7486,-1.7896,2.0138,1.9576,1.9242,1.8736,1.8233,1.8174,1.7839,1.7217,0.0,0.0,0.0,1.5537,1.5165,1.4865,1.4216,1.3543,1.2888,1.24,1.1687,1.0742,0.9994,0.9364,0.877,0.8065,0.7723,0.7679,0.7377,0.7231,0.7228,0.7187,0.7187,0.7129,0.7024,0.691,0.6876,0.6776,0.6583,0.6392,0.6347,0.6327,0.63,0.63,0.63,0.63,0.63,0.63,0.6335,0.6335,0.6374,0.6412,0.6412,0.6412,0.6409,0.6215,0.6105,0.6098,0.5986,0.5975,0.6061,0.6071,0.6163,0.6289,0.63,0.63,0.63,0.6057,0.5786,0.5437,0.4654,0.3951,0.3327,0.2353,0.1571,0.1061,0.0629,0.0275,0.0,0.0,0.0,0.0,0.0,0.0,0.0,0.0,0.0,0.0,-0.0179,-0.0538,-0.1166,-0.2327,-0.3842,-0.5544,-0.6349,-0.6789,-0.701,-0.7312,-0.7669,-0.8146,-0.896,-0.9816,-1.0648,-1.1374,-1.1922,-1.2254,-1.2313,-1.251,-1.2804,-1.3119,-1.3593,-1.431,-1.5018,-1.5719,-1.6324,-1.6915,-1.7467,2.1353,2.0629,2.038,1.9828,1.9123,1.8833,1.8247,1.7493,1.6894,1.662,1.6567,1.6279,1.6,1.5683,1.535,1.4943,1.4368,1.3889,1.3281,0.0,1.1533,1.0743,0.9997,0.9137,0.8562,0.8328,0.7971,0.7812,0.7764,0.7547,0.7459,0.7411,0.721,0.7004,0.6883,0.6776,0.6681,0.6637,0.6549,0.6422,0.6303,0.63,0.63,0.63,0.63,0.6377,0.6563,0.6563,0.6637,0.6788,0.6826,0.6826,0.6788,0.6615,0.6528,0.6528,0.6468,0.6433,0.6265,0.6416,0.6465,0.6296,0.63,0.63,0.63,0.6057,0.586,0.5786,0.5085,0.4462,0.3951,0.2978,0.2159,0.1573,0.0943,0.0475,0.0283,0.0,0.0,0.0,0.0,0.0,0.0,0.0,0.0,0.0,-0.009,-0.0359,-0.13,-0.2731,-0.4117,-0.528,-0.6035,-0.652,-0.6836,-0.7238,-0.7617,-0.8129,-0.8935,-0.9728,-1.0376,-1.1235,-1.1837,-1.2073,-1.226,-1.2472,-1.2631,-1.2739,-1.3142,-1.3796,-1.4294,-1.4768,-1.5488,-1.6017,-1.6594,2.2568,2.1962,2.1556,2.0893,2.013,1.9361,1.8613,1.7804,1.7506,1.7154,1.6707,1.6567,1.637,1.6113,1.5981,1.5643,1.5105,1.4741,1.4259,1.3625,1.2667,1.1941,1.1413,1.038,0.9738,0.9455,0.8919,0.8613,0.8426,0.8207,0.8025,0.7896,0.7628,0.7504,0.7436,0.7365,0.7289,0.7151,0.6753,0.648,0.6416,0.6454,0.6447,0.6493,0.6563,0.6718,0.6911,0.6949,0.7061,0.7361,0.7288,0.7288,0.7361,0.7099,0.6914,0.6911,0.683,0.6714,0.6641,0.6602,0.656,0.6447,0.6377,0.63,0.63,0.6219,0.606,0.5902,0.5437,0.4971,0.4462,0.3682,0.2917,0.2198,0.156,0.0969,0.0578,0.0336,0.017,0.0,0.0,0.0,0.0,0.0,0.0,0.0,-0.009,-0.0494,-0.1122,-0.2196,-0.3494,-0.4786,-0.5675,-0.6349,-0.6748,-0.7058,-0.7411,-0.7764,-0.846,-0.9209,-0.9885,-1.0742,-1.1378,-1.1738,-1.2072,-1.231,-1.2402,-1.2562,-1.2886,-1.3295,-1.3666,-1.4129,-1.4705,-1.5374,-1.6219,2.3678,2.3229,2.2669,2.1912,2.0944,1.9983,1.9056,1.8331,1.822,1.775,1.7035,1.6891,1.668,1.6522,1.6339,1.6049,1.5658,1.5389,1.5029,1.4513,1.3755,1.3237,1.2825,1.176,1.1044,1.0742,1.0063,0.9541,0.93,0.903,0.8761,0.8464,0.8197,0.8113,0.8116,0.8072,0.796,0.7819,0.7285,0.6903,0.6711,0.6752,0.6793,0.6795,0.6942,0.7176,0.7377,0.745,0.7638,0.8046,0.7974,0.7978,0.805,0.7748,0.7488,0.7411,0.7253,0.7134,0.7096,0.6868,0.6756,0.6718,0.649,0.6374,0.6377,0.6338,0.6219,0.6022,0.5792,0.5443,0.494,0.4376,0.3742,0.2958,0.2286,0.1611,0.1057,0.0689,0.0436,0.0175,0.0089,0.0,0.0,0.0,0.0,0.0,-0.018,-0.0494,-0.0897,-0.157,-0.2644,-0.3894,-0.5142,-0.5991,-0.6526,-0.6877,-0.7146,-0.7462,-0.7981,-0.8627,-0.9344,-1.0142,-1.0767,-1.1173,-1.1678,-1.1966,-1.2114,-1.2298,-1.2556,-1.2893,-1.3156,-1.3484,-1.4021,-1.4804,-1.5762,2.4637,2.4282,2.3777,2.2677,2.1267,2.0644,1.9931,1.9168,1.8893,1.8394,1.788,1.7383,1.7146,1.7045,1.6569,1.6273,1.6192,1.5856,1.5594,1.535,1.5051,1.4603,1.4034,1.3136,1.2554,1.2193,1.1338,1.0772,1.0521,1.0105,0.9593,0.9122,0.8934,0.8803,0.8803,0.8632,0.854,0.8519,0.8508,0.8118,0.7365,0.7331,0.7368,0.7411,0.7446,0.7638,0.8025,0.8178,0.8475,0.8846,0.9036,0.9036,0.8889,0.8699,0.8403,0.8068,0.803,0.7906,0.7706,0.7369,0.7142,0.7142,0.6795,0.6563,0.6563,0.6412,0.63,0.6219,0.6018,0.5789,0.5527,0.5068,0.453,0.3873,0.3146,0.2407,0.1724,0.1258,0.0875,0.0402,0.0403,0.0269,0.0,0.0,0.0,0.0,0.0045,-0.0135,-0.0493,-0.1031,-0.1749,-0.2776,-0.4026,-0.5277,-0.5991,-0.6571,-0.6925,-0.737,-0.768,-0.816,-0.8846,-0.9479,-1.0095,-1.0433,-1.118,-1.1561,-1.1551,-1.1744,-1.204,-1.2378,-1.2636,-1.2893,-1.3448,-1.4057,-1.484,2.5235,2.4932,2.4587,2.3578,2.2274,2.1658,2.0901,2.0027,1.9717,1.9257,1.8736,1.8341,1.7767,1.7192,1.6945,1.6663,1.6321,1.6146,1.5944,1.5648,1.5452,1.5213,1.4956,1.4338,1.3802,1.3541,1.2836,1.2344,1.1881,1.1191,1.0736,1.046,1.0134,0.9898,0.9893,0.9806,0.9763,0.9763,0.9818,0.9677,0.9306,0.8613,0.8225,0.826,0.8342,0.8518,0.8827,0.9122,0.9463,0.9873,0.9981,0.9981,0.9911,0.9571,0.9279,0.9013,0.8784,0.8546,0.8356,0.8055,0.7872,0.7757,0.7369,0.7061,0.6788,0.6598,0.6451,0.63,0.6219,0.6093,0.5942,0.5685,0.5281,0.4696,0.413,0.3497,0.2691,0.2167,0.1688,0.112,0.0852,0.0718,0.0494,0.0404,0.0404,0.0404,0.0314,0.0135,-0.0135,-0.0628,-0.1256,-0.2017,-0.309,-0.4251,-0.5413,-0.6216,-0.6659,-0.7013,-0.737,-0.7856,-0.8204,-0.8863,-0.9384,-0.9562,-1.0284,-1.0773,-1.0674,-1.1123,-1.1521,-1.1898,-1.2342,-1.2709,-1.2929,-1.3339,-1.3912,2.5693,2.5391,2.5088,2.4332,2.3229,2.2728,2.1962,2.1046,2.0688,2.0241,1.9724,1.9398,1.8756,1.7946,1.7497,1.7059,1.6682,1.6402,1.6159,1.5904,1.5722,1.5594,1.554,1.5118,1.4831,1.4555,1.4105,1.3596,1.3064,1.2393,1.1965,1.1794,1.1417,1.1175,1.1068,1.1025,1.0982,1.0982,1.1025,1.1112,1.1005,1.0269,0.9642,0.9365,0.9406,0.9525,0.9695,1.0067,1.0368,1.0738,1.0775,1.0812,1.0743,1.0475,1.018,0.9846,0.9463,0.9193,0.9041,0.8856,0.867,0.8408,0.8021,0.7557,0.7219,0.6944,0.6705,0.6485,0.6513,0.6467,0.6298,0.6184,0.5907,0.5481,0.5094,0.4493,0.3705,0.3224,0.2685,0.1972,0.1658,0.13,0.0987,0.0897,0.0897,0.0897,0.0718,0.0538,0.0269,-0.0179,-0.0718,-0.1346,-0.2107,-0.3226,-0.4746,-0.5636,-0.6169,-0.6659,-0.7061,-0.737,-0.7676,-0.8292,-0.8651,-0.8815,-0.9415,-0.9817,-0.992,-1.0368,-1.1043,-1.1558,-1.204,-1.2378,-1.2452,-1.279,-1.3046,2.6123,2.5655,2.5391,2.4775,2.4035,2.3728,2.3129,2.2367,2.1869,2.1353,2.0842,2.0526,2.0115,1.9517,1.832,1.7609,1.7442,1.6702,1.6355,1.6226,1.5931,1.5784,1.5784,1.554,1.5452,1.535,1.4889,1.4378,1.3865,1.3576,1.335,1.3033,1.2771,1.2554,1.233,1.2069,1.1923,1.1972,1.2143,1.2308,1.231,1.22,1.1624,1.0701,1.0528,1.0572,1.0715,1.0931,1.1155,1.1372,1.1521,1.1558,1.1372,1.1335,1.1037,1.0513,1.0105,0.9884,0.9841,0.9657,0.9473,0.9208,0.8761,0.8217,0.7859,0.7603,0.7295,0.6831,0.6993,0.6944,0.659,0.6511,0.6406,0.6159,0.5868,0.5349,0.4692,0.4385,0.3805,0.3045,0.2598,0.2194,0.1524,0.1346,0.1435,0.1435,0.1256,0.1076,0.0987,0.0448,-0.009,-0.0538,-0.13,-0.242,-0.3985,-0.4968,-0.5633,-0.6169,-0.6571,-0.6969,-0.737,-0.7687,-0.785,-0.8108,-0.8598,-0.8971,-0.9188,-0.9722,-1.0475,-1.1074,-1.1632,-1.1929,-1.2009,-1.2378,-1.2599,2.6143,2.5693,2.544,2.5137,2.4824,2.4381,2.3926,2.3538,2.312,2.2677,2.2215,2.1912,2.1514,2.0944,1.9905,1.8869,1.7858,1.7332,1.6934,1.654,1.6246,1.6112,1.6092,1.5836,1.5683,1.5642,1.5499,1.521,1.4899,1.4539,1.4258,1.4062,1.366,1.3399,1.325,1.3004,1.2918,1.2918,1.3003,1.3052,1.3045,1.3043,1.2806,1.2376,1.1906,1.1609,1.153,1.1834,1.1948,1.1793,1.1966,1.2003,1.1818,1.1669,1.1446,1.1111,1.0925,1.0812,1.0706,1.0594,1.04,1.0116,0.9903,0.948,0.8935,0.8604,0.8235,0.7788,0.7624,0.7468,0.7091,0.6868,0.6751,0.6577,0.6451,0.6169,0.5725,0.5366,0.4875,0.416,0.358,0.3089,0.2908,0.282,0.2731,0.2555,0.2376,0.2152,0.1794,0.1301,0.0718,0.0179,-0.0493,-0.1345,-0.2465,-0.3896,-0.4921,-0.5547,-0.6038,-0.6482,-0.6884,-0.7177,-0.739,-0.7446,-0.7851,-0.8184,-0.8431,-0.916,-0.9916,-1.0443,-1.0962,-1.1409,-1.1595,-1.1892,-1.2077,2.5957,2.5703,2.5489,2.543,2.5382,2.4932,2.4637,2.444,2.4134,2.3728,2.3429,2.3129,2.2728,2.2173,2.1556,2.0468,1.9074,1.8265,1.7608,1.7129,1.6844,1.6611,1.6399,1.6169,1.5973,1.5838,1.5825,1.573,1.5575,1.5249,1.5013,1.489,1.4514,1.4204,1.403,1.3836,1.3707,1.3636,1.3616,1.361,1.361,1.3652,1.361,1.3505,1.3104,1.2694,1.2376,1.2596,1.2633,1.2423,1.243,1.2368,1.209,1.1929,1.1795,1.1765,1.1665,1.1671,1.1593,1.1606,1.1459,1.1115,1.1023,1.0734,1.0044,0.9746,0.9279,0.8717,0.8433,0.8197,0.7728,0.7429,0.7215,0.6993,0.6881,0.6748,0.6393,0.6166,0.5722,0.5097,0.4561,0.4204,0.4071,0.4026,0.3937,0.3717,0.3492,0.3181,0.2691,0.2107,0.1524,0.0942,0.0359,-0.0359,-0.1256,-0.2373,-0.3715,-0.4474,-0.5233,-0.5769,-0.6334,-0.6628,-0.683,-0.6864,-0.7059,-0.7405,-0.7947,-0.8631,-0.916,-0.9652,-1.0218,-1.0706,-1.0999,-1.1372,-1.1632,2.5703,2.5684,2.5684,2.5684,2.5635,2.5391,2.5284,2.5137,2.4735,2.448,2.4381,2.4183,2.3777,2.3329,2.292,2.2249,2.0985,1.9489,1.8506,1.8041,1.776,1.733,1.6863,1.6766,1.6368,1.5886,1.5825,1.5832,1.5778,1.5738,1.5571,1.5411,1.5318,1.4967,1.4512,1.4429,1.4312,1.4133,1.4066,1.4046,1.4088,1.4046,1.4033,1.4055,1.3986,1.3692,1.3214,1.318,1.3154,1.3087,1.2899,1.265,1.2388,1.2162,1.2172,1.2382,1.2312,1.2324,1.2534,1.2547,1.2397,1.2211,1.2102,1.1748,1.118,1.0842,1.0354,0.9663,0.9327,0.9021,0.844,0.8217,0.7874,0.7228,0.7098,0.701,0.6836,0.6795,0.6523,0.5855,0.5458,0.5282,0.5099,0.5008,0.4917,0.4696,0.452,0.4166,0.3674,0.309,0.2419,0.1838,0.1255,0.0582,-0.009,-0.0897,-0.215,-0.3312,-0.416,-0.487,-0.5515,-0.5934,-0.6205,-0.6312,-0.6653,-0.6957,-0.7309,-0.7978,-0.8327,-0.8818,-0.9387,-0.9916,-1.025,-1.0619,-1.1186,2.5684,2.5684,2.5684,2.5684,2.5693,2.5596,2.5586,2.5596,2.5391,2.5245,2.503,2.4981,2.4637,2.4183,2.3827,2.322,2.2358,2.1526,2.0523,1.9302,1.8673,1.8333,1.8067,1.7533,1.693,1.6394,1.6163,1.6076,1.6028,1.5927,1.5724,1.5631,1.5491,1.5317,1.509,1.4736,1.4462,1.4376,1.4182,1.4088,1.4088,1.4088,1.4088,1.4088,1.4088,1.3981,1.3821,1.3573,1.3373,1.3233,1.312,1.3019,1.2939,1.2848,1.2895,1.2942,1.2916,1.2903,1.2982,1.2982,1.2955,1.2769,1.2817,1.2669,1.2257,1.1967,1.1586,1.0952,1.0514,0.9941,0.9467,0.9078,0.8552,0.7499,0.737,0.7279,0.7054,0.6884,0.6707,0.6526,0.6257,0.6077,0.5988,0.5941,0.5855,0.5677,0.5547,0.528,0.4654,0.4206,0.3669,0.2911,0.2284,0.1613,0.0941,0.0314,-0.0537,-0.1836,-0.2864,-0.3846,-0.4581,-0.5203,-0.5483,-0.588,-0.6191,-0.651,-0.6859,-0.7215,-0.7599,-0.7944,-0.8475,-0.8927,-0.9339,-0.983,-1.0432,2.583,2.5684,2.5684,2.5684,2.5684,2.5684,2.5684,2.5684,2.5684,2.5586,2.543,2.543,2.5245,2.4833,2.4637,2.4134,2.352,2.3229,2.2417,2.1132,2.0151,1.9618,1.922,1.8262,1.7632,1.7191,1.6786,1.6548,1.6508,1.6312,1.6218,1.6069,1.5832,1.5637,1.5529,1.5089,1.4725,1.4536,1.4342,1.4202,1.4108,1.4088,1.4088,1.4088,1.4088,1.4088,1.4068,1.3901,1.368,1.3547,1.34,1.3287,1.3233,1.32,1.3253,1.3353,1.334,1.3373,1.3514,1.3533,1.3493,1.3404,1.3502,1.3428,1.3127,1.2893,1.2571,1.2057,1.1499,1.0933,1.0463,1.0038,0.934,0.8424,0.7988,0.768,0.7452,0.7275,0.7234,0.7146,0.7054,0.6922,0.6833,0.6786,0.6659,0.6438,0.6349,0.6171,0.5544,0.5188,0.4563,0.3983,0.3491,0.2776,0.1972,0.1434,0.0986,-0.0224,-0.1478,-0.2551,-0.3525,-0.4163,-0.4608,-0.5235,-0.5665,-0.596,-0.6325,-0.6641,-0.6988,-0.7292,-0.7595,-0.8016,-0.8508,-0.9117,-0.9679,2.6133,2.5703,2.5684,2.5684,2.5684,2.5684,2.5684,2.5684,2.5684,2.5693,2.5684,2.5684,2.5538,2.5333,2.5245,2.4932,2.4538,2.4242,2.3886,2.3179,2.2156,2.115,2.0171,1.9197,1.8689,1.8268,1.7745,1.7377,1.716,1.7019,1.6925,1.6669,1.6419,1.6135,1.5915,1.5589,1.5187,1.4842,1.4643,1.4498,1.4276,1.4215,1.4215,1.4215,1.4208,1.4166,1.4201,1.4174,1.4097,1.4035,1.3788,1.352,1.334,1.326,1.344,1.3613,1.3626,1.3794,1.4001,1.3988,1.4001,1.3995,1.3966,1.399,1.3662,1.3457,1.3173,1.279,1.2314,1.1886,1.1456,1.0982,1.0376,0.9689,0.8727,0.8157,0.7988,0.794,0.7896,0.7896,0.7896,0.7852,0.7588,0.7544,0.7323,0.7061,0.6884,0.6615,0.6257,0.5899,0.5453,0.4964,0.4516,0.3937,0.3132,0.2732,0.2239,0.1254,0.0,-0.1114,-0.2386,-0.3172,-0.3906,-0.4579,-0.5034,-0.5365,-0.5705,-0.6018,-0.6331,-0.6637,-0.6945,-0.7292,-0.7787,-0.8356,-0.8927,2.6133,2.5693,2.5684,2.5684,2.5684,2.5684,2.5684,2.5684,2.5684,2.5684,2.5684,2.5684,2.5635,2.5586,2.5586,2.5391,2.5088,2.4981,2.4735,2.4282,2.3935,2.2711,2.147,2.0884,2.0248,1.9502,1.9044,1.8543,1.804,1.7753,1.7512,1.7419,1.7059,1.681,1.661,1.6253,1.5933,1.5749,1.5463,1.5289,1.5162,1.4944,1.4846,1.4838,1.4664,1.4538,1.4531,1.4531,1.437,1.4124,1.4028,1.3948,1.3869,1.3862,1.3889,1.3956,1.3955,1.3988,1.4062,1.4088,1.4088,1.4088,1.4088,1.4082,1.3997,1.3779,1.3568,1.3349,1.3052,1.2753,1.2534,1.2015,1.1284,1.0376,0.9375,0.8592,0.846,0.8416,0.8416,0.8416,0.8416,0.8376,0.8288,0.8157,0.7981,0.7804,0.7499,0.7234,0.6922,0.6612,0.621,0.5899,0.5453,0.4961,0.4427,0.4072,0.3494,0.2643,0.156,0.0442,-0.0955,-0.2275,-0.3102,-0.3909,-0.4164,-0.446,-0.4965,-0.5395,-0.567,-0.5941,-0.6293,-0.6637,-0.7099,-0.7668,-0.8165,2.6289,2.5684,2.5684,2.5684,2.5684,2.5684,2.5684,2.5684,2.5684,2.5684,2.5684,2.5684,2.5684,2.5684,2.5684,2.5635,2.5479,2.5479,2.5284,2.503,2.4833,2.3996,2.2894,2.2449,2.1867,2.1224,2.0506,1.9929,1.9437,1.8875,1.8573,1.8295,1.7932,1.7667,1.7419,1.7079,1.6791,1.6632,1.6418,1.6242,1.6035,1.5843,1.5582,1.5418,1.52,1.511,1.5019,1.4977,1.4776,1.4447,1.437,1.437,1.4328,1.437,1.4321,1.4328,1.4286,1.4243,1.4208,1.4166,1.4088,1.4088,1.4088,1.4088,1.4082,1.3955,1.3864,1.3822,1.3525,1.3392,1.3222,1.2705,1.2057,1.1413,1.0458,0.9724,0.9288,0.92,0.9205,0.9209,0.9209,0.9122,0.903,0.8899,0.8723,0.846,0.8157,0.7893,0.758,0.7275,0.6969,0.6609,0.6302,0.5855,0.5408,0.5053,0.4563,0.3714,0.2719,0.1699,0.0385,-0.1164,-0.2063,-0.2765,-0.3142,-0.36,-0.4148,-0.4654,-0.5004,-0.5318,-0.5631,-0.606,-0.6521,-0.6903,-0.7399,2.6564,2.5791,2.5791,2.5781,2.5781,2.5732,2.5732,2.5684,2.5684,2.5684,2.5684,2.5684,2.5684,2.5684,2.5684,2.5684,2.5684,2.5635,2.5684,2.5538,2.5391,2.4845,2.4239,2.3639,2.3275,2.2904,2.2037,2.1427,2.0893,2.038,1.9853,1.9463,1.9126,1.8711,1.8396,1.8033,1.7758,1.7644,1.7574,1.7416,1.713,1.6904,1.6595,1.6285,1.5955,1.5775,1.5643,1.556,1.5394,1.4985,1.4859,1.4817,1.4817,1.4817,1.4817,1.4783,1.4657,1.4531,1.444,1.4334,1.4208,1.4208,1.4208,1.4166,1.4208,1.4159,1.4124,1.4124,1.3864,1.3737,1.3561,1.313,1.2747,1.2363,1.1977,1.1332,1.0598,1.0212,1.0168,1.0168,1.0125,0.9994,0.9864,0.9728,0.9598,0.9327,0.8938,0.8592,0.8241,0.7848,0.7584,0.7316,0.7007,0.6748,0.6346,0.5988,0.5453,0.4772,0.3669,0.2632,0.1519,0.0247,-0.0765,-0.1503,-0.2004,-0.2624,-0.329,-0.3756,-0.4146,-0.4616,-0.4929,-0.5437,-0.5983,-0.6247,-0.6668,2.7102,2.6314,2.6314,2.6207,2.6052,2.6014,2.5917,2.5732,2.5732,2.5732,2.5732,2.5732,2.5732,2.5732,2.5684,2.5684,2.5732,2.5732,2.5684,2.5684,2.5693,2.5538,2.5226,2.4741,2.427,2.3864,2.3573,2.2942,2.2188,2.1668,2.1226,2.0618,2.0184,1.9812,1.953,1.9255,1.9101,1.9009,1.8979,1.8907,1.8671,1.8243,1.7903,1.7614,1.7047,1.664,1.6476,1.6402,1.6435,1.6345,1.5974,1.5684,1.556,1.5526,1.5526,1.5443,1.5159,1.4999,1.4915,1.4783,1.4573,1.4615,1.4657,1.4566,1.4566,1.4447,1.4356,1.4321,1.4159,1.3948,1.3779,1.361,1.3349,1.3094,1.2881,1.2619,1.21,1.1456,1.1068,1.1025,1.1025,1.102,1.0933,1.0766,1.0549,1.0197,0.9811,0.9336,0.8903,0.8508,0.8245,0.8021,0.7757,0.7452,0.7054,0.6653,0.6163,0.565,0.4705,0.3863,0.2751,0.1677,0.072,-0.0158,-0.0864,-0.1529,-0.2194,-0.2665,-0.3017,-0.3602,-0.4226,-0.4657,-0.5085,-0.547,-0.5896,2.7686,2.6842,2.6812,2.6668,2.6476,2.6486,2.6294,2.612,2.6072,2.6072,2.6024,2.5965,2.5868,2.5868,2.5781,2.5732,2.5927,2.6024,2.6014,2.5917,2.5868,2.583,2.5684,2.543,2.5101,2.4784,2.4411,2.3881,2.3288,2.2722,2.2143,2.158,2.1248,2.0961,2.0673,2.0447,2.0393,2.0367,2.0355,2.0306,2.0175,1.9911,1.9325,1.8828,1.8097,1.757,1.7456,1.7456,1.7497,1.7489,1.7367,1.6952,1.6542,1.6509,1.6419,1.6263,1.6057,1.5775,1.5692,1.5526,1.5352,1.5352,1.536,1.5276,1.5151,1.4985,1.4817,1.4699,1.4538,1.4328,1.4195,1.4195,1.4026,1.3893,1.3766,1.3639,1.3385,1.2571,1.1972,1.1972,1.1977,1.1972,1.188,1.1757,1.1542,1.1235,1.0977,1.0501,0.9898,0.9467,0.9034,0.8771,0.8548,0.8197,0.7713,0.7272,0.683,0.6339,0.567,0.5067,0.4358,0.3272,0.223,0.1303,0.0314,-0.0353,-0.098,-0.1412,-0.2,-0.2665,-0.3249,-0.372,-0.4187,-0.4577,-0.5043,2.8338,2.7563,2.7515,2.7373,2.7136,2.7088,2.6907,2.664,2.6582,2.6592,2.6544,2.6332,2.6235,2.6197,2.6014,2.6062,2.6294,2.6486,2.6486,2.638,2.6284,2.6197,2.6014,2.582,2.5713,2.5684,2.516,2.462,2.4159,2.3599,2.2974,2.2398,2.2195,2.1865,2.1624,2.1535,2.149,2.1472,2.1445,2.1415,2.1282,2.1185,2.0616,1.9692,1.9083,1.8544,1.8451,1.8376,1.8456,1.8505,1.8882,1.8585,1.8046,1.7642,1.7521,1.7277,1.7025,1.6788,1.6591,1.6427,1.6296,1.6296,1.6296,1.6221,1.6023,1.5767,1.5567,1.5276,1.5068,1.4817,1.481,1.4776,1.4776,1.4734,1.4608,1.4566,1.4391,1.3626,1.3245,1.279,1.2705,1.2656,1.2699,1.2656,1.2443,1.2229,1.1972,1.1628,1.0982,1.0419,1.0033,0.9646,0.9423,0.8947,0.8464,0.7973,0.7533,0.7095,0.657,0.6059,0.5599,0.4637,0.3523,0.2406,0.1489,0.0824,0.0157,-0.0353,-0.098,-0.1685,-0.2195,-0.2586,-0.3095,-0.3641,-0.4148,2.9568,2.9106,2.8885,2.8549,2.8164,2.794,2.7573,2.7146,2.7146,2.7098,2.7098,2.686,2.6812,2.6764,2.6764,2.6812,2.7003,2.7146,2.7088,2.6993,2.6897,2.6764,2.662,2.6284,2.6091,2.5945,2.5673,2.5284,2.4865,2.4429,2.3744,2.3233,2.2863,2.2533,2.2318,2.2211,2.2211,2.2211,2.2211,2.218,2.212,2.181,2.1292,2.0387,1.9992,1.9632,1.9216,1.9152,1.9192,1.9359,1.9478,1.9469,1.9301,1.8944,1.8625,1.8336,1.8006,1.7732,1.7529,1.7318,1.7196,1.7196,1.7229,1.7196,1.7033,1.6706,1.6427,1.6057,1.5643,1.5311,1.5269,1.5352,1.5311,1.5311,1.5352,1.5304,1.5228,1.497,1.4475,1.3893,1.3597,1.3343,1.3385,1.3385,1.3173,1.2918,1.2662,1.2357,1.1843,1.1413,1.1025,1.0679,1.0337,0.982,0.9213,0.8723,0.8277,0.7943,0.7462,0.6902,0.6373,0.5767,0.4801,0.3736,0.2713,0.1881,0.1293,0.0746,0.0196,-0.0431,-0.0902,-0.1373,-0.1921,-0.2507,-0.3134,3.0641,3.0204,2.9977,2.9658,2.929,2.8921,2.8549,2.8186,2.8023,2.7977,2.793,2.7752,2.7668,2.762,2.7526,2.7573,2.7809,2.794,2.794,2.7809,2.7715,2.7468,2.7268,2.6849,2.662,2.6486,2.6225,2.5748,2.5135,2.4873,2.4348,2.3732,2.3386,2.3158,2.2842,2.275,2.2794,2.274,2.2794,2.275,2.2711,2.2399,2.1867,2.1495,2.0876,2.0431,2.0212,1.989,1.9872,1.9951,2.0069,2.0147,2.0137,1.9971,1.9618,1.9231,1.8944,1.8736,1.8576,1.8407,1.8407,1.8367,1.8367,1.8336,1.8135,1.7804,1.7318,1.6796,1.655,1.618,1.6105,1.6139,1.6214,1.6255,1.6337,1.6337,1.6255,1.6131,1.5677,1.5061,1.4734,1.444,1.4062,1.4026,1.3815,1.3603,1.3349,1.3009,1.2619,1.2357,1.2015,1.1585,1.1241,1.0766,1.0207,0.968,0.924,0.8865,0.8336,0.7804,0.7235,0.6623,0.6003,0.5175,0.4172,0.3134,0.2391,0.1804,0.1294,0.0824,0.0314,-0.0196,-0.0745,-0.1333,-0.196,3.1516,3.1181,3.097,3.0713,3.0397,2.9988,2.9588,2.9301,2.9095,2.9002,2.8956,2.8792,2.8653,2.8653,2.8513,2.8513,2.8757,2.8967,2.8921,2.8792,2.8699,2.8409,2.806,2.7647,2.7421,2.7231,2.6907,2.6257,2.5627,2.5315,2.4795,2.4303,2.4067,2.3708,2.332,2.3232,2.3222,2.3222,2.3232,2.3232,2.3134,2.2918,2.2673,2.2552,2.1702,2.1221,2.1045,2.0689,2.0545,2.0566,2.0566,2.0605,2.0654,2.0605,2.0333,1.9912,1.9754,1.9627,1.946,1.9371,1.9292,1.9253,1.9381,1.9301,1.9103,1.8656,1.8175,1.757,1.7286,1.7245,1.7164,1.7204,1.7286,1.7359,1.748,1.7553,1.7359,1.7196,1.6984,1.646,1.594,1.5492,1.511,1.458,1.4412,1.4279,1.4068,1.3737,1.3385,1.3307,1.296,1.2491,1.2063,1.1714,1.1198,1.0722,1.0328,1.0014,0.9374,0.8716,0.8136,0.7564,0.6914,0.6268,0.5541,0.4535,0.372,0.2902,0.243,0.196,0.153,0.102,0.051,-0.0118,-0.0745,3.2262,3.2213,3.1913,3.1593,3.1172,3.0847,3.0487,3.0125,3.0068,3.0023,3.0023,2.9783,2.9681,2.9635,2.9635,2.9738,2.9943,2.9988,2.9977,2.9932,2.9795,2.9646,2.9395,2.8806,2.8491,2.8211,2.7741,2.7067,2.6523,2.6061,2.5528,2.5047,2.4626,2.4225,2.3851,2.3774,2.3711,2.3711,2.3711,2.3711,2.3691,2.3501,2.3206,2.2863,2.248,2.2109,2.1818,2.1437,2.1242,2.1352,2.0909,2.0771,2.078,2.0683,2.0605,2.045,2.0342,2.0098,1.9912,1.9863,1.9854,1.9863,1.9824,1.9824,1.9666,1.9429,1.9024,1.8834,1.8425,1.8215,1.8215,1.8215,1.8296,1.8376,1.8456,1.8496,1.8416,1.8175,1.7965,1.7764,1.7237,1.655,1.6008,1.545,1.5006,1.4873,1.4748,1.4412,1.4075,1.3942,1.3737,1.3179,1.2839,1.2485,1.2186,1.1671,1.137,1.1111,1.0394,0.9702,0.9217,0.8661,0.7869,0.7203,0.653,0.5796,0.4846,0.4109,0.3604,0.3096,0.2626,0.2195,0.1763,0.1137,0.0471,3.2779,3.2779,3.2481,3.2264,3.2057,3.1693,3.1415,3.1238,3.1116,3.1026,3.1026,3.0925,3.0869,3.0824,3.0869,3.0925,3.1026,3.1026,3.1071,3.1026,3.088,3.0791,3.0521,3.0057,2.9646,2.9325,2.8956,2.8642,2.7949,2.7128,2.6396,2.5982,2.5532,2.5077,2.46,2.4331,2.4239,2.4209,2.4198,2.4198,2.4122,2.4003,2.3813,2.3644,2.3168,2.2854,2.2615,2.235,2.2201,2.2271,2.2059,2.2059,2.2029,2.1919,2.1779,2.1342,2.1273,2.0958,2.042,2.0352,2.0294,2.0294,2.0294,2.0255,2.0137,1.9981,1.9666,1.9359,1.9161,1.9073,1.9063,1.9063,1.9112,1.9192,1.9301,1.9271,1.9231,1.9152,1.8944,1.8745,1.8496,1.7804,1.7155,1.6624,1.6105,1.5707,1.545,1.5117,1.4699,1.4363,1.4117,1.3786,1.3483,1.3264,1.2966,1.2625,1.24,1.2057,1.1499,1.0844,1.0381,0.9766,0.8995,0.8329,0.7776,0.6939,0.5977,0.5234,0.4693,0.4187,0.372,0.3327,0.2898,0.2277,0.1582,3.3124,3.3068,3.2896,3.2766,3.268,3.232,3.2133,3.2045,3.1925,3.1849,3.1893,3.1837,3.1837,3.1849,3.1805,3.1805,3.1849,3.1893,3.1893,3.1893,3.1837,3.1705,3.1484,3.1116,3.0779,3.0566,3.0159,2.9886,2.9463,2.8776,2.7968,2.7158,2.6653,2.6129,2.5653,2.5188,2.4935,2.5009,2.5052,2.5052,2.4967,2.4775,2.4615,2.433,2.3932,2.3591,2.3572,2.332,2.3207,2.342,2.3273,2.3168,2.316,2.2998,2.2755,2.243,2.2349,2.2118,2.1539,2.1153,2.0848,2.0722,2.0693,2.0576,2.0498,2.043,2.0303,1.9912,1.9794,1.9706,1.9657,1.9745,1.9784,1.9863,1.9932,1.9902,1.9872,1.9754,1.9666,1.9499,1.9301,1.9103,1.8456,1.7925,1.7318,1.6648,1.6196,1.5824,1.5409,1.4985,1.4657,1.4412,1.4153,1.3942,1.3815,1.3561,1.3343,1.3045,1.2485,1.204,1.162,1.0932,1.0138,0.9497,0.8976,0.8294,0.7481,0.6581,0.5741,0.516,0.4693,0.4421,0.3954,0.3342,0.2637,3.3124,3.3124,3.3081,3.2939,3.2711,3.268,3.255,3.2388,3.2344,3.2344,3.2344,3.2344,3.2344,3.2344,3.2344,3.2344,3.2356,3.2356,3.2344,3.2344,3.2344,3.2288,3.2157,3.1969,3.1725,3.1492,3.1193,3.097,3.0857,3.0588,2.9647,2.8724,2.7999,2.7413,2.6809,2.6253,2.5968,2.606,2.6174,2.6185,2.6019,2.581,2.5569,2.52,2.4914,2.4766,2.4734,2.4471,2.4393,2.468,2.4441,2.428,2.4344,2.4121,2.3875,2.3646,2.3564,2.3419,2.3068,2.214,2.1344,2.1148,2.1012,2.0935,2.0867,2.0683,2.0566,2.0498,2.0381,2.0342,2.0372,2.0411,2.0381,2.042,2.0489,2.045,2.0381,2.0274,2.0186,2.0186,2.002,1.9745,1.9597,1.8975,1.8336,1.7659,1.7049,1.6673,1.6188,1.5775,1.5401,1.5075,1.4817,1.465,1.4615,1.4398,1.4181,1.3928,1.3548,1.3209,1.2887,1.2121,1.1282,1.0751,1.0244,0.9606,0.8969,0.805,0.7105,0.62,0.5628,0.5287,0.4873,0.4245,0.3546,3.3124,3.3124,3.3124,3.3038,3.2939,3.2939,3.2909,3.2822,3.2822,3.2822,3.2822,3.2822,3.2835,3.2822,3.281,3.2822,3.2822,3.2822,3.2822,3.2822,3.2822,3.2822,3.2723,3.255,3.2351,3.222,3.2057,3.1937,3.1837,3.1769,3.1633,3.0731,2.9482,2.8743,2.8102,2.7402,2.709,2.7133,2.7244,2.7214,2.7021,2.6805,2.6558,2.626,2.5988,2.5904,2.5861,2.5906,2.5953,2.5987,2.592,2.5831,2.5797,2.5606,2.5352,2.5022,2.4989,2.4869,2.4519,2.3563,2.2728,2.2121,2.1763,2.1446,2.1379,2.1195,2.1079,2.1002,2.0925,2.0964,2.0935,2.0886,2.0896,2.0974,2.0974,2.0964,2.0886,2.078,2.0702,2.0615,2.045,2.0255,2.0147,1.999,1.9311,1.8625,1.8055,1.748,1.7041,1.664,1.6263,1.5933,1.5643,1.5394,1.5311,1.5186,1.5019,1.481,1.4608,1.4314,1.3971,1.3288,1.25,1.2004,1.144,1.0806,1.012,0.9352,0.8427,0.7313,0.6624,0.6171,0.5665,0.513,0.4571,3.3124,3.3124,3.3124,3.3124,3.3124,3.3124,3.3124,3.3124,3.3081,3.3124,3.3124,3.3124,3.3124,3.3124,3.3081,3.3081,3.3081,3.3081,3.3081,3.3081,3.3081,3.3124,3.3038,3.2939,3.2766,3.2766,3.268,3.2562,3.2562,3.2605,3.2481,3.1933,3.0949,3.0019,2.9241,2.8492,2.7955,2.8051,2.8143,2.8103,2.7874,2.7742,2.751,2.733,2.7103,2.7021,2.7062,2.7098,2.7232,2.7354,2.74,2.7435,2.7389,2.7244,2.7001,2.6714,2.648,2.632,2.591,2.4943,2.4017,2.3217,2.2751,2.23,2.1963,2.1807,2.1693,2.1617,2.1578,2.1578,2.154,2.154,2.1502,2.154,2.1387,2.1387,2.1349,2.1272,2.1167,2.1079,2.0925,2.0809,2.0693,2.0547,2.0029,1.9429,1.8904,1.8425,1.8063,1.7619,1.7196,1.687,1.6583,1.6296,1.6049,1.6124,1.6165,1.5918,1.5677,1.536,1.4943,1.4314,1.3795,1.3387,1.2777,1.2029,1.1402,1.0814,0.9627,0.8273,0.7616,0.699,0.6599,0.6112,0.5748,3.3124,3.3124,3.3124,3.3124,3.3124,3.3124,3.3124,3.3124,3.3124,3.3124,3.3124,3.3124,3.3124,3.3124,3.3124,3.3124,3.3124,3.3124,3.3124,3.3124,3.3124,3.3124,3.3124,3.3081,3.3038,3.3081,3.2995,3.2952,3.305,3.2952,3.2995,3.2669,3.168,3.0741,3.0262,2.9286,2.8788,2.8791,2.8961,2.8882,2.8712,2.8633,2.8407,2.8167,2.8047,2.8007,2.8047,2.8047,2.8139,2.8259,2.8299,2.8287,2.8299,2.8179,2.8039,2.8004,2.7992,2.802,2.7945,2.6249,2.5221,2.4414,2.4023,2.3449,2.287,2.2574,2.2451,2.2402,2.2402,2.2354,2.2289,2.2214,2.2187,2.2149,2.2025,2.1959,2.1959,2.1807,2.1721,2.1617,2.1512,2.1397,2.1282,2.1051,2.0586,2.0108,1.9715,1.932,1.8953,1.8594,1.8135,1.7885,1.7561,1.7359,1.7196,1.7269,1.7269,1.7025,1.6747,1.6419,1.6015,1.5477,1.5039,1.4678,1.406,1.3339,1.2841,1.2377,1.1065,0.977,0.8517,0.7792,0.7424,0.7115,0.6737,3.3124,3.3124,3.3124,3.3124,3.3124,3.3124,3.3124,3.3124,3.3124,3.3124,3.3124,3.3124,3.3124,3.3124,3.3124,3.3124,3.3124,3.3124,3.3124,3.3124,3.3124,3.3124,3.3124,3.3154,3.3124,3.3124,3.3124,3.3124,3.3081,3.3167,3.3124,3.2835,3.1955,3.0901,3.0114,2.9413,2.9275,2.9456,2.9507,2.9456,2.9223,2.9184,2.9079,2.8803,2.8776,2.8776,2.8764,2.8776,2.8816,2.8907,2.8895,2.8895,2.8895,2.8776,2.8816,2.8816,2.8776,2.8816,2.8752,2.7963,2.7367,2.6375,2.5363,2.4732,2.425,2.3664,2.3427,2.3261,2.325,2.325,2.3187,2.315,2.3113,2.3075,2.3001,2.2889,2.2815,2.2515,2.2365,2.2252,2.2138,2.1921,2.1731,2.1731,2.1339,2.1041,2.0683,2.0137,1.9706,1.9429,1.9073,1.8865,1.8625,1.8425,1.8336,1.8287,1.8167,1.7925,1.7683,1.7432,1.6984,1.6542,1.6214,1.5812,1.524,1.4692,1.4074,1.3364,1.2518,1.1326,1.018,0.9022,0.8539,0.8124,0.7714,3.3313,3.3313,3.3313,3.3313,3.3283,3.3167,3.3124,3.321,3.3197,3.324,3.3326,3.3326,3.3326,3.3326,3.3326,3.3326,3.3313,3.3326,3.3313,3.3313,3.3326,3.3368,3.3313,3.3313,3.3356,3.3326,3.3326,3.3326,3.3368,3.3326,3.3017,3.2525,3.1928,3.0952,3.0129,2.9636,2.9599,2.9702,2.9702,2.9663,2.956,2.9521,2.9482,2.9378,2.9339,2.9339,2.9339,2.9339,2.9339,2.9339,2.9339,2.9351,2.9339,2.9339,2.9339,2.9339,2.9339,2.9339,2.9275,2.9275,2.867,2.8232,2.6978,2.6068,2.5515,2.492,2.4543,2.433,2.42,2.4177,2.4166,2.4129,2.4057,2.402,2.3911,2.3801,2.3655,2.3386,2.3213,2.3065,2.2916,2.2617,2.2327,2.2252,2.2138,2.1911,2.1683,2.1108,2.0566,2.0255,2.002,1.9824,1.9627,1.942,1.9262,1.9173,1.9024,1.8785,1.8616,1.8447,1.8055,1.761,1.7286,1.6919,1.6329,1.5752,1.5054,1.4357,1.3597,1.2867,1.1943,1.0884,0.9819,0.9206,0.8759,3.3713,3.3725,3.3755,3.3755,3.367,3.3441,3.3368,3.3441,3.3441,3.3569,3.3713,3.3768,3.3768,3.3768,3.3768,3.3755,3.3713,3.3725,3.3713,3.3713,3.3725,3.3725,3.3725,3.3768,3.381,3.3755,3.3755,3.381,3.3768,3.3725,3.3171,3.2268,3.196,3.1104,3.0365,2.9895,2.9844,2.9818,2.9818,2.9818,2.9779,2.9805,2.9818,2.9818,2.9805,2.9779,2.9818,2.9805,2.9818,2.983,2.983,2.983,2.983,2.9818,2.9818,2.9818,2.983,2.983,2.9818,2.9779,2.9767,2.9361,2.8705,2.7553,2.6624,2.6092,2.5624,2.5338,2.5171,2.5218,2.5206,2.5087,2.4945,2.4874,2.4755,2.4659,2.4563,2.4383,2.4202,2.4057,2.3911,2.3655,2.3324,2.3176,2.3027,2.2852,2.2665,2.2365,2.1787,2.1136,2.0905,2.0799,2.0566,2.0381,2.0255,2.0089,1.9893,1.9696,1.9627,1.946,1.9063,1.8665,1.8336,1.7885,1.7399,1.6788,1.6173,1.5511,1.488,1.4129,1.34,1.2355,1.1155,1.0297,0.9764,3.4426,3.4426,3.4592,3.462,3.462,3.4509,3.4272,3.3949,3.3907,3.4076,3.4426,3.4426,3.4468,3.4426,3.4426,3.433,3.4259,3.4189,3.4189,3.423,3.4272,3.423,3.4272,3.4343,3.4384,3.4426,3.4413,3.4454,3.4397,3.4301,3.3632,3.2642,3.234,3.1538,3.0804,3.0305,3.0075,2.996,2.9998,3.0049,3.0088,3.0152,3.019,3.0228,3.0216,3.0228,3.0228,3.0216,3.0228,3.0228,3.0216,3.0216,3.0228,3.0216,3.0216,3.0216,3.0216,3.0228,3.0228,3.0216,3.0216,3.0228,2.9834,2.9189,2.8164,2.725,2.6638,2.6343,2.6061,2.5975,2.5818,2.5664,2.5594,2.5523,2.5453,2.5312,2.5206,2.5099,2.4921,2.4826,2.4707,2.4491,2.4154,2.4045,2.39,2.3765,2.3593,2.3409,2.2964,2.2241,2.1787,2.1672,2.1454,2.1223,2.1156,2.1031,2.0838,2.0644,2.0527,2.0372,2.002,1.9657,1.9301,1.8856,1.8327,1.7813,1.7286,1.6624,1.5966,1.5436,1.4719,1.3649,1.2607,1.1752,1.0982,3.5305,3.5345,3.5467,3.5507,3.5507,3.5507,3.5359,3.5087,3.484,3.4909,3.5209,3.5305,3.5345,3.5305,3.5277,3.5168,3.5059,3.4977,3.4977,3.4977,3.4936,3.5018,3.5046,3.5168,3.5277,3.5277,3.5318,3.5305,3.5209,3.4911,3.4338,3.3119,3.2922,3.2057,3.1249,3.0759,3.0608,3.047,3.0368,3.0343,3.0457,3.0558,3.0596,3.0672,3.0672,3.0672,3.0672,3.0672,3.0634,3.0634,3.0621,3.0634,3.0634,3.0634,3.0634,3.0634,3.0634,3.0647,3.0647,3.0647,3.0634,3.0634,3.0634,3.0252,2.9566,2.8697,2.7907,2.7283,2.6934,2.6636,2.6405,2.6198,2.6176,2.6107,2.6002,2.5933,2.5828,2.5711,2.5606,2.5512,2.5359,2.5123,2.4981,2.4874,2.4767,2.4635,2.4527,2.4383,2.3875,2.3165,2.2718,2.2505,2.2279,2.2052,2.1987,2.1883,2.1645,2.1415,2.1262,2.1069,2.0886,2.0654,2.0323,1.9805,1.9253,1.8776,1.8336,1.7691,1.7041,1.6517,1.6064,1.5255,1.4245,1.3281,1.2559,3.6413,3.6427,3.6452,3.6506,3.6466,3.6506,3.6584,3.6744,3.6229,3.6004,3.6177,3.6348,3.6427,3.6427,3.6322,3.6177,3.6071,3.5951,3.5831,3.5831,3.5871,3.5937,3.6017,3.6151,3.6322,3.6387,3.6387,3.6308,3.6097,3.5828,3.5192,3.3819,3.3713,3.2979,3.1776,3.1505,3.1405,3.1344,3.1209,3.1123,3.0973,3.1011,3.1099,3.1123,3.1161,3.1161,3.1123,3.1086,3.1099,3.1086,3.1086,3.1136,3.1123,3.111,3.1123,3.1123,3.1161,3.1161,3.1198,3.1198,3.1161,3.1123,3.1086,3.1071,3.0618,2.9733,2.882,2.8385,2.8055,2.7573,2.7261,2.7052,2.6933,2.669,2.6521,2.643,2.6327,2.6258,2.6223,2.6107,2.5955,2.5769,2.5616,2.5476,2.5359,2.5324,2.5253,2.517,2.4838,2.4118,2.3717,2.3434,2.3213,2.299,2.2777,2.2665,2.2413,2.2176,2.2063,2.1873,2.1721,2.153,2.1339,2.0828,2.0274,1.9814,1.9341,1.8696,1.8135,1.77,1.7245,1.6829,1.5992,1.4991,1.4168,3.7515,3.7529,3.7682,3.7758,3.7734,3.772,3.7772,3.7863,3.7848,3.7558,3.7289,3.739,3.7491,3.7453,3.7376,3.7197,3.6978,3.6847,3.6822,3.6783,3.6783,3.6861,3.7017,3.7197,3.7376,3.7491,3.7453,3.7275,3.7017,3.676,3.6196,3.4891,3.4598,3.3854,3.2662,3.2494,3.2318,3.2318,3.2331,3.2128,3.1946,3.1982,3.2055,3.2055,3.2042,3.1982,3.1946,3.185,3.185,3.1836,3.1836,3.185,3.185,3.1836,3.1836,3.185,3.185,3.185,3.185,3.185,3.185,3.185,3.1886,3.1946,3.1562,3.0553,2.9881,2.9578,2.9164,2.8669,2.8209,2.7963,2.7696,2.7396,2.705,2.6948,2.6845,2.6786,2.6786,2.6671,2.6521,2.6371,2.622,2.6094,2.5933,2.5828,2.5758,2.5688,2.5641,2.517,2.4731,2.4443,2.4227,2.4009,2.3728,2.3508,2.3287,2.315,2.299,2.2804,2.259,2.2365,2.2166,2.1835,2.1367,2.0895,2.0391,1.9726,1.9204,1.8776,1.8345,1.7885,1.7642,1.6846,1.5992,3.83,3.8337,3.8412,3.8464,3.8449,3.8449,3.8464,3.8501,3.8701,3.859,3.8292,3.83,3.8285,3.8263,3.8188,3.8089,3.7839,3.7711,3.762,3.7596,3.7634,3.7725,3.7901,3.8037,3.815,3.8263,3.8165,3.7976,3.7839,3.7639,3.7039,3.6094,3.5656,3.4937,3.3952,3.3558,3.329,3.3325,3.343,3.3325,3.3058,3.3094,3.3009,3.2974,3.2938,3.2868,3.281,3.2704,3.2632,3.2632,3.2668,3.2632,3.2632,3.2632,3.2632,3.2632,3.2632,3.2632,3.2632,3.2632,3.2632,3.2632,3.2739,3.2846,3.2903,3.2014,3.1507,3.1167,3.0653,3.0161,2.9539,2.9209,2.8942,2.8625,2.8116,2.7793,2.7462,2.718,2.718,2.7134,2.7019,2.6998,2.685,2.6782,2.6624,2.6499,2.6396,2.628,2.6245,2.6129,2.5734,2.5382,2.517,2.4921,2.4635,2.4407,2.4263,2.4093,2.3911,2.3703,2.3471,2.3224,2.3001,2.2767,2.2456,2.2042,2.1461,2.0837,2.0265,1.9795,1.9362,1.8935,1.8736,1.8527,1.7796,3.887,3.887,3.8855,3.887,3.8855,3.887,3.887,3.8907,3.9053,3.9104,3.9031,3.8907,3.8855,3.8797,3.8686,3.8612,3.8501,3.8389,3.8315,3.8263,3.8277,3.8352,3.8478,3.859,3.8723,3.876,3.8701,3.8627,3.8516,3.8331,3.798,3.7354,3.6692,3.5981,3.5239,3.4591,3.4153,3.4119,3.4187,3.4385,3.4283,3.4128,3.3908,3.3825,3.3825,3.3736,3.3667,3.3563,3.3444,3.3444,3.3444,3.3409,3.3409,3.3409,3.3409,3.3409,3.3409,3.3409,3.3409,3.3409,3.3409,3.3479,3.3632,3.3701,3.3722,3.351,3.302,3.2645,3.2152,3.1578,3.0966,3.0549,3.0246,2.9816,2.9245,2.8677,2.8224,2.7847,2.7788,2.7774,2.7649,2.7596,2.749,2.7423,2.7302,2.7146,2.7045,2.6943,2.6829,2.6726,2.6474,2.6198,2.5978,2.5734,2.5418,2.5241,2.5028,2.4886,2.4671,2.4539,2.4358,2.4166,2.3973,2.3863,2.3522,2.308,2.2569,2.1956,2.1413,2.0837,2.0352,1.9932,1.9805,1.9608,1.9411,3.9265,3.9301,3.9286,3.925,3.925,3.9265,3.9301,3.9301,3.9301,3.9337,3.9301,3.9301,3.9301,3.9265,3.9265,3.9156,3.8922,3.8885,3.8797,3.8708,3.8797,3.8922,3.8995,3.8995,3.9228,3.9192,3.9156,3.9104,3.8958,3.8892,3.8553,3.7855,3.7113,3.6432,3.5786,3.5194,3.4721,3.4706,3.4754,3.4835,3.4916,3.475,3.4597,3.4515,3.4515,3.438,3.4278,3.4196,3.4196,3.4196,3.4162,3.4128,3.4128,3.4128,3.4128,3.4094,3.4094,3.4128,3.4079,3.4079,3.4079,3.4113,3.423,3.4298,3.4366,3.4433,3.4143,3.4148,3.3657,3.3016,3.2458,3.2114,3.1777,3.1095,3.0506,2.9942,2.9429,2.916,2.9018,2.871,2.8389,2.827,2.8124,2.7993,2.7809,2.7689,2.7556,2.7456,2.7356,2.7255,2.7201,2.6964,2.6714,2.6327,2.591,2.5863,2.5676,2.5571,2.543,2.5218,2.5099,2.5099,2.4945,2.4743,2.4443,2.3998,2.3486,2.3005,2.2494,2.1966,2.1339,2.0925,2.0799,2.0634,2.043]}]]